Wetterdaten: Dienstag, 09.02.2016
Datum Zeit Temp. A. Feuchte A. Luftdruck Regen Wind Richtung Richtung Sonnenschein ET UV Solar Taupunkt Windchill Windben Empfang
09.02.2016 00:00 5,6 C 92 % 1009,2 hPa 0,0 l/m 4,4 km/h (1 Bft) W 265 0 min 0,000 mm 0,0 UV-I 0 W/m 4,4 C 5,6 C 6,4 km/h (2 Bft) 91,30 %
09.02.2016 00:01 5,5 C 92 % 1009,1 hPa 0,0 l/m 3,5 km/h (1 Bft) W-SW 257 0 min 0,000 mm 0,0 UV-I 0 W/m 4,3 C 5,5 C 6,4 km/h (2 Bft) 88,24 %
09.02.2016 00:02 5,5 C 92 % 1009,1 hPa 0,0 l/m 3,8 km/h (1 Bft) SW 236 0 min 0,000 mm 0,0 UV-I 0 W/m 4,3 C 5,5 C 4,8 km/h (1 Bft) 100,00 %
09.02.2016 00:03 5,5 C 92 % 1009,3 hPa 0,0 l/m 4,2 km/h (1 Bft) W-SW 251 0 min 0,000 mm 0,0 UV-I 0 W/m 4,3 C 5,5 C 4,8 km/h (1 Bft) 83,33 %
09.02.2016 00:04 5,4 C 92 % 1009,3 hPa 0,0 l/m 5,8 km/h (2 Bft) W 259 0 min 0,000 mm 0,0 UV-I 0 W/m 4,2 C 5,4 C 9,7 km/h (2 Bft) 100,00 %
09.02.2016 00:05 5,4 C 92 % 1009,3 hPa 0,0 l/m 4,5 km/h (1 Bft) W 263 0 min 0,000 mm 0,0 UV-I 0 W/m 4,2 C 5,4 C 4,8 km/h (1 Bft) 96,30 %
09.02.2016 00:06 5,4 C 92 % 1009,3 hPa 0,0 l/m 3,4 km/h (1 Bft) W 273 0 min 0,000 mm 0,0 UV-I 0 W/m 4,2 C 5,4 C 4,8 km/h (1 Bft) 100,00 %
09.02.2016 00:07 5,4 C 92 % 1009,4 hPa 0,0 l/m 4,0 km/h (1 Bft) W 266 0 min 0,000 mm 0,0 UV-I 0 W/m 4,2 C 5,4 C 4,8 km/h (1 Bft) 93,33 %
09.02.2016 00:08 5,4 C 92 % 1009,4 hPa 0,0 l/m 4,4 km/h (1 Bft) W-SW 257 0 min 0,000 mm 0,0 UV-I 0 W/m 4,2 C 5,4 C 6,4 km/h (2 Bft) 100,00 %
09.02.2016 00:09 5,4 C 93 % 1009,4 hPa 0,0 l/m 3,6 km/h (1 Bft) W-SW 257 0 min 0,000 mm 0,0 UV-I 0 W/m 4,4 C 5,4 C 4,8 km/h (1 Bft) 96,15 %
09.02.2016 00:10 5,3 C 93 % 1009,4 hPa 0,0 l/m 3,4 km/h (1 Bft) W-SW 257 0 min 0,000 mm 0,0 UV-I 0 W/m 4,3 C 5,3 C 4,8 km/h (1 Bft) 95,83 %
09.02.2016 00:11 5,3 C 93 % 1009,4 hPa 0,0 l/m 3,3 km/h (1 Bft) W-SW 257 0 min 0,000 mm 0,0 UV-I 0 W/m 4,3 C 5,3 C 4,8 km/h (1 Bft) 100,00 %
09.02.2016 00:12 5,3 C 93 % 1009,4 hPa 0,0 l/m 2,9 km/h (1 Bft) W 264 0 min 0,000 mm 0,0 UV-I 0 W/m 4,3 C 5,3 C 4,8 km/h (1 Bft) 100,00 %
09.02.2016 00:13 5,3 C 93 % 1009,3 hPa 0,0 l/m 2,3 km/h (1 Bft) W 264 0 min 0,000 mm 0,0 UV-I 0 W/m 4,3 C 5,3 C 4,8 km/h (1 Bft) 100,00 %
09.02.2016 00:14 5,3 C 93 % 1009,3 hPa 0,0 l/m 2,4 km/h (1 Bft) W 267 0 min 0,000 mm 0,0 UV-I 0 W/m 4,3 C 5,3 C 3,2 km/h (1 Bft) 96,30 %
09.02.2016 00:15 5,3 C 93 % 1009,3 hPa 0,0 l/m 2,8 km/h (1 Bft) W 267 0 min 0,000 mm 0,0 UV-I 0 W/m 4,3 C 5,3 C 3,2 km/h (1 Bft) 100,00 %
09.02.2016 00:16 5,3 C 93 % 1009,3 hPa 0,0 l/m 1,9 km/h (1 Bft) W 266 0 min 0,000 mm 0,0 UV-I 0 W/m 4,3 C 5,3 C 3,2 km/h (1 Bft) 95,83 %
09.02.2016 00:17 5,3 C 93 % 1009,4 hPa 0,0 l/m 3,0 km/h (1 Bft) W 266 0 min 0,000 mm 0,0 UV-I 0 W/m 4,3 C 5,3 C 3,2 km/h (1 Bft) 100,00 %
09.02.2016 00:18 5,3 C 93 % 1009,3 hPa 0,0 l/m 1,4 km/h (1 Bft) W 266 0 min 0,000 mm 0,0 UV-I 0 W/m 4,3 C 5,3 C 3,2 km/h (1 Bft) 100,00 %
09.02.2016 00:19 5,3 C 93 % 1009,4 hPa 0,0 l/m 1,1 km/h (1 Bft) W 266 0 min 0,000 mm 0,0 UV-I 0 W/m 4,3 C 5,3 C 3,2 km/h (1 Bft) 100,00 %
09.02.2016 00:20 5,3 C 93 % 1009,4 hPa 0,0 l/m 1,5 km/h (1 Bft) W 266 0 min 0,000 mm 0,0 UV-I 0 W/m 4,3 C 5,3 C 3,2 km/h (1 Bft) 100,00 %
09.02.2016 00:21 5,3 C 93 % 1009,4 hPa 0,0 l/m 1,5 km/h (1 Bft) W 266 0 min 0,000 mm 0,0 UV-I 0 W/m 4,3 C 5,3 C 3,2 km/h (1 Bft) 100,00 %
09.02.2016 00:22 5,3 C 93 % 1009,3 hPa 0,0 l/m 0,8 km/h (0 Bft) W 266 0 min 0,000 mm 0,0 UV-I 0 W/m 4,3 C 5,3 C 1,6 km/h (1 Bft) 100,00 %
09.02.2016 00:23 5,3 C 93 % 1009,2 hPa 0,0 l/m 1,2 km/h (1 Bft) S 169 0 min 0,000 mm 0,0 UV-I 0 W/m 4,3 C 5,3 C 1,6 km/h (1 Bft) 92,86 %
09.02.2016 00:24 5,3 C 93 % 1009,1 hPa 0,0 l/m 3,2 km/h (1 Bft) S-SO 153 0 min 0,000 mm 0,0 UV-I 0 W/m 4,3 C 5,3 C 4,8 km/h (1 Bft) 100,00 %
09.02.2016 00:25 5,3 C 93 % 1009,1 hPa 0,0 l/m 2,3 km/h (1 Bft) S-SO 152 0 min 0,000 mm 0,0 UV-I 0 W/m 4,3 C 5,3 C 4,8 km/h (1 Bft) 100,00 %
09.02.2016 00:26 5,3 C 93 % 1009,1 hPa 0,0 l/m 3,8 km/h (1 Bft) S-SO 153 0 min 0,000 mm 0,0 UV-I 0 W/m 4,3 C 5,3 C 4,8 km/h (1 Bft) 92,31 %
09.02.2016 00:27 5,2 C 93 % 1009,1 hPa 0,0 l/m 4,2 km/h (1 Bft) S-SO 153 0 min 0,000 mm 0,0 UV-I 0 W/m 4,2 C 5,2 C 4,8 km/h (1 Bft) 96,55 %
09.02.2016 00:28 5,2 C 93 % 1009,0 hPa 0,0 l/m 5,4 km/h (1 Bft) SO 138 0 min 0,000 mm 0,0 UV-I 0 W/m 4,2 C 5,2 C 6,4 km/h (2 Bft) 100,00 %
09.02.2016 00:29 5,1 C 93 % 1009,0 hPa 0,0 l/m 5,9 km/h (2 Bft) SO 134 0 min 0,000 mm 0,0 UV-I 0 W/m 4,1 C 5,1 C 6,4 km/h (2 Bft) 100,00 %
09.02.2016 00:30 5,1 C 93 % 1009,0 hPa 0,0 l/m 6,2 km/h (2 Bft) O-SO 119 0 min 0,000 mm 0,0 UV-I 0 W/m 4,1 C 5,1 C 6,4 km/h (2 Bft) 100,00 %
09.02.2016 00:31 4,9 C 93 % 1009,0 hPa 0,0 l/m 5,2 km/h (1 Bft) O-SO 117 0 min 0,000 mm 0,0 UV-I 0 W/m 3,9 C 4,9 C 6,4 km/h (2 Bft) 100,00 %
09.02.2016 00:32 4,9 C 93 % 1009,0 hPa 0,0 l/m 3,6 km/h (1 Bft) O-SO 117 0 min 0,000 mm 0,0 UV-I 0 W/m 3,9 C 4,9 C 4,8 km/h (1 Bft) 100,00 %
09.02.2016 00:33 4,8 C 93 % 1009,0 hPa 0,0 l/m 4,1 km/h (1 Bft) O-SO 117 0 min 0,000 mm 0,0 UV-I 0 W/m 3,8 C 4,8 C 4,8 km/h (1 Bft) 100,00 %
09.02.2016 00:34 4,7 C 93 % 1009,0 hPa 0,0 l/m 3,8 km/h (1 Bft) O-SO 117 0 min 0,000 mm 0,0 UV-I 0 W/m 3,7 C 4,7 C 4,8 km/h (1 Bft) 96,15 %
09.02.2016 00:35 4,7 C 94 % 1009,1 hPa 0,0 l/m 2,7 km/h (1 Bft) O-SO 123 0 min 0,000 mm 0,0 UV-I 0 W/m 3,8 C 4,7 C 4,8 km/h (1 Bft) 100,00 %
09.02.2016 00:36 4,7 C 94 % 1009,0 hPa 0,0 l/m 6,3 km/h (2 Bft) SO 128 0 min 0,000 mm 0,0 UV-I 0 W/m 3,8 C 4,7 C 8,0 km/h (2 Bft) 100,00 %
09.02.2016 00:37 4,6 C 94 % 1009,0 hPa 0,0 l/m 7,5 km/h (2 Bft) SO 125 0 min 0,000 mm 0,0 UV-I 0 W/m 3,7 C 3,6 C 8,0 km/h (2 Bft) 100,00 %
09.02.2016 00:38 4,6 C 94 % 1009,0 hPa 0,0 l/m 5,1 km/h (1 Bft) SO 125 0 min 0,000 mm 0,0 UV-I 0 W/m 3,7 C 4,6 C 6,4 km/h (2 Bft) 100,00 %
09.02.2016 00:39 4,6 C 94 % 1009,1 hPa 0,0 l/m 4,4 km/h (1 Bft) SO 125 0 min 0,000 mm 0,0 UV-I 0 W/m 3,7 C 4,6 C 4,8 km/h (1 Bft) 100,00 %
09.02.2016 00:40 4,5 C 95 % 1009,0 hPa 0,0 l/m 4,9 km/h (1 Bft) SO 127 0 min 0,000 mm 0,0 UV-I 0 W/m 3,8 C 4,5 C 6,4 km/h (2 Bft) 100,00 %
09.02.2016 00:41 4,5 C 95 % 1009,1 hPa 0,0 l/m 6,0 km/h (2 Bft) SO 129 0 min 0,000 mm 0,0 UV-I 0 W/m 3,8 C 4,5 C 8,0 km/h (2 Bft) 100,00 %
09.02.2016 00:42 4,5 C 95 % 1009,0 hPa 0,0 l/m 5,3 km/h (1 Bft) SO 129 0 min 0,000 mm 0,0 UV-I 0 W/m 3,8 C 4,5 C 6,4 km/h (2 Bft) 100,00 %
09.02.2016 00:43 4,5 C 95 % 1009,0 hPa 0,0 l/m 3,8 km/h (1 Bft) SO 129 0 min 0,000 mm 0,0 UV-I 0 W/m 3,8 C 4,5 C 4,8 km/h (1 Bft) 100,00 %
09.02.2016 00:44 4,4 C 95 % 1009,0 hPa 0,0 l/m 4,0 km/h (1 Bft) O-SO 105 0 min 0,000 mm 0,0 UV-I 0 W/m 3,7 C 4,4 C 6,4 km/h (2 Bft) 95,83 %
09.02.2016 00:45 4,4 C 95 % 1008,9 hPa 0,0 l/m 5,5 km/h (1 Bft) SO 126 0 min 0,000 mm 0,0 UV-I 0 W/m 3,7 C 4,4 C 9,7 km/h (2 Bft) 100,00 %
09.02.2016 00:46 4,3 C 95 % 1008,9 hPa 0,0 l/m 3,7 km/h (1 Bft) SO 124 0 min 0,000 mm 0,0 UV-I 0 W/m 3,6 C 4,3 C 6,4 km/h (2 Bft) 100,00 %
09.02.2016 00:47 4,4 C 95 % 1008,9 hPa 0,0 l/m 4,7 km/h (1 Bft) O-SO 119 0 min 0,000 mm 0,0 UV-I 0 W/m 3,7 C 4,4 C 4,8 km/h (1 Bft) 96,15 %
09.02.2016 00:48 4,4 C 95 % 1008,9 hPa 0,0 l/m 4,1 km/h (1 Bft) SO 131 0 min 0,000 mm 0,0 UV-I 0 W/m 3,7 C 4,4 C 4,8 km/h (1 Bft) 100,00 %
09.02.2016 00:49 4,4 C 95 % 1009,0 hPa 0,0 l/m 1,5 km/h (1 Bft) SO 138 0 min 0,000 mm 0,0 UV-I 0 W/m 3,7 C 4,4 C 3,2 km/h (1 Bft) 100,00 %
09.02.2016 00:50 4,4 C 95 % 1009,0 hPa 0,0 l/m 1,7 km/h (1 Bft) SO 138 0 min 0,000 mm 0,0 UV-I 0 W/m 3,7 C 4,4 C 3,2 km/h (1 Bft) 100,00 %
09.02.2016 00:51 4,4 C 95 % 1009,0 hPa 0,0 l/m 4,7 km/h (1 Bft) SO 129 0 min 0,000 mm 0,0 UV-I 0 W/m 3,7 C 4,4 C 6,4 km/h (2 Bft) 100,00 %
09.02.2016 00:52 4,4 C 95 % 1008,9 hPa 0,0 l/m 5,0 km/h (1 Bft) SO 129 0 min 0,000 mm 0,0 UV-I 0 W/m 3,7 C 4,4 C 6,4 km/h (2 Bft) 100,00 %
09.02.2016 00:53 4,4 C 95 % 1008,8 hPa 0,0 l/m 4,3 km/h (1 Bft) SO 129 0 min 0,000 mm 0,0 UV-I 0 W/m 3,7 C 4,4 C 4,8 km/h (1 Bft) 100,00 %
09.02.2016 00:54 4,3 C 95 % 1008,8 hPa 0,0 l/m 2,1 km/h (1 Bft) SO 135 0 min 0,000 mm 0,0 UV-I 0 W/m 3,6 C 4,3 C 4,8 km/h (1 Bft) 100,00 %
09.02.2016 00:55 4,3 C 95 % 1008,9 hPa 0,0 l/m 2,1 km/h (1 Bft) SO 134 0 min 0,000 mm 0,0 UV-I 0 W/m 3,6 C 4,3 C 3,2 km/h (1 Bft) 100,00 %
09.02.2016 00:56 4,3 C 95 % 1008,7 hPa 0,0 l/m 3,3 km/h (1 Bft) SO 134 0 min 0,000 mm 0,0 UV-I 0 W/m 3,6 C 4,3 C 4,8 km/h (1 Bft) 100,00 %
09.02.2016 00:57 4,3 C 95 % 1008,6 hPa 0,0 l/m 5,2 km/h (1 Bft) SO 134 0 min 0,000 mm 0,0 UV-I 0 W/m 3,6 C 4,3 C 6,4 km/h (2 Bft) 100,00 %
09.02.2016 00:58 4,3 C 95 % 1008,6 hPa 0,0 l/m 4,6 km/h (1 Bft) S-SO 148 0 min 0,000 mm 0,0 UV-I 0 W/m 3,6 C 4,3 C 6,4 km/h (2 Bft) 100,00 %
09.02.2016 00:59 4,3 C 95 % 1008,6 hPa 0,0 l/m 5,2 km/h (1 Bft) O-SO 114 0 min 0,000 mm 0,0 UV-I 0 W/m 3,6 C 4,3 C 9,7 km/h (2 Bft) 100,00 %
09.02.2016 01:00 4,2 C 95 % 1008,6 hPa 0,0 l/m 6,0 km/h (2 Bft) O-SO 113 0 min 0,000 mm 0,0 UV-I 0 W/m 3,5 C 4,2 C 9,7 km/h (2 Bft) 100,00 %
09.02.2016 01:01 4,2 C 95 % 1008,6 hPa 0,0 l/m 3,5 km/h (1 Bft) O-SO 113 0 min 0,000 mm 0,0 UV-I 0 W/m 3,5 C 4,2 C 4,8 km/h (1 Bft) 100,00 %
09.02.2016 01:02 4,2 C 95 % 1008,6 hPa 0,0 l/m 1,5 km/h (1 Bft) O-SO 113 0 min 0,000 mm 0,0 UV-I 0 W/m 3,5 C 4,2 C 3,2 km/h (1 Bft) 100,00 %
09.02.2016 01:03 4,2 C 95 % 1008,6 hPa 0,0 l/m 1,3 km/h (1 Bft) O-SO 113 0 min 0,000 mm 0,0 UV-I 0 W/m 3,5 C 4,2 C 3,2 km/h (1 Bft) 100,00 %
09.02.2016 01:04 4,2 C 96 % 1008,5 hPa 0,0 l/m 2,9 km/h (1 Bft) SO 141 0 min 0,000 mm 0,0 UV-I 0 W/m 3,6 C 4,2 C 6,4 km/h (2 Bft) 100,00 %
09.02.2016 01:05 4,2 C 96 % 1008,5 hPa 0,0 l/m 2,6 km/h (1 Bft) SO 146 0 min 0,000 mm 0,0 UV-I 0 W/m 3,6 C 4,2 C 6,4 km/h (2 Bft) 100,00 %
09.02.2016 01:06 4,2 C 96 % 1008,5 hPa 0,0 l/m 3,4 km/h (1 Bft) SO 136 0 min 0,000 mm 0,0 UV-I 0 W/m 3,6 C 4,2 C 6,4 km/h (2 Bft) 100,00 %
09.02.2016 01:07 4,2 C 96 % 1008,4 hPa 0,0 l/m 4,4 km/h (1 Bft) SO 136 0 min 0,000 mm 0,0 UV-I 0 W/m 3,6 C 4,2 C 4,8 km/h (1 Bft) 100,00 %
09.02.2016 01:08 4,2 C 96 % 1008,4 hPa 0,0 l/m 4,2 km/h (1 Bft) SO 143 0 min 0,000 mm 0,0 UV-I 0 W/m 3,6 C 4,2 C 6,4 km/h (2 Bft) 100,00 %
09.02.2016 01:09 4,2 C 96 % 1008,4 hPa 0,0 l/m 3,5 km/h (1 Bft) S-SO 150 0 min 0,000 mm 0,0 UV-I 0 W/m 3,6 C 4,2 C 4,8 km/h (1 Bft) 100,00 %
09.02.2016 01:10 4,2 C 96 % 1008,5 hPa 0,0 l/m 5,3 km/h (1 Bft) SO 125 0 min 0,000 mm 0,0 UV-I 0 W/m 3,6 C 4,2 C 8,0 km/h (2 Bft) 100,00 %
09.02.2016 01:11 4,2 C 96 % 1008,4 hPa 0,0 l/m 8,8 km/h (2 Bft) O-SO 115 0 min 0,000 mm 0,0 UV-I 0 W/m 3,6 C 2,1 C 11,3 km/h (2 Bft) 100,00 %
09.02.2016 01:12 4,2 C 96 % 1008,3 hPa 0,0 l/m 12,1 km/h (2 Bft) SO 138 0 min 0,000 mm 0,0 UV-I 0 W/m 3,6 C -0,2 C 14,5 km/h (3 Bft) 95,65 %
09.02.2016 01:13 4,3 C 96 % 1008,3 hPa 0,0 l/m 10,8 km/h (2 Bft) SO 144 0 min 0,000 mm 0,0 UV-I 0 W/m 3,7 C 0,7 C 14,5 km/h (3 Bft) 100,00 %
09.02.2016 01:14 4,3 C 96 % 1008,2 hPa 0,0 l/m 11,3 km/h (2 Bft) O-SO 113 0 min 0,000 mm 0,0 UV-I 0 W/m 3,7 C 0,4 C 14,5 km/h (3 Bft) 100,00 %
09.02.2016 01:15 4,3 C 96 % 1008,2 hPa 0,0 l/m 11,7 km/h (2 Bft) O-SO 110 0 min 0,000 mm 0,0 UV-I 0 W/m 3,7 C 0,1 C 12,9 km/h (3 Bft) 100,00 %
09.02.2016 01:16 4,4 C 96 % 1008,1 hPa 0,0 l/m 10,6 km/h (2 Bft) O-SO 105 0 min 0,000 mm 0,0 UV-I 0 W/m 3,8 C 1,0 C 14,5 km/h (3 Bft) 100,00 %
09.02.2016 01:17 4,4 C 96 % 1008,1 hPa 0,0 l/m 12,2 km/h (2 Bft) O 100 0 min 0,000 mm 0,0 UV-I 0 W/m 3,8 C -0,1 C 16,1 km/h (3 Bft) 100,00 %
09.02.2016 01:18 4,5 C 96 % 1008,1 hPa 0,0 l/m 11,7 km/h (2 Bft) O-SO 104 0 min 0,000 mm 0,0 UV-I 0 W/m 3,9 C 0,4 C 14,5 km/h (3 Bft) 100,00 %
09.02.2016 01:19 4,6 C 96 % 1008,1 hPa 0,0 l/m 7,4 km/h (2 Bft) O-SO 106 0 min 0,000 mm 0,0 UV-I 0 W/m 4,0 C 3,7 C 9,7 km/h (2 Bft) 100,00 %
09.02.2016 01:20 4,6 C 96 % 1008,1 hPa 0,0 l/m 4,5 km/h (1 Bft) O 84 0 min 0,000 mm 0,0 UV-I 0 W/m 4,0 C 4,6 C 6,4 km/h (2 Bft) 100,00 %
09.02.2016 01:21 4,7 C 96 % 1008,1 hPa 0,0 l/m 2,3 km/h (1 Bft) O 84 0 min 0,000 mm 0,0 UV-I 0 W/m 4,1 C 4,7 C 3,2 km/h (1 Bft) 100,00 %
09.02.2016 01:22 4,7 C 96 % 1008,1 hPa 0,0 l/m 0,6 km/h (0 Bft) O 84 0 min 0,000 mm 0,0 UV-I 0 W/m 4,1 C 4,7 C 1,6 km/h (1 Bft) 100,00 %
09.02.2016 01:23 4,8 C 96 % 1008,1 hPa 0,0 l/m 0,0 km/h (0 Bft) O 84 0 min 0,000 mm 0,0 UV-I 0 W/m 4,2 C 4,8 C 0,0 km/h (0 Bft) 100,00 %
09.02.2016 01:24 4,8 C 96 % 1008,1 hPa 0,0 l/m 0,0 km/h (0 Bft) O 84 0 min 0,000 mm 0,0 UV-I 0 W/m 4,2 C 4,8 C 0,0 km/h (0 Bft) 100,00 %
09.02.2016 01:25 4,8 C 96 % 1007,9 hPa 0,0 l/m 1,4 km/h (1 Bft) O 84 0 min 0,000 mm 0,0 UV-I 0 W/m 4,2 C 4,8 C 3,2 km/h (1 Bft) 100,00 %
09.02.2016 01:26 4,9 C 96 % 1007,9 hPa 0,0 l/m 4,3 km/h (1 Bft) O 87 0 min 0,000 mm 0,0 UV-I 0 W/m 4,3 C 4,9 C 6,4 km/h (2 Bft) 96,30 %
09.02.2016 01:27 4,9 C 96 % 1007,9 hPa 0,0 l/m 6,4 km/h (2 Bft) O-SO 113 0 min 0,000 mm 0,0 UV-I 0 W/m 4,3 C 4,9 C 8,0 km/h (2 Bft) 95,65 %
09.02.2016 01:28 4,9 C 96 % 1008,0 hPa 0,0 l/m 7,9 km/h (2 Bft) O-SO 121 0 min 0,000 mm 0,0 UV-I 0 W/m 4,3 C 3,6 C 9,7 km/h (2 Bft) 100,00 %
09.02.2016 01:29 4,9 C 96 % 1008,0 hPa 0,0 l/m 7,7 km/h (2 Bft) O-SO 109 0 min 0,000 mm 0,0 UV-I 0 W/m 4,3 C 3,8 C 11,3 km/h (2 Bft) 100,00 %
09.02.2016 01:30 4,9 C 95 % 1008,0 hPa 0,0 l/m 5,0 km/h (1 Bft) O-SO 116 0 min 0,000 mm 0,0 UV-I 0 W/m 4,2 C 4,9 C 6,4 km/h (2 Bft) 100,00 %
09.02.2016 01:31 4,9 C 95 % 1007,9 hPa 0,0 l/m 2,1 km/h (1 Bft) O-SO 116 0 min 0,000 mm 0,0 UV-I 0 W/m 4,2 C 4,9 C 3,2 km/h (1 Bft) 100,00 %
09.02.2016 01:32 4,9 C 95 % 1008,0 hPa 0,0 l/m 0,3 km/h (0 Bft) O-SO 116 0 min 0,000 mm 0,0 UV-I 0 W/m 4,2 C 4,9 C 1,6 km/h (1 Bft) 100,00 %
09.02.2016 01:33 4,9 C 95 % 1008,0 hPa 0,0 l/m 1,8 km/h (1 Bft) W-NW 298 0 min 0,000 mm 0,0 UV-I 0 W/m 4,2 C 4,9 C 6,4 km/h (2 Bft) 100,00 %
09.02.2016 01:34 4,9 C 95 % 1008,2 hPa 0,0 l/m 5,6 km/h (1 Bft) N-NW 335 0 min 0,000 mm 0,0 UV-I 0 W/m 4,2 C 4,9 C 8,0 km/h (2 Bft) 100,00 %
09.02.2016 01:35 4,9 C 95 % 1008,2 hPa 0,0 l/m 1,8 km/h (1 Bft) NW 325 0 min 0,000 mm 0,0 UV-I 0 W/m 4,2 C 4,9 C 3,2 km/h (1 Bft) 100,00 %
09.02.2016 01:36 4,8 C 95 % 1008,2 hPa 0,0 l/m 0,5 km/h (0 Bft) NW 325 0 min 0,000 mm 0,0 UV-I 0 W/m 4,1 C 4,8 C 1,6 km/h (1 Bft) 100,00 %
09.02.2016 01:37 4,8 C 95 % 1008,2 hPa 0,0 l/m 0,4 km/h (0 Bft) S 171 0 min 0,000 mm 0,0 UV-I 0 W/m 4,1 C 4,8 C 1,6 km/h (1 Bft) 100,00 %
09.02.2016 01:38 4,8 C 95 % 1008,2 hPa 0,0 l/m 2,7 km/h (1 Bft) SO 132 0 min 0,000 mm 0,0 UV-I 0 W/m 4,1 C 4,8 C 8,0 km/h (2 Bft) 100,00 %
09.02.2016 01:39 4,7 C 95 % 1008,0 hPa 0,2 l/m 11,8 km/h (2 Bft) SO 128 0 min 0,000 mm 0,0 UV-I 0 W/m 4,0 C 0,5 C 14,5 km/h (3 Bft) 92,31 %
09.02.2016 01:40 4,7 C 95 % 1007,9 hPa 0,0 l/m 10,2 km/h (2 Bft) O-SO 106 0 min 0,000 mm 0,0 UV-I 0 W/m 4,0 C 1,6 C 14,5 km/h (3 Bft) 92,59 %
09.02.2016 01:41 4,7 C 95 % 1007,9 hPa 0,0 l/m 8,6 km/h (2 Bft) S-SO 153 0 min 0,000 mm 0,0 UV-I 0 W/m 4,0 C 2,8 C 14,5 km/h (3 Bft) 100,00 %
09.02.2016 01:42 4,7 C 95 % 1008,0 hPa 0,0 l/m 4,0 km/h (1 Bft) S-SO 150 0 min 0,000 mm 0,0 UV-I 0 W/m 4,0 C 4,7 C 8,0 km/h (2 Bft) 92,86 %
09.02.2016 01:43 4,7 C 95 % 1008,2 hPa 0,2 l/m 2,4 km/h (1 Bft) W-NW 289 0 min 0,000 mm 0,0 UV-I 0 W/m 4,0 C 4,7 C 6,4 km/h (2 Bft) 100,00 %
09.02.2016 01:44 4,7 C 95 % 1008,2 hPa 0,0 l/m 7,3 km/h (2 Bft) NW 310 0 min 0,000 mm 0,0 UV-I 0 W/m 4,0 C 3,9 C 11,3 km/h (2 Bft) 96,15 %
09.02.2016 01:45 4,7 C 95 % 1008,4 hPa 0,0 l/m 3,6 km/h (1 Bft) W-NW 299 0 min 0,000 mm 0,0 UV-I 0 W/m 4,0 C 4,7 C 4,8 km/h (1 Bft) 95,83 %
09.02.2016 01:46 4,7 C 96 % 1008,5 hPa 0,0 l/m 2,5 km/h (1 Bft) N-NW 338 0 min 0,000 mm 0,0 UV-I 0 W/m 4,1 C 4,7 C 4,8 km/h (1 Bft) 100,00 %
09.02.2016 01:47 4,7 C 96 % 1008,5 hPa 0,0 l/m 0,4 km/h (0 Bft) N-NW 338 0 min 0,000 mm 0,0 UV-I 0 W/m 4,1 C 4,7 C 1,6 km/h (1 Bft) 95,83 %
09.02.2016 01:48 4,7 C 96 % 1008,5 hPa 0,0 l/m 1,5 km/h (1 Bft) SO 140 0 min 0,000 mm 0,0 UV-I 0 W/m 4,1 C 4,7 C 3,2 km/h (1 Bft) 100,00 %
09.02.2016 01:49 4,7 C 96 % 1008,4 hPa 0,0 l/m 6,6 km/h (2 Bft) SO 132 0 min 0,000 mm 0,0 UV-I 0 W/m 4,1 C 4,5 C 8,0 km/h (2 Bft) 91,67 %
09.02.2016 01:50 4,8 C 96 % 1008,4 hPa 0,2 l/m 8,0 km/h (2 Bft) O-SO 113 0 min 0,000 mm 0,0 UV-I 0 W/m 4,2 C 3,4 C 11,3 km/h (2 Bft) 100,00 %
09.02.2016 01:51 4,8 C 96 % 1008,4 hPa 0,0 l/m 9,1 km/h (2 Bft) O-SO 119 0 min 0,000 mm 0,0 UV-I 0 W/m 4,2 C 2,5 C 11,3 km/h (2 Bft) 96,30 %
09.02.2016 01:52 4,8 C 96 % 1008,7 hPa 0,0 l/m 8,6 km/h (2 Bft) S-SO 149 0 min 0,000 mm 0,0 UV-I 0 W/m 4,2 C 2,9 C 11,3 km/h (2 Bft) 92,86 %
09.02.2016 01:53 4,8 C 96 % 1008,9 hPa 0,0 l/m 3,1 km/h (1 Bft) S-SO 157 0 min 0,000 mm 0,0 UV-I 0 W/m 4,2 C 4,8 C 6,4 km/h (2 Bft) 100,00 %
09.02.2016 01:54 4,8 C 96 % 1008,9 hPa 0,0 l/m 3,1 km/h (1 Bft) W 278 0 min 0,000 mm 0,0 UV-I 0 W/m 4,2 C 4,8 C 4,8 km/h (1 Bft) 96,15 %
09.02.2016 01:55 4,8 C 96 % 1009,0 hPa 0,0 l/m 4,4 km/h (1 Bft) N-NW 346 0 min 0,000 mm 0,0 UV-I 0 W/m 4,2 C 4,8 C 6,4 km/h (2 Bft) 100,00 %
09.02.2016 01:56 4,8 C 96 % 1009,2 hPa 0,2 l/m 3,0 km/h (1 Bft) W-NW 294 0 min 0,000 mm 0,0 UV-I 0 W/m 4,2 C 4,8 C 6,4 km/h (2 Bft) 92,86 %
09.02.2016 01:57 4,8 C 96 % 1009,4 hPa 0,0 l/m 4,8 km/h (1 Bft) NW 304 0 min 0,000 mm 0,0 UV-I 0 W/m 4,2 C 4,8 C 11,3 km/h (2 Bft) 100,00 %
09.02.2016 01:58 4,8 C 96 % 1009,5 hPa 0,0 l/m 2,3 km/h (1 Bft) NW 310 0 min 0,000 mm 0,0 UV-I 0 W/m 4,2 C 4,8 C 3,2 km/h (1 Bft) 95,65 %
09.02.2016 01:59 4,8 C 96 % 1009,7 hPa 0,2 l/m 2,4 km/h (1 Bft) NW 313 0 min 0,000 mm 0,0 UV-I 0 W/m 4,2 C 4,8 C 3,2 km/h (1 Bft) 100,00 %
09.02.2016 02:00 4,8 C 96 % 1009,7 hPa 0,0 l/m 2,3 km/h (1 Bft) NW 307 0 min 0,000 mm 0,0 UV-I 0 W/m 4,2 C 4,8 C 3,2 km/h (1 Bft) 96,55 %
09.02.2016 02:01 4,8 C 96 % 1009,9 hPa 0,0 l/m 3,1 km/h (1 Bft) NW 304 0 min 0,000 mm 0,0 UV-I 0 W/m 4,2 C 4,8 C 4,8 km/h (1 Bft) 93,33 %
09.02.2016 02:02 4,8 C 96 % 1010,0 hPa 0,0 l/m 3,0 km/h (1 Bft) NW 316 0 min 0,000 mm 0,0 UV-I 0 W/m 4,2 C 4,8 C 4,8 km/h (1 Bft) 95,83 %
09.02.2016 02:03 4,8 C 96 % 1010,0 hPa 0,2 l/m 3,5 km/h (1 Bft) NW 307 0 min 0,000 mm 0,0 UV-I 0 W/m 4,2 C 4,8 C 4,8 km/h (1 Bft) 96,15 %
09.02.2016 02:04 4,8 C 96 % 1010,1 hPa 0,0 l/m 3,6 km/h (1 Bft) W-NW 298 0 min 0,000 mm 0,0 UV-I 0 W/m 4,2 C 4,8 C 4,8 km/h (1 Bft) 92,31 %
09.02.2016 02:05 4,8 C 96 % 1010,1 hPa 0,0 l/m 2,9 km/h (1 Bft) W-NW 298 0 min 0,000 mm 0,0 UV-I 0 W/m 4,2 C 4,8 C 4,8 km/h (1 Bft) 95,83 %
09.02.2016 02:06 4,9 C 96 % 1010,2 hPa 0,2 l/m 1,1 km/h (1 Bft) W-NW 295 0 min 0,000 mm 0,0 UV-I 0 W/m 4,3 C 4,9 C 1,6 km/h (1 Bft) 100,00 %
09.02.2016 02:07 4,9 C 96 % 1010,1 hPa 0,2 l/m 1,0 km/h (0 Bft) W-SW 243 0 min 0,000 mm 0,0 UV-I 0 W/m 4,3 C 4,9 C 1,6 km/h (1 Bft) 96,15 %
09.02.2016 02:08 4,9 C 96 % 1009,9 hPa 0,0 l/m 1,9 km/h (1 Bft) W-NW 286 0 min 0,000 mm 0,0 UV-I 0 W/m 4,3 C 4,9 C 3,2 km/h (1 Bft) 100,00 %
09.02.2016 02:09 4,9 C 96 % 1009,9 hPa 0,0 l/m 2,7 km/h (1 Bft) W-NW 284 0 min 0,000 mm 0,0 UV-I 0 W/m 4,3 C 4,9 C 4,8 km/h (1 Bft) 96,15 %
09.02.2016 02:10 4,9 C 96 % 1010,0 hPa 0,2 l/m 2,9 km/h (1 Bft) NW 317 0 min 0,000 mm 0,0 UV-I 0 W/m 4,3 C 4,9 C 6,4 km/h (2 Bft) 95,83 %
09.02.2016 02:11 4,9 C 96 % 1009,9 hPa 0,0 l/m 0,8 km/h (0 Bft) NW 317 0 min 0,000 mm 0,0 UV-I 0 W/m 4,3 C 4,9 C 1,6 km/h (1 Bft) 100,00 %
09.02.2016 02:12 4,9 C 96 % 1009,9 hPa 0,2 l/m 0,8 km/h (0 Bft) NW 317 0 min 0,000 mm 0,0 UV-I 0 W/m 4,3 C 4,9 C 1,6 km/h (1 Bft) 95,83 %
09.02.2016 02:13 4,9 C 96 % 1010,0 hPa 0,0 l/m 1,4 km/h (1 Bft) NW 317 0 min 0,000 mm 0,0 UV-I 0 W/m 4,3 C 4,9 C 3,2 km/h (1 Bft) 96,15 %
09.02.2016 02:14 4,9 C 96 % 1010,1 hPa 0,0 l/m 2,4 km/h (1 Bft) W-SW 256 0 min 0,000 mm 0,0 UV-I 0 W/m 4,3 C 4,9 C 3,2 km/h (1 Bft) 91,67 %
09.02.2016 02:15 4,9 C 96 % 1010,1 hPa 0,0 l/m 1,4 km/h (1 Bft) W-SW 256 0 min 0,000 mm 0,0 UV-I 0 W/m 4,3 C 4,9 C 4,8 km/h (1 Bft) 100,00 %
09.02.2016 02:16 4,9 C 96 % 1010,0 hPa 0,2 l/m 1,3 km/h (1 Bft) W-SW 248 0 min 0,000 mm 0,0 UV-I 0 W/m 4,3 C 4,9 C 3,2 km/h (1 Bft) 100,00 %
09.02.2016 02:17 4,9 C 96 % 1009,9 hPa 0,0 l/m 1,8 km/h (1 Bft) S-SO 160 0 min 0,000 mm 0,0 UV-I 0 W/m 4,3 C 4,9 C 3,2 km/h (1 Bft) 96,15 %
09.02.2016 02:18 4,9 C 96 % 1010,0 hPa 0,0 l/m 4,4 km/h (1 Bft) S-SO 161 0 min 0,000 mm 0,0 UV-I 0 W/m 4,3 C 4,9 C 8,0 km/h (2 Bft) 100,00 %
09.02.2016 02:19 4,9 C 96 % 1010,0 hPa 0,0 l/m 1,5 km/h (1 Bft) S-SO 163 0 min 0,000 mm 0,0 UV-I 0 W/m 4,3 C 4,9 C 3,2 km/h (1 Bft) 100,00 %
09.02.2016 02:20 4,9 C 96 % 1009,9 hPa 0,0 l/m 1,4 km/h (1 Bft) S-SO 163 0 min 0,000 mm 0,0 UV-I 0 W/m 4,3 C 4,9 C 1,6 km/h (1 Bft) 96,30 %
09.02.2016 02:21 4,9 C 96 % 1009,9 hPa 0,0 l/m 3,1 km/h (1 Bft) S-SO 153 0 min 0,000 mm 0,0 UV-I 0 W/m 4,3 C 4,9 C 6,4 km/h (2 Bft) 96,15 %
09.02.2016 02:22 4,9 C 96 % 1009,9 hPa 0,0 l/m 4,9 km/h (1 Bft) S 171 0 min 0,000 mm 0,0 UV-I 0 W/m 4,3 C 4,9 C 8,0 km/h (2 Bft) 100,00 %
09.02.2016 02:23 4,9 C 96 % 1010,0 hPa 0,0 l/m 4,5 km/h (1 Bft) S-SO 167 0 min 0,000 mm 0,0 UV-I 0 W/m 4,3 C 4,9 C 8,0 km/h (2 Bft) 96,55 %
09.02.2016 02:24 4,9 C 96 % 1010,0 hPa 0,0 l/m 6,4 km/h (2 Bft) S 191 0 min 0,000 mm 0,0 UV-I 0 W/m 4,3 C 4,9 C 9,7 km/h (2 Bft) 100,00 %
09.02.2016 02:25 4,9 C 96 % 1010,1 hPa 0,0 l/m 4,8 km/h (1 Bft) S-SW 193 0 min 0,000 mm 0,0 UV-I 0 W/m 4,3 C 4,9 C 8,0 km/h (2 Bft) 100,00 %
09.02.2016 02:26 4,9 C 96 % 1010,1 hPa 0,0 l/m 3,6 km/h (1 Bft) S 171 0 min 0,000 mm 0,0 UV-I 0 W/m 4,3 C 4,9 C 6,4 km/h (2 Bft) 100,00 %
09.02.2016 02:27 5,0 C 96 % 1010,1 hPa 0,0 l/m 4,2 km/h (1 Bft) S-SO 167 0 min 0,000 mm 0,0 UV-I 0 W/m 4,4 C 5,0 C 6,4 km/h (2 Bft) 100,00 %
09.02.2016 02:28 5,0 C 96 % 1010,1 hPa 0,0 l/m 0,9 km/h (0 Bft) S-SO 168 0 min 0,000 mm 0,0 UV-I 0 W/m 4,4 C 5,0 C 3,2 km/h (1 Bft) 100,00 %
09.02.2016 02:29 5,0 C 96 % 1010,0 hPa 0,0 l/m 1,7 km/h (1 Bft) S-SO 168 0 min 0,000 mm 0,0 UV-I 0 W/m 4,4 C 5,0 C 3,2 km/h (1 Bft) 100,00 %
09.02.2016 02:30 5,0 C 96 % 1010,1 hPa 0,0 l/m 2,1 km/h (1 Bft) S 178 0 min 0,000 mm 0,0 UV-I 0 W/m 4,4 C 5,0 C 3,2 km/h (1 Bft) 100,00 %
09.02.2016 02:31 5,0 C 96 % 1010,1 hPa 0,0 l/m 3,5 km/h (1 Bft) S 177 0 min 0,000 mm 0,0 UV-I 0 W/m 4,4 C 5,0 C 4,8 km/h (1 Bft) 100,00 %
09.02.2016 02:32 5,0 C 96 % 1010,1 hPa 0,0 l/m 5,6 km/h (1 Bft) S-SW 197 0 min 0,000 mm 0,0 UV-I 0 W/m 4,4 C 5,0 C 9,7 km/h (2 Bft) 92,86 %
09.02.2016 02:33 5,0 C 96 % 1010,2 hPa 0,0 l/m 7,1 km/h (2 Bft) S 191 0 min 0,000 mm 0,0 UV-I 0 W/m 4,4 C 4,4 C 9,7 km/h (2 Bft) 100,00 %
09.02.2016 02:34 5,1 C 97 % 1010,2 hPa 0,0 l/m 5,3 km/h (1 Bft) S-SW 210 0 min 0,000 mm 0,0 UV-I 0 W/m 4,7 C 5,1 C 6,4 km/h (2 Bft) 100,00 %
09.02.2016 02:35 5,1 C 97 % 1010,2 hPa 0,0 l/m 4,4 km/h (1 Bft) S-SW 211 0 min 0,000 mm 0,0 UV-I 0 W/m 4,7 C 5,1 C 4,8 km/h (1 Bft) 100,00 %
09.02.2016 02:36 5,1 C 97 % 1010,3 hPa 0,0 l/m 4,4 km/h (1 Bft) S 188 0 min 0,000 mm 0,0 UV-I 0 W/m 4,7 C 5,1 C 8,0 km/h (2 Bft) 100,00 %
09.02.2016 02:37 5,1 C 97 % 1010,4 hPa 0,0 l/m 6,0 km/h (2 Bft) S-SW 205 0 min 0,000 mm 0,0 UV-I 0 W/m 4,7 C 5,1 C 6,4 km/h (2 Bft) 100,00 %
09.02.2016 02:38 5,1 C 97 % 1010,3 hPa 0,2 l/m 4,3 km/h (1 Bft) S-SW 198 0 min 0,000 mm 0,0 UV-I 0 W/m 4,7 C 5,1 C 6,4 km/h (2 Bft) 93,10 %
09.02.2016 02:39 5,1 C 96 % 1010,3 hPa 0,0 l/m 4,4 km/h (1 Bft) S 182 0 min 0,000 mm 0,0 UV-I 0 W/m 4,5 C 5,1 C 4,8 km/h (1 Bft) 100,00 %
09.02.2016 02:40 5,1 C 96 % 1010,3 hPa 0,0 l/m 2,6 km/h (1 Bft) S 181 0 min 0,000 mm 0,0 UV-I 0 W/m 4,5 C 5,1 C 4,8 km/h (1 Bft) 91,67 %
09.02.2016 02:41 5,1 C 96 % 1010,2 hPa 0,0 l/m 2,8 km/h (1 Bft) S-SO 164 0 min 0,000 mm 0,0 UV-I 0 W/m 4,5 C 5,1 C 4,8 km/h (1 Bft) 100,00 %
09.02.2016 02:42 5,1 C 96 % 1010,1 hPa 0,2 l/m 3,9 km/h (1 Bft) S 175 0 min 0,000 mm 0,0 UV-I 0 W/m 4,5 C 5,1 C 6,4 km/h (2 Bft) 96,15 %
09.02.2016 02:43 5,1 C 96 % 1010,1 hPa 0,0 l/m 4,9 km/h (1 Bft) S-SO 165 0 min 0,000 mm 0,0 UV-I 0 W/m 4,5 C 5,1 C 9,7 km/h (2 Bft) 100,00 %
09.02.2016 02:44 5,2 C 96 % 1010,1 hPa 0,0 l/m 2,7 km/h (1 Bft) S-SO 165 0 min 0,000 mm 0,0 UV-I 0 W/m 4,6 C 5,2 C 6,4 km/h (2 Bft) 100,00 %
09.02.2016 02:45 5,2 C 96 % 1010,1 hPa 0,0 l/m 5,1 km/h (1 Bft) S 171 0 min 0,000 mm 0,0 UV-I 0 W/m 4,6 C 5,2 C 8,0 km/h (2 Bft) 100,00 %
09.02.2016 02:46 5,2 C 96 % 1010,1 hPa 0,0 l/m 4,8 km/h (1 Bft) S 182 0 min 0,000 mm 0,0 UV-I 0 W/m 4,6 C 5,2 C 6,4 km/h (2 Bft) 100,00 %
09.02.2016 02:47 5,2 C 96 % 1010,1 hPa 0,0 l/m 6,4 km/h (2 Bft) S-SW 192 0 min 0,000 mm 0,0 UV-I 0 W/m 4,6 C 5,2 C 11,3 km/h (2 Bft) 100,00 %
09.02.2016 02:48 5,2 C 96 % 1010,1 hPa 0,0 l/m 6,5 km/h (2 Bft) S-SO 165 0 min 0,000 mm 0,0 UV-I 0 W/m 4,6 C 5,1 C 9,7 km/h (2 Bft) 100,00 %
09.02.2016 02:49 5,3 C 96 % 1010,1 hPa 0,0 l/m 4,3 km/h (1 Bft) S-SO 159 0 min 0,000 mm 0,0 UV-I 0 W/m 4,7 C 5,3 C 8,0 km/h (2 Bft) 100,00 %
09.02.2016 02:50 5,3 C 96 % 1010,2 hPa 0,0 l/m 6,5 km/h (2 Bft) S-SW 198 0 min 0,000 mm 0,0 UV-I 0 W/m 4,7 C 5,2 C 8,0 km/h (2 Bft) 96,30 %
09.02.2016 02:51 5,3 C 96 % 1010,3 hPa 0,0 l/m 12,3 km/h (3 Bft) S-SW 193 0 min 0,000 mm 0,0 UV-I 0 W/m 4,7 C 0,9 C 16,1 km/h (3 Bft) 100,00 %
09.02.2016 02:52 5,3 C 96 % 1010,3 hPa 0,0 l/m 9,3 km/h (2 Bft) S-SO 159 0 min 0,000 mm 0,0 UV-I 0 W/m 4,7 C 2,9 C 11,3 km/h (2 Bft) 100,00 %
09.02.2016 02:53 5,4 C 96 % 1010,3 hPa 0,0 l/m 12,8 km/h (3 Bft) S 179 0 min 0,000 mm 0,0 UV-I 0 W/m 4,8 C 0,7 C 19,3 km/h (3 Bft) 100,00 %
09.02.2016 02:54 5,4 C 95 % 1010,3 hPa 0,2 l/m 9,5 km/h (2 Bft) S 182 0 min 0,000 mm 0,0 UV-I 0 W/m 4,7 C 2,9 C 12,9 km/h (3 Bft) 100,00 %
09.02.2016 02:55 5,4 C 95 % 1010,3 hPa 0,0 l/m 13,3 km/h (3 Bft) S-SW 195 0 min 0,000 mm 0,0 UV-I 0 W/m 4,7 C 0,5 C 19,3 km/h (3 Bft) 100,00 %
09.02.2016 02:56 5,5 C 95 % 1010,4 hPa 0,0 l/m 13,2 km/h (3 Bft) S 190 0 min 0,000 mm 0,0 UV-I 0 W/m 4,8 C 0,6 C 17,7 km/h (3 Bft) 100,00 %
09.02.2016 02:57 5,5 C 95 % 1010,3 hPa 0,2 l/m 9,9 km/h (2 Bft) S-SO 159 0 min 0,000 mm 0,0 UV-I 0 W/m 4,8 C 2,7 C 16,1 km/h (3 Bft) 95,65 %
09.02.2016 02:58 5,5 C 95 % 1010,0 hPa 0,0 l/m 7,7 km/h (2 Bft) SO 137 0 min 0,000 mm 0,0 UV-I 0 W/m 4,8 C 4,4 C 11,3 km/h (2 Bft) 96,30 %
09.02.2016 02:59 5,6 C 95 % 1009,7 hPa 0,2 l/m 3,7 km/h (1 Bft) S 169 0 min 0,000 mm 0,0 UV-I 0 W/m 4,9 C 5,6 C 6,4 km/h (2 Bft) 100,00 %
09.02.2016 03:00 5,6 C 95 % 1009,8 hPa 0,0 l/m 4,7 km/h (1 Bft) S 175 0 min 0,000 mm 0,0 UV-I 0 W/m 4,9 C 5,6 C 8,0 km/h (2 Bft) 100,00 %
09.02.2016 03:01 5,6 C 95 % 1009,9 hPa 0,0 l/m 6,3 km/h (2 Bft) S-SW 202 0 min 0,000 mm 0,0 UV-I 0 W/m 4,9 C 5,6 C 11,3 km/h (2 Bft) 100,00 %
09.02.2016 03:02 5,6 C 95 % 1010,2 hPa 0,0 l/m 8,2 km/h (2 Bft) SW 234 0 min 0,000 mm 0,0 UV-I 0 W/m 4,9 C 4,1 C 9,7 km/h (2 Bft) 100,00 %
09.02.2016 03:03 5,6 C 95 % 1010,2 hPa 0,0 l/m 5,8 km/h (2 Bft) S-SO 165 0 min 0,000 mm 0,0 UV-I 0 W/m 4,9 C 5,6 C 9,7 km/h (2 Bft) 96,15 %
09.02.2016 03:04 5,6 C 95 % 1010,3 hPa 0,0 l/m 4,7 km/h (1 Bft) S-SW 200 0 min 0,000 mm 0,0 UV-I 0 W/m 4,9 C 5,6 C 8,0 km/h (2 Bft) 93,33 %
09.02.2016 03:05 5,6 C 94 % 1010,2 hPa 0,0 l/m 5,3 km/h (1 Bft) SW 218 0 min 0,000 mm 0,0 UV-I 0 W/m 4,7 C 5,6 C 8,0 km/h (2 Bft) 96,30 %
09.02.2016 03:06 5,6 C 94 % 1010,3 hPa 0,0 l/m 7,3 km/h (2 Bft) S 188 0 min 0,000 mm 0,0 UV-I 0 W/m 4,7 C 4,8 C 11,3 km/h (2 Bft) 100,00 %
09.02.2016 03:07 5,6 C 94 % 1010,3 hPa 0,0 l/m 4,2 km/h (1 Bft) S-SO 165 0 min 0,000 mm 0,0 UV-I 0 W/m 4,7 C 5,6 C 8,0 km/h (2 Bft) 100,00 %
09.02.2016 03:08 5,5 C 94 % 1010,2 hPa 0,0 l/m 6,4 km/h (2 Bft) S-SW 194 0 min 0,000 mm 0,0 UV-I 0 W/m 4,6 C 5,5 C 9,7 km/h (2 Bft) 92,86 %
09.02.2016 03:09 5,5 C 94 % 1010,2 hPa 0,0 l/m 4,8 km/h (1 Bft) S 182 0 min 0,000 mm 0,0 UV-I 0 W/m 4,6 C 5,5 C 6,4 km/h (2 Bft) 96,67 %
09.02.2016 03:10 5,5 C 95 % 1010,2 hPa 0,0 l/m 5,2 km/h (1 Bft) S 171 0 min 0,000 mm 0,0 UV-I 0 W/m 4,8 C 5,5 C 9,7 km/h (2 Bft) 100,00 %
09.02.2016 03:11 5,5 C 95 % 1010,1 hPa 0,0 l/m 7,5 km/h (2 Bft) S-SO 159 0 min 0,000 mm 0,0 UV-I 0 W/m 4,8 C 4,5 C 14,5 km/h (3 Bft) 100,00 %
09.02.2016 03:12 5,5 C 95 % 1010,2 hPa 0,0 l/m 10,4 km/h (2 Bft) S-SO 148 0 min 0,000 mm 0,0 UV-I 0 W/m 4,8 C 2,4 C 16,1 km/h (3 Bft) 100,00 %
09.02.2016 03:13 5,5 C 95 % 1010,2 hPa 0,0 l/m 9,0 km/h (2 Bft) S 188 0 min 0,000 mm 0,0 UV-I 0 W/m 4,8 C 3,3 C 14,5 km/h (3 Bft) 100,00 %
09.02.2016 03:14 5,5 C 95 % 1010,1 hPa 0,0 l/m 9,1 km/h (2 Bft) S-SW 192 0 min 0,000 mm 0,0 UV-I 0 W/m 4,8 C 3,3 C 14,5 km/h (3 Bft) 100,00 %
09.02.2016 03:15 5,5 C 95 % 1010,1 hPa 0,0 l/m 10,3 km/h (2 Bft) S-SO 147 0 min 0,000 mm 0,0 UV-I 0 W/m 4,8 C 2,4 C 17,7 km/h (3 Bft) 100,00 %
09.02.2016 03:16 5,5 C 94 % 1010,1 hPa 0,0 l/m 7,0 km/h (2 Bft) S 173 0 min 0,000 mm 0,0 UV-I 0 W/m 4,6 C 5,0 C 11,3 km/h (2 Bft) 100,00 %
09.02.2016 03:17 5,6 C 94 % 1010,1 hPa 0,0 l/m 10,6 km/h (2 Bft) S-SO 166 0 min 0,000 mm 0,0 UV-I 0 W/m 4,7 C 2,3 C 17,7 km/h (3 Bft) 100,00 %
09.02.2016 03:18 5,6 C 94 % 1010,0 hPa 0,0 l/m 10,2 km/h (2 Bft) S-SO 162 0 min 0,000 mm 0,0 UV-I 0 W/m 4,7 C 2,6 C 19,3 km/h (3 Bft) 100,00 %
09.02.2016 03:19 5,6 C 94 % 1010,1 hPa 0,0 l/m 10,6 km/h (2 Bft) S 186 0 min 0,000 mm 0,0 UV-I 0 W/m 4,7 C 2,3 C 14,5 km/h (3 Bft) 100,00 %
09.02.2016 03:20 5,6 C 94 % 1010,0 hPa 0,0 l/m 11,4 km/h (2 Bft) S-SW 199 0 min 0,000 mm 0,0 UV-I 0 W/m 4,7 C 1,8 C 17,7 km/h (3 Bft) 91,67 %
09.02.2016 03:21 5,7 C 94 % 1009,9 hPa 0,0 l/m 12,0 km/h (2 Bft) S 190 0 min 0,000 mm 0,0 UV-I 0 W/m 4,8 C 1,6 C 17,7 km/h (3 Bft) 100,00 %
09.02.2016 03:22 5,7 C 94 % 1009,9 hPa 0,0 l/m 12,2 km/h (2 Bft) S 187 0 min 0,000 mm 0,0 UV-I 0 W/m 4,8 C 1,4 C 19,3 km/h (3 Bft) 100,00 %
09.02.2016 03:23 5,7 C 94 % 1009,9 hPa 0,0 l/m 15,0 km/h (3 Bft) S 180 0 min 0,000 mm 0,0 UV-I 0 W/m 4,8 C -0,1 C 19,3 km/h (3 Bft) 100,00 %
09.02.2016 03:24 5,7 C 94 % 1009,9 hPa 0,0 l/m 14,9 km/h (3 Bft) S-SW 213 0 min 0,000 mm 0,0 UV-I 0 W/m 4,8 C -0,0 C 22,5 km/h (4 Bft) 98,59 %
09.02.2016 03:25 5,7 C 94 % 1010,0 hPa 0,0 l/m 14,5 km/h (3 Bft) S 182 0 min 0,000 mm 0,0 UV-I 0 W/m 4,8 C 0,2 C 20,9 km/h (4 Bft) 94,74 %
09.02.2016 03:26 5,7 C 94 % 1009,9 hPa 0,0 l/m 12,5 km/h (3 Bft) S-SW 200 0 min 0,000 mm 0,0 UV-I 0 W/m 4,8 C 1,3 C 17,7 km/h (3 Bft) 100,00 %
09.02.2016 03:27 5,8 C 94 % 1009,9 hPa 0,0 l/m 11,8 km/h (2 Bft) SW 219 0 min 0,000 mm 0,0 UV-I 0 W/m 4,9 C 1,8 C 19,3 km/h (3 Bft) 96,15 %
09.02.2016 03:28 5,8 C 94 % 1009,8 hPa 0,0 l/m 13,7 km/h (3 Bft) S 175 0 min 0,000 mm 0,0 UV-I 0 W/m 4,9 C 0,7 C 17,7 km/h (3 Bft) 95,83 %
09.02.2016 03:29 5,8 C 93 % 1009,8 hPa 0,0 l/m 15,0 km/h (3 Bft) S-SW 200 0 min 0,000 mm 0,0 UV-I 0 W/m 4,8 C 0,0 C 20,9 km/h (4 Bft) 100,00 %
09.02.2016 03:30 5,9 C 93 % 1009,8 hPa 0,0 l/m 14,7 km/h (3 Bft) S-SW 194 0 min 0,000 mm 0,0 UV-I 0 W/m 4,9 C 0,3 C 20,9 km/h (4 Bft) 100,00 %
09.02.2016 03:31 5,9 C 93 % 1009,7 hPa 0,0 l/m 14,8 km/h (3 Bft) S-SW 207 0 min 0,000 mm 0,0 UV-I 0 W/m 4,9 C 0,3 C 19,3 km/h (3 Bft) 93,75 %
09.02.2016 03:32 5,9 C 93 % 1009,7 hPa 0,0 l/m 13,5 km/h (3 Bft) S-SW 196 0 min 0,000 mm 0,0 UV-I 0 W/m 4,9 C 0,9 C 16,1 km/h (3 Bft) 100,00 %
09.02.2016 03:33 5,9 C 93 % 1009,7 hPa 0,0 l/m 14,0 km/h (3 Bft) S-SW 192 0 min 0,000 mm 0,0 UV-I 0 W/m 4,9 C 0,7 C 17,7 km/h (3 Bft) 100,00 %
09.02.2016 03:34 6,0 C 93 % 1009,8 hPa 0,0 l/m 13,3 km/h (3 Bft) S-SW 194 0 min 0,000 mm 0,0 UV-I 0 W/m 5,0 C 1,2 C 17,7 km/h (3 Bft) 100,00 %
09.02.2016 03:35 6,0 C 93 % 1009,8 hPa 0,0 l/m 9,9 km/h (2 Bft) S-SO 159 0 min 0,000 mm 0,0 UV-I 0 W/m 5,0 C 3,2 C 12,9 km/h (3 Bft) 100,00 %
09.02.2016 03:36 6,0 C 93 % 1009,8 hPa 0,0 l/m 11,1 km/h (2 Bft) S 189 0 min 0,000 mm 0,0 UV-I 0 W/m 5,0 C 2,5 C 14,5 km/h (3 Bft) 100,00 %
09.02.2016 03:37 6,0 C 93 % 1009,8 hPa 0,0 l/m 13,8 km/h (3 Bft) S-SW 195 0 min 0,000 mm 0,0 UV-I 0 W/m 5,0 C 0,9 C 17,7 km/h (3 Bft) 96,55 %
09.02.2016 03:38 6,1 C 93 % 1009,7 hPa 0,0 l/m 8,9 km/h (2 Bft) S-SW 209 0 min 0,000 mm 0,0 UV-I 0 W/m 5,1 C 4,1 C 12,9 km/h (3 Bft) 100,00 %
09.02.2016 03:39 6,0 C 93 % 1009,8 hPa 0,0 l/m 12,2 km/h (2 Bft) SW 223 0 min 0,000 mm 0,0 UV-I 0 W/m 5,0 C 1,8 C 22,5 km/h (4 Bft) 100,00 %
09.02.2016 03:40 6,1 C 93 % 1009,8 hPa 0,0 l/m 10,1 km/h (2 Bft) S 182 0 min 0,000 mm 0,0 UV-I 0 W/m 5,1 C 3,2 C 14,5 km/h (3 Bft) 100,00 %
09.02.2016 03:41 6,1 C 93 % 1009,8 hPa 0,0 l/m 9,4 km/h (2 Bft) S-SW 202 0 min 0,000 mm 0,0 UV-I 0 W/m 5,1 C 3,7 C 17,7 km/h (3 Bft) 100,00 %
09.02.2016 03:42 6,1 C 93 % 1009,8 hPa 0,0 l/m 8,2 km/h (2 Bft) S 190 0 min 0,000 mm 0,0 UV-I 0 W/m 5,1 C 4,6 C 11,3 km/h (2 Bft) 100,00 %
09.02.2016 03:43 6,1 C 93 % 1009,9 hPa 0,0 l/m 8,9 km/h (2 Bft) S-SW 204 0 min 0,000 mm 0,0 UV-I 0 W/m 5,1 C 4,1 C 14,5 km/h (3 Bft) 100,00 %
09.02.2016 03:44 6,1 C 93 % 1009,9 hPa 0,0 l/m 10,8 km/h (2 Bft) S 188 0 min 0,000 mm 0,0 UV-I 0 W/m 5,1 C 2,8 C 12,9 km/h (3 Bft) 95,83 %
09.02.2016 03:45 6,1 C 93 % 1009,9 hPa 0,0 l/m 8,3 km/h (2 Bft) S-SW 196 0 min 0,000 mm 0,0 UV-I 0 W/m 5,1 C 4,5 C 11,3 km/h (2 Bft) 96,15 %
09.02.2016 03:46 6,1 C 93 % 1009,9 hPa 0,0 l/m 9,0 km/h (2 Bft) S-SO 162 0 min 0,000 mm 0,0 UV-I 0 W/m 5,1 C 4,0 C 12,9 km/h (3 Bft) 100,00 %
09.02.2016 03:47 6,1 C 93 % 1009,9 hPa 0,0 l/m 9,6 km/h (2 Bft) S 188 0 min 0,000 mm 0,0 UV-I 0 W/m 5,1 C 3,6 C 12,9 km/h (3 Bft) 95,83 %
09.02.2016 03:48 6,1 C 93 % 1009,9 hPa 0,0 l/m 9,7 km/h (2 Bft) S-SW 198 0 min 0,000 mm 0,0 UV-I 0 W/m 5,1 C 3,5 C 12,9 km/h (3 Bft) 100,00 %
09.02.2016 03:49 6,1 C 93 % 1009,9 hPa 0,0 l/m 13,9 km/h (3 Bft) S 187 0 min 0,000 mm 0,0 UV-I 0 W/m 5,1 C 1,0 C 20,9 km/h (4 Bft) 93,33 %
09.02.2016 03:50 6,1 C 93 % 1009,9 hPa 0,0 l/m 13,1 km/h (3 Bft) S-SO 159 0 min 0,000 mm 0,0 UV-I 0 W/m 5,1 C 1,4 C 17,7 km/h (3 Bft) 100,00 %
09.02.2016 03:51 6,1 C 92 % 1010,0 hPa 0,0 l/m 10,9 km/h (2 Bft) S-SO 147 0 min 0,000 mm 0,0 UV-I 0 W/m 4,9 C 2,7 C 17,7 km/h (3 Bft) 91,67 %
09.02.2016 03:52 6,1 C 92 % 1010,0 hPa 0,0 l/m 12,4 km/h (3 Bft) S 171 0 min 0,000 mm 0,0 UV-I 0 W/m 4,9 C 1,8 C 16,1 km/h (3 Bft) 100,00 %
09.02.2016 03:53 6,2 C 92 % 1009,8 hPa 0,0 l/m 10,7 km/h (2 Bft) S-SW 194 0 min 0,000 mm 0,0 UV-I 0 W/m 5,0 C 2,9 C 20,9 km/h (4 Bft) 93,33 %
09.02.2016 03:54 6,2 C 92 % 1009,8 hPa 0,0 l/m 11,9 km/h (2 Bft) S 171 0 min 0,000 mm 0,0 UV-I 0 W/m 5,0 C 2,2 C 17,7 km/h (3 Bft) 100,00 %
09.02.2016 03:55 6,2 C 92 % 1009,7 hPa 0,0 l/m 9,1 km/h (2 Bft) S-SW 192 0 min 0,000 mm 0,0 UV-I 0 W/m 5,0 C 4,0 C 17,7 km/h (3 Bft) 95,83 %
09.02.2016 03:56 6,2 C 92 % 1009,7 hPa 0,0 l/m 9,2 km/h (2 Bft) S 171 0 min 0,000 mm 0,0 UV-I 0 W/m 5,0 C 4,0 C 12,9 km/h (3 Bft) 91,30 %
09.02.2016 03:57 6,2 C 92 % 1009,6 hPa 0,0 l/m 7,8 km/h (2 Bft) S-SW 193 0 min 0,000 mm 0,0 UV-I 0 W/m 5,0 C 5,0 C 16,1 km/h (3 Bft) 100,00 %
09.02.2016 03:58 6,2 C 92 % 1009,6 hPa 0,0 l/m 8,3 km/h (2 Bft) S-SO 165 0 min 0,000 mm 0,0 UV-I 0 W/m 5,0 C 4,6 C 14,5 km/h (3 Bft) 93,10 %
09.02.2016 03:59 6,2 C 92 % 1009,6 hPa 0,0 l/m 10,3 km/h (2 Bft) S-SO 148 0 min 0,000 mm 0,0 UV-I 0 W/m 5,0 C 3,2 C 17,7 km/h (3 Bft) 100,00 %
09.02.2016 04:00 6,2 C 92 % 1009,6 hPa 0,0 l/m 8,3 km/h (2 Bft) S-SO 168 0 min 0,000 mm 0,0 UV-I 0 W/m 5,0 C 4,6 C 14,5 km/h (3 Bft) 96,15 %
09.02.2016 04:01 6,3 C 92 % 1009,6 hPa 0,0 l/m 11,3 km/h (2 Bft) SO 138 0 min 0,000 mm 0,0 UV-I 0 W/m 5,1 C 2,7 C 11,3 km/h (2 Bft) 100,00 %
09.02.2016 04:02 6,3 C 92 % 1009,5 hPa 0,0 l/m 7,0 km/h (2 Bft) S-SO 165 0 min 0,000 mm 0,0 UV-I 0 W/m 5,1 C 5,8 C 11,3 km/h (2 Bft) 100,00 %
09.02.2016 04:03 6,3 C 92 % 1009,5 hPa 0,0 l/m 6,4 km/h (2 Bft) S-SW 203 0 min 0,000 mm 0,0 UV-I 0 W/m 5,1 C 6,3 C 9,7 km/h (2 Bft) 100,00 %
09.02.2016 04:04 6,3 C 91 % 1009,5 hPa 0,0 l/m 6,0 km/h (2 Bft) S-SO 168 0 min 0,000 mm 0,0 UV-I 0 W/m 4,9 C 6,3 C 9,7 km/h (2 Bft) 88,89 %
09.02.2016 04:05 6,3 C 91 % 1009,4 hPa 0,0 l/m 4,9 km/h (1 Bft) S-SO 167 0 min 0,000 mm 0,0 UV-I 0 W/m 4,9 C 6,3 C 9,7 km/h (2 Bft) 96,15 %
09.02.2016 04:06 6,3 C 91 % 1009,4 hPa 0,0 l/m 3,8 km/h (1 Bft) S-SO 164 0 min 0,000 mm 0,0 UV-I 0 W/m 4,9 C 6,3 C 6,4 km/h (2 Bft) 100,00 %
09.02.2016 04:07 6,3 C 91 % 1009,4 hPa 0,0 l/m 3,9 km/h (1 Bft) S 187 0 min 0,000 mm 0,0 UV-I 0 W/m 4,9 C 6,3 C 8,0 km/h (2 Bft) 93,33 %
09.02.2016 04:08 6,3 C 91 % 1009,4 hPa 0,0 l/m 5,0 km/h (1 Bft) S-SO 161 0 min 0,000 mm 0,0 UV-I 0 W/m 4,9 C 6,3 C 9,7 km/h (2 Bft) 100,00 %
09.02.2016 04:09 6,3 C 91 % 1009,4 hPa 0,0 l/m 3,8 km/h (1 Bft) S-SO 166 0 min 0,000 mm 0,0 UV-I 0 W/m 4,9 C 6,3 C 6,4 km/h (2 Bft) 92,31 %
09.02.2016 04:10 6,3 C 91 % 1009,4 hPa 0,0 l/m 3,3 km/h (1 Bft) S-SO 161 0 min 0,000 mm 0,0 UV-I 0 W/m 4,9 C 6,3 C 6,4 km/h (2 Bft) 96,67 %
09.02.2016 04:11 6,2 C 92 % 1009,3 hPa 0,0 l/m 3,0 km/h (1 Bft) S-SO 161 0 min 0,000 mm 0,0 UV-I 0 W/m 5,0 C 6,2 C 4,8 km/h (1 Bft) 100,00 %
09.02.2016 04:12 6,2 C 92 % 1009,3 hPa 0,0 l/m 3,7 km/h (1 Bft) S-SO 150 0 min 0,000 mm 0,0 UV-I 0 W/m 5,0 C 6,2 C 8,0 km/h (2 Bft) 100,00 %
09.02.2016 04:13 6,2 C 92 % 1009,1 hPa 0,0 l/m 4,3 km/h (1 Bft) S-SO 157 0 min 0,000 mm 0,0 UV-I 0 W/m 5,0 C 6,2 C 8,0 km/h (2 Bft) 96,15 %
09.02.2016 04:14 6,2 C 92 % 1009,1 hPa 0,0 l/m 2,4 km/h (1 Bft) S-SO 157 0 min 0,000 mm 0,0 UV-I 0 W/m 5,0 C 6,2 C 6,4 km/h (2 Bft) 96,30 %
09.02.2016 04:15 6,1 C 92 % 1009,3 hPa 0,0 l/m 1,7 km/h (1 Bft) S-SO 159 0 min 0,000 mm 0,0 UV-I 0 W/m 4,9 C 6,1 C 3,2 km/h (1 Bft) 100,00 %
09.02.2016 04:16 6,1 C 92 % 1009,3 hPa 0,0 l/m 4,3 km/h (1 Bft) S 183 0 min 0,000 mm 0,0 UV-I 0 W/m 4,9 C 6,1 C 6,4 km/h (2 Bft) 95,83 %
09.02.2016 04:17 6,1 C 92 % 1009,3 hPa 0,0 l/m 5,4 km/h (1 Bft) S-SO 166 0 min 0,000 mm 0,0 UV-I 0 W/m 4,9 C 6,1 C 8,0 km/h (2 Bft) 100,00 %
09.02.2016 04:18 6,0 C 92 % 1009,3 hPa 0,0 l/m 4,9 km/h (1 Bft) S-SO 163 0 min 0,000 mm 0,0 UV-I 0 W/m 4,8 C 6,0 C 8,0 km/h (2 Bft) 100,00 %
09.02.2016 04:19 6,0 C 92 % 1009,3 hPa 0,0 l/m 2,8 km/h (1 Bft) S-SO 161 0 min 0,000 mm 0,0 UV-I 0 W/m 4,8 C 6,0 C 6,4 km/h (2 Bft) 100,00 %
09.02.2016 04:20 5,9 C 92 % 1009,3 hPa 0,0 l/m 3,8 km/h (1 Bft) S-SO 168 0 min 0,000 mm 0,0 UV-I 0 W/m 4,7 C 5,9 C 6,4 km/h (2 Bft) 100,00 %
09.02.2016 04:21 5,9 C 92 % 1009,2 hPa 0,0 l/m 3,5 km/h (1 Bft) S-SO 161 0 min 0,000 mm 0,0 UV-I 0 W/m 4,7 C 5,9 C 6,4 km/h (2 Bft) 100,00 %
09.02.2016 04:22 5,9 C 92 % 1009,3 hPa 0,0 l/m 4,9 km/h (1 Bft) S 170 0 min 0,000 mm 0,0 UV-I 0 W/m 4,7 C 5,9 C 8,0 km/h (2 Bft) 100,00 %
09.02.2016 04:23 5,9 C 92 % 1009,3 hPa 0,0 l/m 3,8 km/h (1 Bft) S 179 0 min 0,000 mm 0,0 UV-I 0 W/m 4,7 C 5,9 C 6,4 km/h (2 Bft) 91,30 %
09.02.2016 04:24 5,9 C 92 % 1009,3 hPa 0,0 l/m 3,7 km/h (1 Bft) S-SO 159 0 min 0,000 mm 0,0 UV-I 0 W/m 4,7 C 5,9 C 8,0 km/h (2 Bft) 100,00 %
09.02.2016 04:25 5,8 C 92 % 1009,2 hPa 0,0 l/m 3,8 km/h (1 Bft) S-SO 161 0 min 0,000 mm 0,0 UV-I 0 W/m 4,6 C 5,8 C 8,0 km/h (2 Bft) 95,65 %
09.02.2016 04:26 5,8 C 92 % 1009,2 hPa 0,0 l/m 4,2 km/h (1 Bft) S 178 0 min 0,000 mm 0,0 UV-I 0 W/m 4,6 C 5,8 C 6,4 km/h (2 Bft) 100,00 %
09.02.2016 04:27 5,8 C 92 % 1009,2 hPa 0,0 l/m 4,8 km/h (1 Bft) S 180 0 min 0,000 mm 0,0 UV-I 0 W/m 4,6 C 5,8 C 9,7 km/h (2 Bft) 100,00 %
09.02.2016 04:28 5,8 C 92 % 1009,3 hPa 0,0 l/m 5,2 km/h (1 Bft) S-SO 164 0 min 0,000 mm 0,0 UV-I 0 W/m 4,6 C 5,8 C 8,0 km/h (2 Bft) 100,00 %
09.02.2016 04:29 5,8 C 92 % 1009,1 hPa 0,0 l/m 2,5 km/h (1 Bft) S-SO 166 0 min 0,000 mm 0,0 UV-I 0 W/m 4,6 C 5,8 C 4,8 km/h (1 Bft) 95,83 %
09.02.2016 04:30 5,8 C 92 % 1009,1 hPa 0,0 l/m 2,5 km/h (1 Bft) S-SO 167 0 min 0,000 mm 0,0 UV-I 0 W/m 4,6 C 5,8 C 6,4 km/h (2 Bft) 100,00 %
09.02.2016 04:31 5,8 C 93 % 1009,2 hPa 0,0 l/m 1,8 km/h (1 Bft) S-SO 165 0 min 0,000 mm 0,0 UV-I 0 W/m 4,8 C 5,8 C 4,8 km/h (1 Bft) 100,00 %
09.02.2016 04:32 5,8 C 93 % 1009,2 hPa 0,0 l/m 2,0 km/h (1 Bft) S 176 0 min 0,000 mm 0,0 UV-I 0 W/m 4,8 C 5,8 C 4,8 km/h (1 Bft) 100,00 %
09.02.2016 04:33 5,7 C 93 % 1009,3 hPa 0,0 l/m 2,7 km/h (1 Bft) S 176 0 min 0,000 mm 0,0 UV-I 0 W/m 4,7 C 5,7 C 3,2 km/h (1 Bft) 100,00 %
09.02.2016 04:34 5,7 C 92 % 1009,3 hPa 0,0 l/m 4,0 km/h (1 Bft) S 175 0 min 0,000 mm 0,0 UV-I 0 W/m 4,5 C 5,7 C 6,4 km/h (2 Bft) 100,00 %
09.02.2016 04:35 5,6 C 92 % 1009,3 hPa 0,0 l/m 0,4 km/h (0 Bft) S 175 0 min 0,000 mm 0,0 UV-I 0 W/m 4,4 C 5,6 C 1,6 km/h (1 Bft) 100,00 %
09.02.2016 04:36 5,6 C 92 % 1009,2 hPa 0,0 l/m 0,3 km/h (0 Bft) S 175 0 min 0,000 mm 0,0 UV-I 0 W/m 4,4 C 5,6 C 1,6 km/h (1 Bft) 100,00 %
09.02.2016 04:37 5,5 C 92 % 1009,3 hPa 0,0 l/m 1,5 km/h (1 Bft) S 175 0 min 0,000 mm 0,0 UV-I 0 W/m 4,3 C 5,5 C 4,8 km/h (1 Bft) 100,00 %
09.02.2016 04:38 5,4 C 93 % 1009,3 hPa 0,0 l/m 1,5 km/h (1 Bft) S 175 0 min 0,000 mm 0,0 UV-I 0 W/m 4,4 C 5,4 C 3,2 km/h (1 Bft) 100,00 %
09.02.2016 04:39 5,4 C 93 % 1009,3 hPa 0,0 l/m 2,7 km/h (1 Bft) S 175 0 min 0,000 mm 0,0 UV-I 0 W/m 4,4 C 5,4 C 4,8 km/h (1 Bft) 100,00 %
09.02.2016 04:40 5,3 C 93 % 1009,3 hPa 0,0 l/m 1,7 km/h (1 Bft) S 175 0 min 0,000 mm 0,0 UV-I 0 W/m 4,3 C 5,3 C 3,2 km/h (1 Bft) 98,35 %
09.02.2016 04:41 5,3 C 93 % 1009,3 hPa 0,0 l/m 3,1 km/h (1 Bft) S-SO 154 0 min 0,000 mm 0,0 UV-I 0 W/m 4,3 C 5,3 C 6,4 km/h (2 Bft) 100,00 %
09.02.2016 04:42 5,3 C 94 % 1009,3 hPa 0,0 l/m 4,3 km/h (1 Bft) SO 138 0 min 0,000 mm 0,0 UV-I 0 W/m 4,4 C 5,3 C 6,4 km/h (2 Bft) 100,00 %
09.02.2016 04:43 5,3 C 94 % 1009,3 hPa 0,0 l/m 5,7 km/h (1 Bft) SO 139 0 min 0,000 mm 0,0 UV-I 0 W/m 4,4 C 5,3 C 6,4 km/h (2 Bft) 100,00 %
09.02.2016 04:44 5,2 C 94 % 1009,3 hPa 0,0 l/m 3,3 km/h (1 Bft) SO 146 0 min 0,000 mm 0,0 UV-I 0 W/m 4,3 C 5,2 C 4,8 km/h (1 Bft) 100,00 %
09.02.2016 04:45 5,2 C 94 % 1009,3 hPa 0,0 l/m 2,3 km/h (1 Bft) S-SO 149 0 min 0,000 mm 0,0 UV-I 0 W/m 4,3 C 5,2 C 4,8 km/h (1 Bft) 100,00 %
09.02.2016 04:46 5,2 C 94 % 1009,3 hPa 0,0 l/m 1,1 km/h (1 Bft) S-SO 148 0 min 0,000 mm 0,0 UV-I 0 W/m 4,3 C 5,2 C 3,2 km/h (1 Bft) 100,00 %
09.02.2016 04:47 5,2 C 95 % 1009,3 hPa 0,0 l/m 0,8 km/h (0 Bft) S-SO 148 0 min 0,000 mm 0,0 UV-I 0 W/m 4,5 C 5,2 C 1,6 km/h (1 Bft) 100,00 %
09.02.2016 04:48 5,2 C 95 % 1009,4 hPa 0,0 l/m 0,0 km/h (0 Bft) S-SO 149 0 min 0,000 mm 0,0 UV-I 0 W/m 4,5 C 5,2 C 0,0 km/h (0 Bft) 100,00 %
09.02.2016 04:49 5,2 C 95 % 1009,4 hPa 0,0 l/m 2,1 km/h (1 Bft) S-SW 213 0 min 0,000 mm 0,0 UV-I 0 W/m 4,5 C 5,2 C 3,2 km/h (1 Bft) 100,00 %
09.02.2016 04:50 5,2 C 95 % 1009,4 hPa 0,0 l/m 1,8 km/h (1 Bft) S-SW 213 0 min 0,000 mm 0,0 UV-I 0 W/m 4,5 C 5,2 C 3,2 km/h (1 Bft) 100,00 %
09.02.2016 04:51 5,2 C 95 % 1009,3 hPa 0,0 l/m 1,7 km/h (1 Bft) S-SW 213 0 min 0,000 mm 0,0 UV-I 0 W/m 4,5 C 5,2 C 3,2 km/h (1 Bft) 100,00 %
09.02.2016 04:52 5,2 C 95 % 1009,2 hPa 0,0 l/m 0,7 km/h (0 Bft) S-SW 213 0 min 0,000 mm 0,0 UV-I 0 W/m 4,5 C 5,2 C 1,6 km/h (1 Bft) 95,83 %
09.02.2016 04:53 5,2 C 95 % 1009,0 hPa 0,0 l/m 1,9 km/h (1 Bft) S-SW 213 0 min 0,000 mm 0,0 UV-I 0 W/m 4,5 C 5,2 C 4,8 km/h (1 Bft) 96,15 %
09.02.2016 04:54 5,1 C 95 % 1009,0 hPa 0,0 l/m 1,3 km/h (1 Bft) NW 319 0 min 0,000 mm 0,0 UV-I 0 W/m 4,4 C 5,1 C 3,2 km/h (1 Bft) 100,00 %
09.02.2016 04:55 5,1 C 95 % 1009,0 hPa 0,0 l/m 3,0 km/h (1 Bft) W 267 0 min 0,000 mm 0,0 UV-I 0 W/m 4,4 C 5,1 C 4,8 km/h (1 Bft) 95,65 %
09.02.2016 04:56 5,0 C 95 % 1009,2 hPa 0,0 l/m 1,6 km/h (1 Bft) SW 215 0 min 0,000 mm 0,0 UV-I 0 W/m 4,3 C 5,0 C 4,8 km/h (1 Bft) 100,00 %
09.02.2016 04:57 4,9 C 95 % 1009,1 hPa 0,0 l/m 4,8 km/h (1 Bft) S-SO 157 0 min 0,000 mm 0,0 UV-I 0 W/m 4,2 C 4,9 C 12,9 km/h (3 Bft) 100,00 %
09.02.2016 04:58 4,9 C 95 % 1009,3 hPa 0,0 l/m 4,7 km/h (1 Bft) S-SW 212 0 min 0,000 mm 0,0 UV-I 0 W/m 4,2 C 4,9 C 9,7 km/h (2 Bft) 100,00 %
09.02.2016 04:59 5,0 C 95 % 1009,2 hPa 0,0 l/m 11,5 km/h (2 Bft) SW 229 0 min 0,000 mm 0,0 UV-I 0 W/m 4,3 C 1,1 C 16,1 km/h (3 Bft) 100,00 %
09.02.2016 05:00 5,1 C 95 % 1009,2 hPa 0,0 l/m 10,1 km/h (2 Bft) W-SW 239 0 min 0,000 mm 0,0 UV-I 0 W/m 4,4 C 2,1 C 12,9 km/h (3 Bft) 100,00 %
09.02.2016 05:01 5,2 C 96 % 1009,3 hPa 0,0 l/m 9,5 km/h (2 Bft) SW 225 0 min 0,000 mm 0,0 UV-I 0 W/m 4,6 C 2,7 C 12,9 km/h (3 Bft) 100,00 %
09.02.2016 05:02 5,2 C 95 % 1009,2 hPa 0,0 l/m 11,7 km/h (2 Bft) W-SW 249 0 min 0,000 mm 0,0 UV-I 0 W/m 4,5 C 1,2 C 16,1 km/h (3 Bft) 100,00 %
09.02.2016 05:03 5,3 C 95 % 1009,2 hPa 0,0 l/m 12,8 km/h (3 Bft) W-SW 241 0 min 0,000 mm 0,0 UV-I 0 W/m 4,6 C 0,6 C 17,7 km/h (3 Bft) 100,00 %
09.02.2016 05:04 5,4 C 94 % 1009,2 hPa 0,0 l/m 7,9 km/h (2 Bft) W-SW 257 0 min 0,000 mm 0,0 UV-I 0 W/m 4,5 C 4,1 C 14,5 km/h (3 Bft) 100,00 %
09.02.2016 05:05 5,5 C 94 % 1009,2 hPa 0,0 l/m 11,9 km/h (2 Bft) W-SW 250 0 min 0,000 mm 0,0 UV-I 0 W/m 4,6 C 1,4 C 16,1 km/h (3 Bft) 92,59 %
09.02.2016 05:06 5,6 C 94 % 1009,3 hPa 0,0 l/m 16,3 km/h (3 Bft) SW 234 0 min 0,000 mm 0,0 UV-I 0 W/m 4,7 C -0,8 C 30,6 km/h (5 Bft) 100,00 %
09.02.2016 05:07 5,7 C 94 % 1009,2 hPa 0,0 l/m 22,9 km/h (4 Bft) W-SW 252 0 min 0,000 mm 0,0 UV-I 0 W/m 4,8 C -3,3 C 33,8 km/h (5 Bft) 100,00 %
09.02.2016 05:08 5,9 C 93 % 1009,0 hPa 0,0 l/m 15,2 km/h (3 Bft) W 273 0 min 0,000 mm 0,0 UV-I 0 W/m 4,9 C 0,1 C 17,7 km/h (3 Bft) 100,00 %
09.02.2016 05:09 6,1 C 92 % 1009,0 hPa 0,0 l/m 17,4 km/h (3 Bft) W 268 0 min 0,000 mm 0,0 UV-I 0 W/m 4,9 C -0,7 C 29,0 km/h (5 Bft) 100,00 %
09.02.2016 05:10 6,3 C 91 % 1009,0 hPa 0,0 l/m 18,8 km/h (3 Bft) SW 222 0 min 0,000 mm 0,0 UV-I 0 W/m 4,9 C -1,0 C 22,5 km/h (4 Bft) 100,00 %
09.02.2016 05:11 6,5 C 90 % 1009,0 hPa 0,0 l/m 8,0 km/h (2 Bft) W-SW 237 0 min 0,000 mm 0,0 UV-I 0 W/m 5,0 C 5,2 C 14,5 km/h (3 Bft) 100,00 %
09.02.2016 05:12 6,7 C 90 % 1009,1 hPa 0,0 l/m 14,6 km/h (3 Bft) W-SW 246 0 min 0,000 mm 0,0 UV-I 0 W/m 5,2 C 1,3 C 25,7 km/h (4 Bft) 91,30 %
09.02.2016 05:13 6,8 C 88 % 1009,0 hPa 0,0 l/m 12,3 km/h (3 Bft) W-SW 238 0 min 0,000 mm 0,0 UV-I 0 W/m 5,0 C 2,7 C 19,3 km/h (3 Bft) 100,00 %
09.02.2016 05:14 6,8 C 88 % 1009,1 hPa 0,0 l/m 13,8 km/h (3 Bft) SW 223 0 min 0,000 mm 0,0 UV-I 0 W/m 5,0 C 1,9 C 17,7 km/h (3 Bft) 100,00 %
09.02.2016 05:15 6,9 C 88 % 1009,1 hPa 0,0 l/m 19,0 km/h (3 Bft) SW 234 0 min 0,000 mm 0,0 UV-I 0 W/m 5,1 C -0,3 C 25,7 km/h (4 Bft) 100,00 %
09.02.2016 05:16 6,9 C 88 % 1009,2 hPa 0,0 l/m 13,3 km/h (3 Bft) SW 232 0 min 0,000 mm 0,0 UV-I 0 W/m 5,1 C 2,2 C 16,1 km/h (3 Bft) 100,00 %
09.02.2016 05:17 6,9 C 88 % 1009,2 hPa 0,0 l/m 11,7 km/h (2 Bft) S-SW 211 0 min 0,000 mm 0,0 UV-I 0 W/m 5,1 C 3,1 C 16,1 km/h (3 Bft) 100,00 %
09.02.2016 05:18 6,9 C 88 % 1009,2 hPa 0,0 l/m 8,8 km/h (2 Bft) SW 228 0 min 0,000 mm 0,0 UV-I 0 W/m 5,1 C 5,0 C 16,1 km/h (3 Bft) 100,00 %
09.02.2016 05:19 6,8 C 88 % 1009,3 hPa 0,0 l/m 11,6 km/h (2 Bft) SW 219 0 min 0,000 mm 0,0 UV-I 0 W/m 5,0 C 3,1 C 16,1 km/h (3 Bft) 100,00 %
09.02.2016 05:20 6,8 C 88 % 1009,3 hPa 0,0 l/m 11,4 km/h (2 Bft) W-SW 246 0 min 0,000 mm 0,0 UV-I 0 W/m 5,0 C 3,2 C 17,7 km/h (3 Bft) 100,00 %
09.02.2016 05:21 6,8 C 88 % 1009,4 hPa 0,0 l/m 15,7 km/h (3 Bft) SW 223 0 min 0,000 mm 0,0 UV-I 0 W/m 5,0 C 0,9 C 19,3 km/h (3 Bft) 100,00 %
09.02.2016 05:22 6,8 C 88 % 1009,4 hPa 0,0 l/m 15,0 km/h (3 Bft) W-SW 244 0 min 0,000 mm 0,0 UV-I 0 W/m 5,0 C 1,3 C 22,5 km/h (4 Bft) 100,00 %
09.02.2016 05:23 6,7 C 88 % 1009,3 hPa 0,0 l/m 12,6 km/h (3 Bft) SW 223 0 min 0,000 mm 0,0 UV-I 0 W/m 4,9 C 2,4 C 17,7 km/h (3 Bft) 100,00 %
09.02.2016 05:24 6,7 C 89 % 1009,4 hPa 0,0 l/m 15,0 km/h (3 Bft) SW 235 0 min 0,000 mm 0,0 UV-I 0 W/m 5,0 C 1,1 C 19,3 km/h (3 Bft) 100,00 %
09.02.2016 05:25 6,7 C 89 % 1009,4 hPa 0,0 l/m 11,1 km/h (2 Bft) SW 227 0 min 0,000 mm 0,0 UV-I 0 W/m 5,0 C 3,2 C 16,1 km/h (3 Bft) 100,00 %
09.02.2016 05:26 6,7 C 89 % 1009,4 hPa 0,0 l/m 11,7 km/h (2 Bft) SW 225 0 min 0,000 mm 0,0 UV-I 0 W/m 5,0 C 2,9 C 17,7 km/h (3 Bft) 100,00 %
09.02.2016 05:27 6,7 C 89 % 1009,4 hPa 0,0 l/m 9,0 km/h (2 Bft) SW 229 0 min 0,000 mm 0,0 UV-I 0 W/m 5,0 C 4,6 C 12,9 km/h (3 Bft) 100,00 %
09.02.2016 05:28 6,7 C 89 % 1009,4 hPa 0,0 l/m 9,2 km/h (2 Bft) SW 236 0 min 0,000 mm 0,0 UV-I 0 W/m 5,0 C 4,5 C 12,9 km/h (3 Bft) 100,00 %
09.02.2016 05:29 6,7 C 89 % 1009,4 hPa 0,0 l/m 9,2 km/h (2 Bft) SW 227 0 min 0,000 mm 0,0 UV-I 0 W/m 5,0 C 4,5 C 11,3 km/h (2 Bft) 96,15 %
09.02.2016 05:30 6,7 C 89 % 1009,3 hPa 0,0 l/m 12,5 km/h (3 Bft) W-SW 237 0 min 0,000 mm 0,0 UV-I 0 W/m 5,0 C 2,4 C 16,1 km/h (3 Bft) 100,00 %
09.02.2016 05:31 6,6 C 89 % 1009,4 hPa 0,0 l/m 9,5 km/h (2 Bft) S-SW 199 0 min 0,000 mm 0,0 UV-I 0 W/m 4,9 C 4,2 C 12,9 km/h (3 Bft) 100,00 %
09.02.2016 05:32 6,6 C 89 % 1009,4 hPa 0,0 l/m 10,4 km/h (2 Bft) SW 226 0 min 0,000 mm 0,0 UV-I 0 W/m 4,9 C 3,6 C 14,5 km/h (3 Bft) 100,00 %
09.02.2016 05:33 6,6 C 90 % 1009,5 hPa 0,0 l/m 10,0 km/h (2 Bft) W 280 0 min 0,000 mm 0,0 UV-I 0 W/m 5,1 C 3,8 C 14,5 km/h (3 Bft) 100,00 %
09.02.2016 05:34 6,6 C 90 % 1009,5 hPa 0,0 l/m 8,9 km/h (2 Bft) SW 222 0 min 0,000 mm 0,0 UV-I 0 W/m 5,1 C 4,6 C 14,5 km/h (3 Bft) 100,00 %
09.02.2016 05:35 6,6 C 90 % 1009,5 hPa 0,0 l/m 12,8 km/h (3 Bft) S 186 0 min 0,000 mm 0,0 UV-I 0 W/m 5,1 C 2,1 C 17,7 km/h (3 Bft) 100,00 %
09.02.2016 05:36 6,6 C 90 % 1009,4 hPa 0,0 l/m 14,0 km/h (3 Bft) S-SW 203 0 min 0,000 mm 0,0 UV-I 0 W/m 5,1 C 1,5 C 19,3 km/h (3 Bft) 94,12 %
09.02.2016 05:37 6,6 C 90 % 1009,3 hPa 0,0 l/m 10,9 km/h (2 Bft) W-SW 248 0 min 0,000 mm 0,0 UV-I 0 W/m 5,1 C 3,3 C 14,5 km/h (3 Bft) 100,00 %
09.02.2016 05:38 6,7 C 90 % 1009,3 hPa 0,0 l/m 12,5 km/h (3 Bft) W 271 0 min 0,000 mm 0,0 UV-I 0 W/m 5,2 C 2,4 C 16,1 km/h (3 Bft) 100,00 %
09.02.2016 05:39 6,7 C 90 % 1009,3 hPa 0,0 l/m 15,8 km/h (3 Bft) SW 225 0 min 0,000 mm 0,0 UV-I 0 W/m 5,2 C 0,8 C 25,7 km/h (4 Bft) 100,00 %
09.02.2016 05:40 6,7 C 89 % 1009,3 hPa 0,0 l/m 15,5 km/h (3 Bft) W-SW 246 0 min 0,000 mm 0,0 UV-I 0 W/m 5,0 C 0,9 C 20,9 km/h (4 Bft) 100,00 %
09.02.2016 05:41 6,8 C 88 % 1009,3 hPa 0,0 l/m 21,2 km/h (4 Bft) W-SW 248 0 min 0,000 mm 0,0 UV-I 0 W/m 5,0 C -1,3 C 33,8 km/h (5 Bft) 100,00 %
09.02.2016 05:42 6,9 C 88 % 1009,3 hPa 0,0 l/m 26,0 km/h (4 Bft) SW 233 0 min 0,000 mm 0,0 UV-I 0 W/m 5,1 C -2,7 C 40,2 km/h (6 Bft) 100,00 %
09.02.2016 05:43 7,0 C 87 % 1009,3 hPa 0,0 l/m 20,2 km/h (4 Bft) W-SW 251 0 min 0,000 mm 0,0 UV-I 0 W/m 5,0 C -0,7 C 32,2 km/h (5 Bft) 100,00 %
09.02.2016 05:44 7,1 C 87 % 1009,3 hPa 0,0 l/m 14,7 km/h (3 Bft) W-SW 241 0 min 0,000 mm 0,0 UV-I 0 W/m 5,1 C 1,8 C 19,3 km/h (3 Bft) 100,00 %
09.02.2016 05:45 7,2 C 87 % 1009,2 hPa 0,0 l/m 17,6 km/h (3 Bft) W-SW 238 0 min 0,000 mm 0,0 UV-I 0 W/m 5,2 C 0,6 C 22,5 km/h (4 Bft) 100,00 %
09.02.2016 05:46 7,2 C 87 % 1009,3 hPa 0,0 l/m 13,2 km/h (3 Bft) SW 216 0 min 0,000 mm 0,0 UV-I 0 W/m 5,2 C 2,6 C 17,7 km/h (3 Bft) 100,00 %
09.02.2016 05:47 7,2 C 87 % 1009,3 hPa 0,0 l/m 13,0 km/h (3 Bft) SW 231 0 min 0,000 mm 0,0 UV-I 0 W/m 5,2 C 2,7 C 17,7 km/h (3 Bft) 100,00 %
09.02.2016 05:48 7,2 C 87 % 1009,3 hPa 0,0 l/m 10,6 km/h (2 Bft) S-SW 207 0 min 0,000 mm 0,0 UV-I 0 W/m 5,2 C 4,1 C 17,7 km/h (3 Bft) 96,88 %
09.02.2016 05:49 7,2 C 87 % 1009,3 hPa 0,0 l/m 11,3 km/h (2 Bft) S-SW 205 0 min 0,000 mm 0,0 UV-I 0 W/m 5,2 C 3,7 C 14,5 km/h (3 Bft) 91,67 %
09.02.2016 05:50 7,1 C 87 % 1009,3 hPa 0,0 l/m 11,1 km/h (2 Bft) S 189 0 min 0,000 mm 0,0 UV-I 0 W/m 5,1 C 3,7 C 19,3 km/h (3 Bft) 100,00 %
09.02.2016 05:51 7,1 C 87 % 1009,3 hPa 0,0 l/m 11,7 km/h (2 Bft) SW 214 0 min 0,000 mm 0,0 UV-I 0 W/m 5,1 C 3,3 C 16,1 km/h (3 Bft) 96,30 %
09.02.2016 05:52 7,1 C 87 % 1009,3 hPa 0,0 l/m 9,3 km/h (2 Bft) SW 223 0 min 0,000 mm 0,0 UV-I 0 W/m 5,1 C 4,9 C 16,1 km/h (3 Bft) 100,00 %
09.02.2016 05:53 7,0 C 87 % 1009,3 hPa 0,0 l/m 10,6 km/h (2 Bft) W-SW 250 0 min 0,000 mm 0,0 UV-I 0 W/m 5,0 C 3,9 C 14,5 km/h (3 Bft) 95,83 %
09.02.2016 05:54 7,0 C 87 % 1009,2 hPa 0,0 l/m 10,6 km/h (2 Bft) S-SW 200 0 min 0,000 mm 0,0 UV-I 0 W/m 5,0 C 3,9 C 14,5 km/h (3 Bft) 95,65 %
09.02.2016 05:55 6,9 C 87 % 1009,2 hPa 0,0 l/m 14,1 km/h (3 Bft) S 186 0 min 0,000 mm 0,0 UV-I 0 W/m 4,9 C 1,8 C 22,5 km/h (4 Bft) 100,00 %
09.02.2016 05:56 6,9 C 88 % 1009,3 hPa 0,0 l/m 13,9 km/h (3 Bft) S-SW 207 0 min 0,000 mm 0,0 UV-I 0 W/m 5,1 C 1,9 C 24,1 km/h (4 Bft) 96,43 %
09.02.2016 05:57 6,9 C 87 % 1009,2 hPa 0,0 l/m 13,6 km/h (3 Bft) S 176 0 min 0,000 mm 0,0 UV-I 0 W/m 4,9 C 2,1 C 22,5 km/h (4 Bft) 100,00 %
09.02.2016 05:58 6,8 C 87 % 1009,1 hPa 0,0 l/m 14,6 km/h (3 Bft) SW 232 0 min 0,000 mm 0,0 UV-I 0 W/m 4,8 C 1,5 C 24,1 km/h (4 Bft) 95,65 %
09.02.2016 05:59 6,9 C 86 % 1009,1 hPa 0,0 l/m 13,8 km/h (3 Bft) S-SW 206 0 min 0,000 mm 0,0 UV-I 0 W/m 4,7 C 2,0 C 24,1 km/h (4 Bft) 100,00 %
09.02.2016 06:00 6,9 C 86 % 1009,0 hPa 0,0 l/m 14,4 km/h (3 Bft) W-SW 244 0 min 0,025 mm 0,0 UV-I 0 W/m 4,7 C 1,7 C 22,5 km/h (4 Bft) 85,71 %
09.02.2016 06:01 6,9 C 86 % 1009,1 hPa 0,0 l/m 14,1 km/h (3 Bft) S-SW 207 0 min 0,000 mm 0,0 UV-I 0 W/m 4,7 C 1,8 C 24,1 km/h (4 Bft) 100,00 %
09.02.2016 06:02 6,9 C 86 % 1009,0 hPa 0,0 l/m 15,2 km/h (3 Bft) W-SW 246 0 min 0,000 mm 0,0 UV-I 0 W/m 4,7 C 1,3 C 20,9 km/h (4 Bft) 95,65 %
09.02.2016 06:03 6,9 C 86 % 1009,0 hPa 0,0 l/m 12,9 km/h (3 Bft) SW 227 0 min 0,000 mm 0,0 UV-I 0 W/m 4,7 C 2,4 C 16,1 km/h (3 Bft) 96,30 %
09.02.2016 06:04 6,9 C 86 % 1008,9 hPa 0,0 l/m 14,1 km/h (3 Bft) SW 226 0 min 0,000 mm 0,0 UV-I 0 W/m 4,7 C 1,8 C 19,3 km/h (3 Bft) 100,00 %
09.02.2016 06:05 6,9 C 86 % 1008,9 hPa 0,0 l/m 12,7 km/h (3 Bft) SW 225 0 min 0,000 mm 0,0 UV-I 0 W/m 4,7 C 2,6 C 17,7 km/h (3 Bft) 86,67 %
09.02.2016 06:06 6,9 C 86 % 1008,8 hPa 0,0 l/m 12,8 km/h (3 Bft) SW 219 0 min 0,000 mm 0,0 UV-I 0 W/m 4,7 C 2,5 C 16,1 km/h (3 Bft) 100,00 %
09.02.2016 06:07 6,9 C 86 % 1008,8 hPa 0,0 l/m 10,1 km/h (2 Bft) S 178 0 min 0,000 mm 0,0 UV-I 0 W/m 4,7 C 4,1 C 14,5 km/h (3 Bft) 96,15 %
09.02.2016 06:08 6,9 C 86 % 1008,8 hPa 0,0 l/m 11,1 km/h (2 Bft) S-SW 195 0 min 0,000 mm 0,0 UV-I 0 W/m 4,7 C 3,5 C 16,1 km/h (3 Bft) 91,67 %
09.02.2016 06:09 6,9 C 86 % 1008,8 hPa 0,0 l/m 12,1 km/h (2 Bft) W-SW 246 0 min 0,000 mm 0,0 UV-I 0 W/m 4,7 C 2,9 C 17,7 km/h (3 Bft) 96,15 %
09.02.2016 06:10 6,9 C 86 % 1008,7 hPa 0,0 l/m 14,3 km/h (3 Bft) SW 220 0 min 0,000 mm 0,0 UV-I 0 W/m 4,7 C 1,7 C 17,7 km/h (3 Bft) 100,00 %
09.02.2016 06:11 6,9 C 86 % 1008,7 hPa 0,0 l/m 16,6 km/h (3 Bft) S-SW 211 0 min 0,000 mm 0,0 UV-I 0 W/m 4,7 C 0,6 C 22,5 km/h (4 Bft) 96,15 %
09.02.2016 06:12 6,8 C 86 % 1008,7 hPa 0,0 l/m 12,8 km/h (3 Bft) S-SO 165 0 min 0,000 mm 0,0 UV-I 0 W/m 4,6 C 2,4 C 19,3 km/h (3 Bft) 96,30 %
09.02.2016 06:13 6,9 C 86 % 1008,7 hPa 0,0 l/m 16,0 km/h (3 Bft) S-SW 194 0 min 0,000 mm 0,0 UV-I 0 W/m 4,7 C 0,9 C 20,9 km/h (4 Bft) 94,12 %
09.02.2016 06:14 6,9 C 86 % 1008,7 hPa 0,0 l/m 14,3 km/h (3 Bft) S 180 0 min 0,000 mm 0,0 UV-I 0 W/m 4,7 C 1,7 C 19,3 km/h (3 Bft) 96,30 %
09.02.2016 06:15 6,9 C 86 % 1008,6 hPa 0,0 l/m 15,4 km/h (3 Bft) SW 230 0 min 0,000 mm 0,0 UV-I 0 W/m 4,7 C 1,2 C 22,5 km/h (4 Bft) 100,00 %
09.02.2016 06:16 6,9 C 85 % 1008,6 hPa 0,0 l/m 8,7 km/h (2 Bft) S-SW 195 0 min 0,000 mm 0,0 UV-I 0 W/m 4,6 C 5,1 C 12,9 km/h (3 Bft) 96,30 %
09.02.2016 06:17 6,9 C 85 % 1008,7 hPa 0,0 l/m 16,1 km/h (3 Bft) S-SO 150 0 min 0,000 mm 0,0 UV-I 0 W/m 4,6 C 0,9 C 20,9 km/h (4 Bft) 100,00 %
09.02.2016 06:18 7,0 C 85 % 1008,6 hPa 0,0 l/m 16,7 km/h (3 Bft) S-SW 210 0 min 0,000 mm 0,0 UV-I 0 W/m 4,7 C 0,7 C 24,1 km/h (4 Bft) 96,15 %
09.02.2016 06:19 7,0 C 85 % 1008,6 hPa 0,0 l/m 17,1 km/h (3 Bft) S-SW 212 0 min 0,000 mm 0,0 UV-I 0 W/m 4,7 C 0,6 C 25,7 km/h (4 Bft) 100,00 %
09.02.2016 06:20 7,0 C 85 % 1008,4 hPa 0,0 l/m 15,6 km/h (3 Bft) S-SW 192 0 min 0,000 mm 0,0 UV-I 0 W/m 4,7 C 1,2 C 20,9 km/h (4 Bft) 93,33 %
09.02.2016 06:21 7,0 C 85 % 1008,5 hPa 0,0 l/m 14,1 km/h (3 Bft) SW 216 0 min 0,000 mm 0,0 UV-I 0 W/m 4,7 C 1,9 C 22,5 km/h (4 Bft) 100,00 %
09.02.2016 06:22 7,0 C 85 % 1008,5 hPa 0,0 l/m 16,3 km/h (3 Bft) S-SW 202 0 min 0,000 mm 0,0 UV-I 0 W/m 4,7 C 0,9 C 22,5 km/h (4 Bft) 96,15 %
09.02.2016 06:23 7,0 C 85 % 1008,5 hPa 0,0 l/m 11,1 km/h (2 Bft) S-SW 207 0 min 0,000 mm 0,0 UV-I 0 W/m 4,7 C 3,6 C 17,7 km/h (3 Bft) 100,00 %
09.02.2016 06:24 7,0 C 85 % 1008,4 hPa 0,0 l/m 13,1 km/h (3 Bft) S-SW 204 0 min 0,000 mm 0,0 UV-I 0 W/m 4,7 C 2,5 C 17,7 km/h (3 Bft) 90,91 %
09.02.2016 06:25 7,0 C 85 % 1008,4 hPa 0,0 l/m 13,8 km/h (3 Bft) S-SO 150 0 min 0,000 mm 0,0 UV-I 0 W/m 4,7 C 2,1 C 22,5 km/h (4 Bft) 100,00 %
09.02.2016 06:26 7,0 C 85 % 1008,4 hPa 0,0 l/m 19,6 km/h (3 Bft) S-SW 209 0 min 0,000 mm 0,0 UV-I 0 W/m 4,7 C -0,4 C 24,1 km/h (4 Bft) 100,00 %
09.02.2016 06:27 6,9 C 85 % 1008,4 hPa 0,0 l/m 20,2 km/h (4 Bft) S-SW 192 0 min 0,000 mm 0,0 UV-I 0 W/m 4,6 C -0,8 C 27,4 km/h (4 Bft) 98,53 %
09.02.2016 06:28 6,9 C 85 % 1008,4 hPa 0,0 l/m 17,9 km/h (3 Bft) S-SW 213 0 min 0,000 mm 0,0 UV-I 0 W/m 4,6 C 0,1 C 27,4 km/h (4 Bft) 100,00 %
09.02.2016 06:29 6,9 C 85 % 1008,5 hPa 0,0 l/m 15,6 km/h (3 Bft) S-SW 209 0 min 0,000 mm 0,0 UV-I 0 W/m 4,6 C 1,1 C 19,3 km/h (3 Bft) 100,00 %
09.02.2016 06:30 6,9 C 85 % 1008,5 hPa 0,0 l/m 16,2 km/h (3 Bft) S-SW 211 0 min 0,000 mm 0,0 UV-I 0 W/m 4,6 C 0,8 C 22,5 km/h (4 Bft) 96,15 %
09.02.2016 06:31 6,9 C 85 % 1008,5 hPa 0,0 l/m 16,4 km/h (3 Bft) S-SW 200 0 min 0,000 mm 0,0 UV-I 0 W/m 4,6 C 0,7 C 20,9 km/h (4 Bft) 100,00 %
09.02.2016 06:32 6,9 C 85 % 1008,5 hPa 0,0 l/m 13,4 km/h (3 Bft) S 182 0 min 0,000 mm 0,0 UV-I 0 W/m 4,6 C 2,2 C 25,7 km/h (4 Bft) 96,15 %
09.02.2016 06:33 6,9 C 85 % 1008,5 hPa 0,0 l/m 15,6 km/h (3 Bft) S-SW 194 0 min 0,000 mm 0,0 UV-I 0 W/m 4,6 C 1,1 C 20,9 km/h (4 Bft) 100,00 %
09.02.2016 06:34 6,9 C 85 % 1008,5 hPa 0,0 l/m 9,7 km/h (2 Bft) SW 221 0 min 0,000 mm 0,0 UV-I 0 W/m 4,6 C 4,4 C 14,5 km/h (3 Bft) 100,00 %
09.02.2016 06:35 6,9 C 85 % 1008,4 hPa 0,0 l/m 15,4 km/h (3 Bft) S 191 0 min 0,000 mm 0,0 UV-I 0 W/m 4,6 C 1,2 C 22,5 km/h (4 Bft) 100,00 %
09.02.2016 06:36 6,9 C 85 % 1008,4 hPa 0,0 l/m 14,2 km/h (3 Bft) S-SW 211 0 min 0,000 mm 0,0 UV-I 0 W/m 4,6 C 1,8 C 20,9 km/h (4 Bft) 100,00 %
09.02.2016 06:37 6,9 C 85 % 1008,3 hPa 0,0 l/m 14,3 km/h (3 Bft) S-SW 200 0 min 0,000 mm 0,0 UV-I 0 W/m 4,6 C 1,7 C 17,7 km/h (3 Bft) 95,83 %
09.02.2016 06:38 6,9 C 85 % 1008,3 hPa 0,0 l/m 12,8 km/h (3 Bft) S-SO 162 0 min 0,000 mm 0,0 UV-I 0 W/m 4,6 C 2,5 C 16,1 km/h (3 Bft) 95,65 %
09.02.2016 06:39 6,9 C 85 % 1008,3 hPa 0,0 l/m 12,3 km/h (3 Bft) S-SW 201 0 min 0,000 mm 0,0 UV-I 0 W/m 4,6 C 2,8 C 17,7 km/h (3 Bft) 95,83 %
09.02.2016 06:40 6,9 C 85 % 1008,3 hPa 0,0 l/m 14,9 km/h (3 Bft) S-SW 196 0 min 0,000 mm 0,0 UV-I 0 W/m 4,6 C 1,4 C 19,3 km/h (3 Bft) 96,15 %
09.02.2016 06:41 6,9 C 85 % 1008,3 hPa 0,0 l/m 10,3 km/h (2 Bft) SW 225 0 min 0,000 mm 0,0 UV-I 0 W/m 4,6 C 4,0 C 16,1 km/h (3 Bft) 100,00 %
09.02.2016 06:42 6,9 C 85 % 1008,3 hPa 0,0 l/m 13,8 km/h (3 Bft) S-SW 194 0 min 0,000 mm 0,0 UV-I 0 W/m 4,6 C 2,0 C 16,1 km/h (3 Bft) 100,00 %
09.02.2016 06:43 6,9 C 85 % 1008,2 hPa 0,0 l/m 11,5 km/h (2 Bft) SW 215 0 min 0,000 mm 0,0 UV-I 0 W/m 4,6 C 3,2 C 16,1 km/h (3 Bft) 96,15 %
09.02.2016 06:44 6,9 C 85 % 1008,2 hPa 0,0 l/m 11,3 km/h (2 Bft) S-SW 192 0 min 0,000 mm 0,0 UV-I 0 W/m 4,6 C 3,4 C 16,1 km/h (3 Bft) 100,00 %
09.02.2016 06:45 6,9 C 85 % 1008,2 hPa 0,0 l/m 12,7 km/h (3 Bft) SW 222 0 min 0,000 mm 0,0 UV-I 0 W/m 4,6 C 2,6 C 17,7 km/h (3 Bft) 95,65 %
09.02.2016 06:46 6,9 C 85 % 1008,2 hPa 0,0 l/m 13,0 km/h (3 Bft) SW 217 0 min 0,000 mm 0,0 UV-I 0 W/m 4,6 C 2,4 C 17,7 km/h (3 Bft) 100,00 %
09.02.2016 06:47 6,9 C 85 % 1008,2 hPa 0,0 l/m 13,0 km/h (3 Bft) S 190 0 min 0,000 mm 0,0 UV-I 0 W/m 4,6 C 2,4 C 17,7 km/h (3 Bft) 100,00 %
09.02.2016 06:48 6,9 C 85 % 1008,2 hPa 0,0 l/m 11,5 km/h (2 Bft) S-SW 211 0 min 0,000 mm 0,0 UV-I 0 W/m 4,6 C 3,2 C 19,3 km/h (3 Bft) 100,00 %
09.02.2016 06:49 6,9 C 85 % 1008,2 hPa 0,0 l/m 14,1 km/h (3 Bft) S-SW 194 0 min 0,000 mm 0,0 UV-I 0 W/m 4,6 C 1,8 C 17,7 km/h (3 Bft) 100,00 %
09.02.2016 06:50 6,9 C 85 % 1008,2 hPa 0,0 l/m 13,7 km/h (3 Bft) S-SW 208 0 min 0,000 mm 0,0 UV-I 0 W/m 4,6 C 2,0 C 19,3 km/h (3 Bft) 96,30 %
09.02.2016 06:51 6,8 C 85 % 1008,2 hPa 0,0 l/m 12,8 km/h (3 Bft) SW 226 0 min 0,000 mm 0,0 UV-I 0 W/m 4,5 C 2,4 C 19,3 km/h (3 Bft) 100,00 %
09.02.2016 06:52 6,8 C 85 % 1008,2 hPa 0,0 l/m 14,1 km/h (3 Bft) S-SW 213 0 min 0,000 mm 0,0 UV-I 0 W/m 4,5 C 1,7 C 19,3 km/h (3 Bft) 100,00 %
09.02.2016 06:53 6,8 C 85 % 1008,3 hPa 0,0 l/m 13,9 km/h (3 Bft) S-SW 209 0 min 0,000 mm 0,0 UV-I 0 W/m 4,5 C 1,8 C 19,3 km/h (3 Bft) 100,00 %
09.02.2016 06:54 6,8 C 85 % 1008,3 hPa 0,0 l/m 12,5 km/h (3 Bft) S 186 0 min 0,000 mm 0,0 UV-I 0 W/m 4,5 C 2,5 C 16,1 km/h (3 Bft) 95,83 %
09.02.2016 06:55 6,8 C 85 % 1008,4 hPa 0,0 l/m 12,0 km/h (2 Bft) S 173 0 min 0,000 mm 0,0 UV-I 0 W/m 4,5 C 2,8 C 14,5 km/h (3 Bft) 100,00 %
09.02.2016 06:56 6,7 C 85 % 1008,4 hPa 0,0 l/m 11,0 km/h (2 Bft) S 184 0 min 0,000 mm 0,0 UV-I 0 W/m 4,4 C 3,3 C 19,3 km/h (3 Bft) 100,00 %
09.02.2016 06:57 6,7 C 85 % 1008,5 hPa 0,0 l/m 8,4 km/h (2 Bft) S 187 0 min 0,000 mm 0,0 UV-I 0 W/m 4,4 C 5,1 C 12,9 km/h (3 Bft) 100,00 %
09.02.2016 06:58 6,7 C 85 % 1008,5 hPa 0,0 l/m 8,0 km/h (2 Bft) S 188 0 min 0,000 mm 0,0 UV-I 0 W/m 4,4 C 5,4 C 12,9 km/h (3 Bft) 100,00 %
09.02.2016 06:59 6,7 C 86 % 1008,5 hPa 0,0 l/m 9,1 km/h (2 Bft) S-SO 160 0 min 0,000 mm 0,0 UV-I 0 W/m 4,5 C 4,6 C 16,1 km/h (3 Bft) 100,00 %
09.02.2016 07:00 6,7 C 86 % 1008,4 hPa 0,0 l/m 5,7 km/h (1 Bft) S-SO 166 0 min 0,026 mm 0,0 UV-I 0 W/m 4,5 C 6,7 C 9,7 km/h (2 Bft) 100,00 %
09.02.2016 07:01 6,7 C 86 % 1008,5 hPa 0,0 l/m 4,0 km/h (1 Bft) S-SO 162 0 min 0,000 mm 0,0 UV-I 0 W/m 4,5 C 6,7 C 8,0 km/h (2 Bft) 100,00 %
09.02.2016 07:02 6,7 C 86 % 1008,5 hPa 0,0 l/m 3,6 km/h (1 Bft) S 170 0 min 0,000 mm 0,0 UV-I 0 W/m 4,5 C 6,7 C 6,4 km/h (2 Bft) 100,00 %
09.02.2016 07:03 6,6 C 86 % 1008,4 hPa 0,0 l/m 5,1 km/h (1 Bft) S 180 0 min 0,000 mm 0,0 UV-I 0 W/m 4,4 C 6,6 C 8,0 km/h (2 Bft) 96,30 %
09.02.2016 07:04 6,6 C 86 % 1008,4 hPa 0,0 l/m 4,0 km/h (1 Bft) S-SO 167 0 min 0,000 mm 0,0 UV-I 0 W/m 4,4 C 6,6 C 8,0 km/h (2 Bft) 100,00 %
09.02.2016 07:05 6,6 C 87 % 1008,4 hPa 0,0 l/m 4,1 km/h (1 Bft) SO 146 0 min 0,000 mm 0,0 UV-I 0 W/m 4,6 C 6,6 C 9,7 km/h (2 Bft) 100,00 %
09.02.2016 07:06 6,5 C 87 % 1008,4 hPa 0,0 l/m 4,7 km/h (1 Bft) S-SO 156 0 min 0,000 mm 0,0 UV-I 0 W/m 4,5 C 6,5 C 8,0 km/h (2 Bft) 100,00 %
09.02.2016 07:07 6,5 C 87 % 1008,4 hPa 0,0 l/m 3,4 km/h (1 Bft) S-SO 161 0 min 0,000 mm 0,0 UV-I 0 W/m 4,5 C 6,5 C 6,4 km/h (2 Bft) 100,00 %
09.02.2016 07:08 6,4 C 87 % 1008,4 hPa 0,0 l/m 5,9 km/h (2 Bft) S-SO 161 0 min 0,000 mm 0,0 UV-I 0 W/m 4,4 C 6,4 C 8,0 km/h (2 Bft) 100,00 %
09.02.2016 07:09 6,4 C 87 % 1008,4 hPa 0,0 l/m 4,6 km/h (1 Bft) S-SO 163 0 min 0,000 mm 0,0 UV-I 0 W/m 4,4 C 6,4 C 9,7 km/h (2 Bft) 100,00 %
09.02.2016 07:10 6,4 C 88 % 1008,4 hPa 0,0 l/m 4,0 km/h (1 Bft) S-SO 149 0 min 0,000 mm 0,0 UV-I 0 W/m 4,6 C 6,4 C 8,0 km/h (2 Bft) 100,00 %
09.02.2016 07:11 6,3 C 88 % 1008,4 hPa 0,0 l/m 3,8 km/h (1 Bft) S 188 0 min 0,000 mm 0,0 UV-I 0 W/m 4,5 C 6,3 C 6,4 km/h (2 Bft) 100,00 %
09.02.2016 07:12 6,3 C 88 % 1008,4 hPa 0,0 l/m 3,9 km/h (1 Bft) S-SO 161 0 min 0,000 mm 0,0 UV-I 0 W/m 4,5 C 6,3 C 11,3 km/h (2 Bft) 100,00 %
09.02.2016 07:13 6,3 C 88 % 1008,3 hPa 0,0 l/m 3,6 km/h (1 Bft) S-SO 168 0 min 0,000 mm 0,0 UV-I 0 W/m 4,5 C 6,3 C 6,4 km/h (2 Bft) 100,00 %
09.02.2016 07:14 6,3 C 88 % 1008,4 hPa 0,0 l/m 4,5 km/h (1 Bft) S 169 0 min 0,000 mm 0,0 UV-I 0 W/m 4,5 C 6,3 C 6,4 km/h (2 Bft) 100,00 %
09.02.2016 07:15 6,3 C 88 % 1008,4 hPa 0,0 l/m 4,3 km/h (1 Bft) S-SO 154 0 min 0,000 mm 0,0 UV-I 0 W/m 4,5 C 6,3 C 6,4 km/h (2 Bft) 100,00 %
09.02.2016 07:16 6,2 C 88 % 1008,4 hPa 0,0 l/m 4,6 km/h (1 Bft) S 172 0 min 0,000 mm 0,0 UV-I 0 W/m 4,4 C 6,2 C 8,0 km/h (2 Bft) 100,00 %
09.02.2016 07:17 6,2 C 88 % 1008,4 hPa 0,0 l/m 4,0 km/h (1 Bft) S-SO 168 0 min 0,000 mm 0,0 UV-I 0 W/m 4,4 C 6,2 C 6,4 km/h (2 Bft) 100,00 %
09.02.2016 07:18 6,2 C 88 % 1008,4 hPa 0,0 l/m 3,1 km/h (1 Bft) S-SO 155 0 min 0,000 mm 0,0 UV-I 0 W/m 4,4 C 6,2 C 6,4 km/h (2 Bft) 96,15 %
09.02.2016 07:19 6,2 C 89 % 1008,4 hPa 0,0 l/m 4,7 km/h (1 Bft) S-SO 157 0 min 0,000 mm 0,0 UV-I 0 W/m 4,5 C 6,2 C 8,0 km/h (2 Bft) 100,00 %
09.02.2016 07:20 6,2 C 89 % 1008,4 hPa 0,0 l/m 6,2 km/h (2 Bft) S-SO 161 0 min 0,000 mm 0,0 UV-I 0 W/m 4,5 C 6,2 C 9,7 km/h (2 Bft) 100,00 %
09.02.2016 07:21 6,2 C 89 % 1008,4 hPa 0,0 l/m 2,7 km/h (1 Bft) S-SO 159 0 min 0,000 mm 0,0 UV-I 0 W/m 4,5 C 6,2 C 4,8 km/h (1 Bft) 100,00 %
09.02.2016 07:22 6,2 C 89 % 1008,3 hPa 0,0 l/m 3,9 km/h (1 Bft) S-SO 149 0 min 0,000 mm 0,0 UV-I 0 W/m 4,5 C 6,2 C 8,0 km/h (2 Bft) 100,00 %
09.02.2016 07:23 6,2 C 89 % 1008,3 hPa 0,0 l/m 5,4 km/h (1 Bft) S-SO 157 0 min 0,000 mm 0,0 UV-I 0 W/m 4,5 C 6,2 C 9,7 km/h (2 Bft) 100,00 %
09.02.2016 07:24 6,2 C 89 % 1008,3 hPa 0,0 l/m 4,8 km/h (1 Bft) S 171 0 min 0,000 mm 0,0 UV-I 4 W/m 4,5 C 6,2 C 8,0 km/h (2 Bft) 100,00 %
09.02.2016 07:25 6,1 C 89 % 1008,3 hPa 0,0 l/m 3,7 km/h (1 Bft) S-SO 162 0 min 0,000 mm 0,0 UV-I 5 W/m 4,4 C 6,1 C 6,4 km/h (2 Bft) 95,65 %
09.02.2016 07:26 6,1 C 89 % 1008,3 hPa 0,0 l/m 4,0 km/h (1 Bft) S-SO 166 0 min 0,000 mm 0,0 UV-I 7 W/m 4,4 C 6,1 C 6,4 km/h (2 Bft) 100,00 %
09.02.2016 07:27 6,2 C 89 % 1008,3 hPa 0,0 l/m 4,1 km/h (1 Bft) S-SO 165 0 min 0,000 mm 0,0 UV-I 8 W/m 4,5 C 6,2 C 8,0 km/h (2 Bft) 100,00 %
09.02.2016 07:28 6,1 C 89 % 1008,3 hPa 0,0 l/m 5,1 km/h (1 Bft) S-SO 165 0 min 0,000 mm 0,0 UV-I 9 W/m 4,4 C 6,1 C 8,0 km/h (2 Bft) 100,00 %
09.02.2016 07:29 6,1 C 89 % 1008,2 hPa 0,0 l/m 4,1 km/h (1 Bft) S-SO 151 0 min 0,000 mm 0,0 UV-I 9 W/m 4,4 C 6,1 C 8,0 km/h (2 Bft) 100,00 %
09.02.2016 07:30 6,1 C 89 % 1008,3 hPa 0,0 l/m 3,9 km/h (1 Bft) S 169 0 min 0,000 mm 0,0 UV-I 11 W/m 4,4 C 6,1 C 8,0 km/h (2 Bft) 100,00 %
09.02.2016 07:31 6,1 C 89 % 1008,2 hPa 0,0 l/m 4,0 km/h (1 Bft) S-SO 158 0 min 0,000 mm 0,0 UV-I 11 W/m 4,4 C 6,1 C 6,4 km/h (2 Bft) 100,00 %
09.02.2016 07:32 6,1 C 89 % 1008,1 hPa 0,0 l/m 4,2 km/h (1 Bft) S-SO 150 1 min 0,000 mm 0,0 UV-I 13 W/m 4,4 C 6,1 C 8,0 km/h (2 Bft) 100,00 %
09.02.2016 07:33 6,1 C 89 % 1008,2 hPa 0,0 l/m 3,7 km/h (1 Bft) S-SO 153 1 min 0,000 mm 0,0 UV-I 15 W/m 4,4 C 6,1 C 6,4 km/h (2 Bft) 100,00 %
09.02.2016 07:34 6,1 C 89 % 1008,2 hPa 0,0 l/m 3,9 km/h (1 Bft) S-SO 165 1 min 0,000 mm 0,0 UV-I 17 W/m 4,4 C 6,1 C 6,4 km/h (2 Bft) 100,00 %
09.02.2016 07:35 6,1 C 89 % 1008,2 hPa 0,0 l/m 4,3 km/h (1 Bft) S 171 1 min 0,000 mm 0,0 UV-I 19 W/m 4,4 C 6,1 C 6,4 km/h (2 Bft) 100,00 %
09.02.2016 07:36 6,1 C 89 % 1008,2 hPa 0,0 l/m 3,5 km/h (1 Bft) S 175 1 min 0,000 mm 0,0 UV-I 21 W/m 4,4 C 6,1 C 6,4 km/h (2 Bft) 100,00 %
09.02.2016 07:37 6,1 C 89 % 1008,2 hPa 0,0 l/m 4,4 km/h (1 Bft) SO 144 1 min 0,000 mm 0,0 UV-I 23 W/m 4,4 C 6,1 C 9,7 km/h (2 Bft) 100,00 %
09.02.2016 07:38 6,1 C 89 % 1008,1 hPa 0,0 l/m 6,3 km/h (2 Bft) S-SO 161 1 min 0,000 mm 0,0 UV-I 25 W/m 4,4 C 6,1 C 11,3 km/h (2 Bft) 95,83 %
09.02.2016 07:39 6,1 C 89 % 1008,1 hPa 0,0 l/m 4,9 km/h (1 Bft) S-SO 150 1 min 0,000 mm 0,0 UV-I 26 W/m 4,4 C 6,1 C 8,0 km/h (2 Bft) 100,00 %
09.02.2016 07:40 6,1 C 89 % 1008,1 hPa 0,0 l/m 6,0 km/h (2 Bft) S-SO 149 1 min 0,000 mm 0,0 UV-I 28 W/m 4,4 C 6,1 C 11,3 km/h (2 Bft) 100,00 %
09.02.2016 07:41 6,1 C 89 % 1008,0 hPa 0,0 l/m 7,0 km/h (2 Bft) S-SO 159 1 min 0,000 mm 0,0 UV-I 28 W/m 4,4 C 5,6 C 11,3 km/h (2 Bft) 100,00 %
09.02.2016 07:42 6,1 C 89 % 1008,0 hPa 0,0 l/m 6,6 km/h (2 Bft) SO 141 1 min 0,000 mm 0,0 UV-I 28 W/m 4,4 C 6,0 C 12,9 km/h (3 Bft) 100,00 %
09.02.2016 07:43 6,1 C 89 % 1008,1 hPa 0,0 l/m 4,5 km/h (1 Bft) S-SO 167 1 min 0,000 mm 0,0 UV-I 28 W/m 4,4 C 6,1 C 9,7 km/h (2 Bft) 100,00 %
09.02.2016 07:44 6,1 C 89 % 1008,1 hPa 0,0 l/m 4,3 km/h (1 Bft) S-SO 155 1 min 0,000 mm 0,0 UV-I 31 W/m 4,4 C 6,1 C 11,3 km/h (2 Bft) 100,00 %
09.02.2016 07:45 6,1 C 89 % 1008,1 hPa 0,0 l/m 3,5 km/h (1 Bft) S-SO 165 1 min 0,000 mm 0,0 UV-I 32 W/m 4,4 C 6,1 C 4,8 km/h (1 Bft) 100,00 %
09.02.2016 07:46 6,1 C 89 % 1008,1 hPa 0,0 l/m 2,9 km/h (1 Bft) S-SO 164 1 min 0,000 mm 0,0 UV-I 33 W/m 4,4 C 6,1 C 6,4 km/h (2 Bft) 100,00 %
09.02.2016 07:47 6,1 C 89 % 1008,0 hPa 0,0 l/m 3,5 km/h (1 Bft) SO 138 1 min 0,000 mm 0,0 UV-I 33 W/m 4,4 C 6,1 C 8,0 km/h (2 Bft) 100,00 %
09.02.2016 07:48 6,1 C 89 % 1008,0 hPa 0,0 l/m 4,1 km/h (1 Bft) S-SO 151 1 min 0,000 mm 0,0 UV-I 32 W/m 4,4 C 6,1 C 6,4 km/h (2 Bft) 100,00 %
09.02.2016 07:49 6,1 C 89 % 1007,9 hPa 0,0 l/m 4,3 km/h (1 Bft) SO 126 0 min 0,000 mm 0,0 UV-I 30 W/m 4,4 C 6,1 C 8,0 km/h (2 Bft) 100,00 %
09.02.2016 07:50 6,0 C 89 % 1007,9 hPa 0,0 l/m 5,0 km/h (1 Bft) S-SO 159 0 min 0,000 mm 0,0 UV-I 30 W/m 4,3 C 6,0 C 8,0 km/h (2 Bft) 100,00 %
09.02.2016 07:51 6,0 C 89 % 1007,9 hPa 0,0 l/m 5,2 km/h (1 Bft) SO 141 0 min 0,000 mm 0,0 UV-I 30 W/m 4,3 C 6,0 C 11,3 km/h (2 Bft) 100,00 %
09.02.2016 07:52 5,9 C 89 % 1007,9 hPa 0,0 l/m 4,8 km/h (1 Bft) S 184 0 min 0,000 mm 0,0 UV-I 30 W/m 4,2 C 5,9 C 9,7 km/h (2 Bft) 95,65 %
09.02.2016 07:53 5,9 C 89 % 1008,0 hPa 0,0 l/m 6,1 km/h (2 Bft) S-SO 155 0 min 0,000 mm 0,0 UV-I 30 W/m 4,2 C 5,9 C 9,7 km/h (2 Bft) 95,83 %
09.02.2016 07:54 5,9 C 90 % 1007,9 hPa 0,0 l/m 4,8 km/h (1 Bft) S 178 0 min 0,000 mm 0,0 UV-I 30 W/m 4,4 C 5,9 C 6,4 km/h (2 Bft) 100,00 %
09.02.2016 07:55 5,9 C 90 % 1008,0 hPa 0,0 l/m 7,8 km/h (2 Bft) S 182 0 min 0,000 mm 0,0 UV-I 32 W/m 4,4 C 4,7 C 14,5 km/h (3 Bft) 91,67 %
09.02.2016 07:56 5,9 C 90 % 1008,0 hPa 0,0 l/m 8,9 km/h (2 Bft) S-SO 153 0 min 0,000 mm 0,0 UV-I 32 W/m 4,4 C 3,9 C 14,5 km/h (3 Bft) 100,00 %
09.02.2016 07:57 5,9 C 89 % 1008,0 hPa 0,0 l/m 5,8 km/h (2 Bft) S-SO 163 0 min 0,000 mm 0,0 UV-I 34 W/m 4,2 C 5,9 C 9,7 km/h (2 Bft) 91,67 %
09.02.2016 07:58 6,0 C 89 % 1007,9 hPa 0,0 l/m 4,8 km/h (1 Bft) S 173 0 min 0,000 mm 0,0 UV-I 38 W/m 4,3 C 6,0 C 9,7 km/h (2 Bft) 100,00 %
09.02.2016 07:59 6,1 C 89 % 1007,9 hPa 0,0 l/m 5,6 km/h (1 Bft) S-SO 147 0 min 0,000 mm 0,0 UV-I 42 W/m 4,4 C 6,1 C 11,3 km/h (2 Bft) 95,65 %
09.02.2016 08:00 6,2 C 89 % 1007,9 hPa 0,0 l/m 6,3 km/h (2 Bft) SO 144 0 min 0,000 mm 0,0 UV-I 46 W/m 4,5 C 6,2 C 12,9 km/h (3 Bft) 95,83 %
09.02.2016 08:01 6,3 C 88 % 1007,8 hPa 0,0 l/m 6,5 km/h (2 Bft) S-SO 162 0 min 0,025 mm 0,0 UV-I 49 W/m 4,5 C 6,2 C 11,3 km/h (2 Bft) 95,65 %
09.02.2016 08:02 6,4 C 88 % 1007,8 hPa 0,0 l/m 6,6 km/h (2 Bft) SO 144 0 min 0,000 mm 0,0 UV-I 50 W/m 4,6 C 6,3 C 12,9 km/h (3 Bft) 95,83 %
09.02.2016 08:03 6,6 C 87 % 1007,9 hPa 0,0 l/m 7,5 km/h (2 Bft) S 177 0 min 0,000 mm 0,0 UV-I 51 W/m 4,6 C 5,7 C 11,3 km/h (2 Bft) 100,00 %
09.02.2016 08:04 6,8 C 86 % 1007,8 hPa 0,0 l/m 5,6 km/h (1 Bft) S-SO 162 0 min 0,000 mm 0,0 UV-I 52 W/m 4,6 C 6,8 C 8,0 km/h (2 Bft) 95,83 %
09.02.2016 08:05 6,8 C 86 % 1007,8 hPa 0,0 l/m 7,8 km/h (2 Bft) S-SO 163 0 min 0,000 mm 0,0 UV-I 54 W/m 4,6 C 5,6 C 12,9 km/h (3 Bft) 100,00 %
09.02.2016 08:06 6,9 C 85 % 1007,8 hPa 0,0 l/m 6,0 km/h (2 Bft) S-SO 163 0 min 0,000 mm 0,0 UV-I 54 W/m 4,6 C 6,9 C 9,7 km/h (2 Bft) 95,83 %
09.02.2016 08:07 7,1 C 85 % 1007,7 hPa 0,0 l/m 6,6 km/h (2 Bft) S 169 0 min 0,000 mm 0,0 UV-I 56 W/m 4,8 C 7,0 C 14,5 km/h (3 Bft) 96,15 %
09.02.2016 08:08 7,2 C 85 % 1007,7 hPa 0,0 l/m 7,4 km/h (2 Bft) S 171 0 min 0,000 mm 0,0 UV-I 57 W/m 4,9 C 6,4 C 14,5 km/h (3 Bft) 100,00 %
09.02.2016 08:09 7,2 C 84 % 1007,7 hPa 0,0 l/m 7,5 km/h (2 Bft) S-SO 161 0 min 0,000 mm 0,0 UV-I 58 W/m 4,7 C 6,3 C 9,7 km/h (2 Bft) 95,65 %
09.02.2016 08:10 7,3 C 84 % 1007,7 hPa 0,0 l/m 6,2 km/h (2 Bft) S-SO 156 0 min 0,000 mm 0,0 UV-I 55 W/m 4,8 C 7,3 C 9,7 km/h (2 Bft) 95,83 %
09.02.2016 08:11 7,3 C 84 % 1007,7 hPa 0,0 l/m 5,8 km/h (2 Bft) S-SO 159 0 min 0,000 mm 0,0 UV-I 54 W/m 4,8 C 7,3 C 9,7 km/h (2 Bft) 92,31 %
09.02.2016 08:12 7,3 C 83 % 1007,7 hPa 0,0 l/m 6,0 km/h (2 Bft) S 172 0 min 0,000 mm 0,0 UV-I 54 W/m 4,6 C 7,3 C 11,3 km/h (2 Bft) 100,00 %
09.02.2016 08:13 7,4 C 83 % 1007,7 hPa 0,0 l/m 6,2 km/h (2 Bft) S-SO 155 0 min 0,000 mm 0,0 UV-I 56 W/m 4,7 C 7,4 C 11,3 km/h (2 Bft) 91,30 %
09.02.2016 08:14 7,4 C 83 % 1007,7 hPa 0,0 l/m 5,9 km/h (2 Bft) S-SO 155 0 min 0,000 mm 0,0 UV-I 55 W/m 4,7 C 7,4 C 11,3 km/h (2 Bft) 95,83 %
09.02.2016 08:15 7,4 C 83 % 1007,7 hPa 0,0 l/m 6,8 km/h (2 Bft) S-SO 165 0 min 0,000 mm 0,0 UV-I 45 W/m 4,7 C 7,1 C 11,3 km/h (2 Bft) 100,00 %
09.02.2016 08:16 7,4 C 83 % 1007,7 hPa 0,0 l/m 5,4 km/h (1 Bft) S-SO 168 0 min 0,000 mm 0,0 UV-I 40 W/m 4,7 C 7,4 C 9,7 km/h (2 Bft) 95,83 %
09.02.2016 08:17 7,4 C 83 % 1007,7 hPa 0,0 l/m 6,2 km/h (2 Bft) S 171 0 min 0,000 mm 0,0 UV-I 39 W/m 4,7 C 7,4 C 8,0 km/h (2 Bft) 100,00 %
09.02.2016 08:18 7,4 C 83 % 1007,7 hPa 0,0 l/m 5,7 km/h (1 Bft) S 171 0 min 0,000 mm 0,0 UV-I 47 W/m 4,7 C 7,4 C 11,3 km/h (2 Bft) 91,67 %
09.02.2016 08:19 7,4 C 83 % 1007,7 hPa 0,0 l/m 6,4 km/h (2 Bft) S-SO 167 0 min 0,000 mm 0,0 UV-I 50 W/m 4,7 C 7,4 C 9,7 km/h (2 Bft) 95,65 %
09.02.2016 08:20 7,4 C 82 % 1007,7 hPa 0,0 l/m 6,2 km/h (2 Bft) S-SO 168 0 min 0,000 mm 0,0 UV-I 48 W/m 4,5 C 7,4 C 8,0 km/h (2 Bft) 95,83 %
09.02.2016 08:21 7,4 C 82 % 1007,6 hPa 0,0 l/m 4,2 km/h (1 Bft) SO 142 0 min 0,000 mm 0,0 UV-I 38 W/m 4,5 C 7,4 C 8,0 km/h (2 Bft) 100,00 %
09.02.2016 08:22 7,4 C 82 % 1007,6 hPa 0,0 l/m 5,4 km/h (1 Bft) S-SO 165 0 min 0,000 mm 0,0 UV-I 41 W/m 4,5 C 7,4 C 8,0 km/h (2 Bft) 95,83 %
09.02.2016 08:23 7,4 C 82 % 1007,6 hPa 0,0 l/m 5,4 km/h (1 Bft) S-SO 168 0 min 0,000 mm 0,0 UV-I 46 W/m 4,5 C 7,4 C 9,7 km/h (2 Bft) 93,33 %
09.02.2016 08:24 7,4 C 82 % 1007,6 hPa 0,0 l/m 5,2 km/h (1 Bft) S 173 0 min 0,000 mm 0,0 UV-I 37 W/m 4,5 C 7,4 C 9,7 km/h (2 Bft) 86,96 %
09.02.2016 08:25 7,4 C 82 % 1007,6 hPa 0,0 l/m 5,6 km/h (1 Bft) S 170 0 min 0,000 mm 0,0 UV-I 43 W/m 4,5 C 7,4 C 8,0 km/h (2 Bft) 95,83 %
09.02.2016 08:26 7,4 C 83 % 1007,6 hPa 0,0 l/m 3,9 km/h (1 Bft) SO 142 0 min 0,000 mm 0,0 UV-I 43 W/m 4,7 C 7,4 C 8,0 km/h (2 Bft) 100,00 %
09.02.2016 08:27 7,4 C 83 % 1007,5 hPa 0,0 l/m 5,0 km/h (1 Bft) S-SO 163 0 min 0,000 mm 0,0 UV-I 42 W/m 4,7 C 7,4 C 6,4 km/h (2 Bft) 95,83 %
09.02.2016 08:28 7,4 C 82 % 1007,5 hPa 0,0 l/m 5,7 km/h (1 Bft) S-SO 157 0 min 0,000 mm 0,0 UV-I 46 W/m 4,5 C 7,4 C 9,7 km/h (2 Bft) 95,65 %
09.02.2016 08:29 7,4 C 82 % 1007,4 hPa 0,0 l/m 5,2 km/h (1 Bft) SO 141 0 min 0,000 mm 0,0 UV-I 70 W/m 4,5 C 7,4 C 8,0 km/h (2 Bft) 100,00 %
09.02.2016 08:30 7,4 C 82 % 1007,3 hPa 0,0 l/m 5,7 km/h (1 Bft) S-SO 157 0 min 0,000 mm 0,0 UV-I 56 W/m 4,5 C 7,4 C 9,7 km/h (2 Bft) 95,65 %
09.02.2016 08:31 7,4 C 82 % 1007,3 hPa 0,0 l/m 5,8 km/h (2 Bft) S-SO 155 0 min 0,000 mm 0,0 UV-I 70 W/m 4,5 C 7,4 C 9,7 km/h (2 Bft) 95,83 %
09.02.2016 08:32 7,5 C 82 % 1007,3 hPa 0,0 l/m 5,2 km/h (1 Bft) S-SO 161 0 min 0,000 mm 0,0 UV-I 76 W/m 4,6 C 7,5 C 8,0 km/h (2 Bft) 100,00 %
09.02.2016 08:33 7,5 C 82 % 1007,3 hPa 0,0 l/m 4,0 km/h (1 Bft) S-SO 165 0 min 0,000 mm 0,0 UV-I 88 W/m 4,6 C 7,5 C 8,0 km/h (2 Bft) 100,00 %
09.02.2016 08:34 7,6 C 81 % 1007,3 hPa 0,0 l/m 3,3 km/h (1 Bft) S-SO 163 1 min 0,000 mm 0,0 UV-I 103 W/m 4,6 C 7,6 C 6,4 km/h (2 Bft) 100,00 %
09.02.2016 08:35 7,7 C 81 % 1007,3 hPa 0,0 l/m 4,9 km/h (1 Bft) S-SO 161 1 min 0,000 mm 0,0 UV-I 104 W/m 4,7 C 7,7 C 9,7 km/h (2 Bft) 95,83 %
09.02.2016 08:36 7,7 C 81 % 1007,3 hPa 0,0 l/m 5,0 km/h (1 Bft) S 171 0 min 0,000 mm 0,0 UV-I 94 W/m 4,7 C 7,7 C 8,0 km/h (2 Bft) 95,65 %
09.02.2016 08:37 7,8 C 81 % 1007,3 hPa 0,0 l/m 2,3 km/h (1 Bft) S-SO 161 0 min 0,000 mm 0,0 UV-I 96 W/m 4,7 C 7,8 C 3,2 km/h (1 Bft) 100,00 %
09.02.2016 08:38 7,8 C 81 % 1007,3 hPa 0,0 l/m 3,3 km/h (1 Bft) S 172 1 min 0,000 mm 0,0 UV-I 111 W/m 4,7 C 7,8 C 6,4 km/h (2 Bft) 96,15 %
09.02.2016 08:39 7,8 C 81 % 1007,3 hPa 0,0 l/m 3,2 km/h (1 Bft) S 173 1 min 0,000 mm 0,0 UV-I 115 W/m 4,7 C 7,8 C 6,4 km/h (2 Bft) 100,00 %
09.02.2016 08:40 7,8 C 81 % 1007,3 hPa 0,0 l/m 2,1 km/h (1 Bft) S 171 1 min 0,000 mm 0,0 UV-I 119 W/m 4,7 C 7,8 C 3,2 km/h (1 Bft) 100,00 %
09.02.2016 08:41 7,9 C 81 % 1007,2 hPa 0,0 l/m 3,8 km/h (1 Bft) S-SO 161 1 min 0,000 mm 0,0 UV-I 115 W/m 4,8 C 7,9 C 8,0 km/h (2 Bft) 100,00 %
09.02.2016 08:42 7,9 C 81 % 1007,2 hPa 0,0 l/m 3,0 km/h (1 Bft) S-SO 148 1 min 0,000 mm 0,0 UV-I 126 W/m 4,8 C 7,9 C 4,8 km/h (1 Bft) 100,00 %
09.02.2016 08:43 7,9 C 82 % 1007,3 hPa 0,0 l/m 5,7 km/h (1 Bft) SO 144 1 min 0,000 mm 0,0 UV-I 132 W/m 5,0 C 7,9 C 11,3 km/h (2 Bft) 100,00 %
09.02.2016 08:44 7,9 C 82 % 1007,3 hPa 0,0 l/m 5,2 km/h (1 Bft) SO 138 1 min 0,000 mm 0,0 UV-I 138 W/m 5,0 C 7,9 C 9,7 km/h (2 Bft) 100,00 %
09.02.2016 08:45 7,8 C 82 % 1007,3 hPa 0,0 l/m 6,4 km/h (2 Bft) SO 146 1 min 0,000 mm 0,0 UV-I 143 W/m 4,9 C 7,8 C 9,7 km/h (2 Bft) 100,00 %
09.02.2016 08:46 7,8 C 82 % 1007,2 hPa 0,0 l/m 9,9 km/h (2 Bft) SO 136 1 min 0,000 mm 0,0 UV-I 148 W/m 4,9 C 5,2 C 14,5 km/h (3 Bft) 95,83 %
09.02.2016 08:47 7,9 C 82 % 1007,1 hPa 0,0 l/m 10,7 km/h (2 Bft) SO 133 1 min 0,000 mm 0,0 UV-I 155 W/m 5,0 C 4,8 C 14,5 km/h (3 Bft) 100,00 %
09.02.2016 08:48 7,9 C 82 % 1007,0 hPa 0,0 l/m 8,6 km/h (2 Bft) O-SO 117 1 min 0,000 mm 0,0 UV-I 159 W/m 5,0 C 6,2 C 12,9 km/h (3 Bft) 100,00 %
09.02.2016 08:49 7,8 C 82 % 1007,0 hPa 0,0 l/m 10,3 km/h (2 Bft) SO 128 1 min 0,000 mm 0,0 UV-I 163 W/m 4,9 C 5,0 C 14,5 km/h (3 Bft) 100,00 %
09.02.2016 08:50 7,9 C 81 % 1007,0 hPa 0,0 l/m 9,6 km/h (2 Bft) SO 146 1 min 0,000 mm 0,0 UV-I 166 W/m 4,8 C 5,5 C 14,5 km/h (3 Bft) 100,00 %
09.02.2016 08:51 7,9 C 81 % 1007,0 hPa 0,0 l/m 9,3 km/h (2 Bft) SO 136 1 min 0,000 mm 0,0 UV-I 170 W/m 4,8 C 5,7 C 14,5 km/h (3 Bft) 100,00 %
09.02.2016 08:52 7,9 C 81 % 1007,0 hPa 0,0 l/m 5,2 km/h (1 Bft) SO 132 1 min 0,000 mm 0,0 UV-I 172 W/m 4,8 C 7,9 C 12,9 km/h (3 Bft) 100,00 %
09.02.2016 08:53 7,9 C 81 % 1007,0 hPa 0,0 l/m 8,2 km/h (2 Bft) SO 128 1 min 0,000 mm 0,0 UV-I 175 W/m 4,8 C 6,5 C 12,9 km/h (3 Bft) 95,65 %
09.02.2016 08:54 7,9 C 82 % 1007,0 hPa 0,0 l/m 8,1 km/h (2 Bft) O-SO 120 1 min 0,000 mm 0,0 UV-I 179 W/m 5,0 C 6,6 C 12,9 km/h (3 Bft) 100,00 %
09.02.2016 08:55 7,9 C 82 % 1007,0 hPa 0,0 l/m 7,6 km/h (2 Bft) S-SO 161 1 min 0,000 mm 0,0 UV-I 183 W/m 5,0 C 7,0 C 11,3 km/h (2 Bft) 100,00 %
09.02.2016 08:56 7,9 C 81 % 1007,0 hPa 0,0 l/m 7,4 km/h (2 Bft) S-SO 150 1 min 0,000 mm 0,0 UV-I 187 W/m 4,8 C 7,1 C 11,3 km/h (2 Bft) 100,00 %
09.02.2016 08:57 7,9 C 81 % 1007,0 hPa 0,0 l/m 4,2 km/h (1 Bft) O-SO 117 1 min 0,000 mm 0,0 UV-I 192 W/m 4,8 C 7,9 C 6,4 km/h (2 Bft) 100,00 %
09.02.2016 08:58 7,9 C 82 % 1006,9 hPa 0,0 l/m 9,1 km/h (2 Bft) S-SO 153 1 min 0,000 mm 0,0 UV-I 192 W/m 5,0 C 5,9 C 14,5 km/h (3 Bft) 95,83 %
09.02.2016 08:59 8,0 C 81 % 1006,9 hPa 0,0 l/m 6,8 km/h (2 Bft) SO 142 1 min 0,000 mm 0,0 UV-I 175 W/m 4,9 C 7,7 C 11,3 km/h (2 Bft) 95,65 %
09.02.2016 09:00 8,0 C 81 % 1006,8 hPa 0,0 l/m 4,0 km/h (1 Bft) SO 134 1 min 0,051 mm 0,0 UV-I 172 W/m 4,9 C 8,0 C 6,4 km/h (2 Bft) 100,00 %
09.02.2016 09:01 8,0 C 82 % 1006,8 hPa 0,0 l/m 6,9 km/h (2 Bft) O-SO 116 1 min 0,000 mm 0,0 UV-I 152 W/m 5,1 C 7,6 C 11,3 km/h (2 Bft) 91,67 %
09.02.2016 09:02 8,0 C 82 % 1006,9 hPa 0,0 l/m 6,7 km/h (2 Bft) O-SO 121 1 min 0,000 mm 0,0 UV-I 183 W/m 5,1 C 7,8 C 9,7 km/h (2 Bft) 100,00 %
09.02.2016 09:03 8,1 C 82 % 1006,8 hPa 0,0 l/m 6,3 km/h (2 Bft) S-SO 155 1 min 0,000 mm 0,0 UV-I 174 W/m 5,2 C 8,1 C 9,7 km/h (2 Bft) 100,00 %
09.02.2016 09:04 8,1 C 81 % 1006,8 hPa 0,0 l/m 5,2 km/h (1 Bft) S-SO 168 1 min 0,000 mm 0,0 UV-I 146 W/m 5,0 C 8,1 C 9,7 km/h (2 Bft) 95,65 %
09.02.2016 09:05 8,1 C 82 % 1006,8 hPa 0,0 l/m 7,0 km/h (2 Bft) SO 136 1 min 0,000 mm 0,0 UV-I 157 W/m 5,2 C 7,6 C 11,3 km/h (2 Bft) 100,00 %
09.02.2016 09:06 8,1 C 82 % 1006,7 hPa 0,0 l/m 9,4 km/h (2 Bft) O-SO 109 0 min 0,000 mm 0,0 UV-I 123 W/m 5,2 C 5,9 C 12,9 km/h (3 Bft) 100,00 %
09.02.2016 09:07 8,1 C 82 % 1006,6 hPa 0,0 l/m 10,2 km/h (2 Bft) O-SO 112 0 min 0,000 mm 0,0 UV-I 112 W/m 5,2 C 5,4 C 14,5 km/h (3 Bft) 100,00 %
09.02.2016 09:08 8,0 C 82 % 1006,5 hPa 0,0 l/m 9,9 km/h (2 Bft) O 101 0 min 0,000 mm 0,0 UV-I 116 W/m 5,1 C 5,4 C 12,9 km/h (3 Bft) 100,00 %
09.02.2016 09:09 8,0 C 82 % 1006,5 hPa 0,0 l/m 8,9 km/h (2 Bft) O 97 0 min 0,000 mm 0,0 UV-I 105 W/m 5,1 C 6,1 C 12,9 km/h (3 Bft) 100,00 %
09.02.2016 09:10 7,9 C 82 % 1006,5 hPa 0,0 l/m 4,2 km/h (1 Bft) O 95 0 min 0,000 mm 0,0 UV-I 110 W/m 5,0 C 7,9 C 6,4 km/h (2 Bft) 100,00 %
09.02.2016 09:11 7,9 C 83 % 1006,6 hPa 0,0 l/m 1,3 km/h (1 Bft) O 95 0 min 0,000 mm 0,0 UV-I 125 W/m 5,2 C 7,9 C 3,2 km/h (1 Bft) 100,00 %
09.02.2016 09:12 7,9 C 83 % 1006,6 hPa 0,0 l/m 4,9 km/h (1 Bft) O 101 1 min 0,000 mm 0,0 UV-I 159 W/m 5,2 C 7,9 C 8,0 km/h (2 Bft) 100,00 %
09.02.2016 09:13 7,9 C 83 % 1006,6 hPa 0,0 l/m 6,1 km/h (2 Bft) O-SO 109 1 min 0,000 mm 0,0 UV-I 200 W/m 5,2 C 7,9 C 11,3 km/h (2 Bft) 100,00 %
09.02.2016 09:14 8,0 C 83 % 1006,5 hPa 0,0 l/m 7,4 km/h (2 Bft) O-SO 106 1 min 0,000 mm 0,0 UV-I 185 W/m 5,3 C 7,2 C 11,3 km/h (2 Bft) 100,00 %
09.02.2016 09:15 8,1 C 83 % 1006,5 hPa 0,0 l/m 7,1 km/h (2 Bft) O-SO 113 1 min 0,000 mm 0,0 UV-I 196 W/m 5,4 C 7,6 C 11,3 km/h (2 Bft) 100,00 %
09.02.2016 09:16 8,1 C 83 % 1006,4 hPa 0,0 l/m 8,6 km/h (2 Bft) O-NO 77 1 min 0,000 mm 0,0 UV-I 208 W/m 5,4 C 6,4 C 11,3 km/h (2 Bft) 100,00 %
09.02.2016 09:17 8,1 C 82 % 1006,4 hPa 0,0 l/m 7,6 km/h (2 Bft) O-SO 120 1 min 0,000 mm 0,0 UV-I 158 W/m 5,2 C 7,2 C 9,7 km/h (2 Bft) 100,00 %
09.02.2016 09:18 8,1 C 83 % 1006,4 hPa 0,0 l/m 5,8 km/h (2 Bft) SO 134 1 min 0,000 mm 0,0 UV-I 158 W/m 5,4 C 8,1 C 11,3 km/h (2 Bft) 100,00 %
09.02.2016 09:19 8,1 C 83 % 1006,5 hPa 0,0 l/m 4,5 km/h (1 Bft) SO 144 0 min 0,000 mm 0,0 UV-I 133 W/m 5,4 C 8,1 C 6,4 km/h (2 Bft) 100,00 %
09.02.2016 09:20 8,1 C 82 % 1006,6 hPa 0,0 l/m 2,9 km/h (1 Bft) SO 136 0 min 0,000 mm 0,0 UV-I 105 W/m 5,2 C 8,1 C 4,8 km/h (1 Bft) 100,00 %
09.02.2016 09:21 8,1 C 83 % 1006,6 hPa 0,0 l/m 1,5 km/h (1 Bft) SO 142 0 min 0,000 mm 0,0 UV-I 102 W/m 5,4 C 8,1 C 3,2 km/h (1 Bft) 95,65 %
09.02.2016 09:22 8,1 C 83 % 1006,6 hPa 0,0 l/m 0,8 km/h (0 Bft) SO 146 0 min 0,000 mm 0,0 UV-I 115 W/m 5,4 C 8,1 C 1,6 km/h (1 Bft) 95,83 %
09.02.2016 09:23 8,1 C 83 % 1006,5 hPa 0,0 l/m 1,5 km/h (1 Bft) SO 146 0 min 0,000 mm 0,0 UV-I 113 W/m 5,4 C 8,1 C 3,2 km/h (1 Bft) 96,15 %
09.02.2016 09:24 8,1 C 83 % 1006,5 hPa 0,0 l/m 5,8 km/h (2 Bft) O-SO 118 0 min 0,000 mm 0,0 UV-I 104 W/m 5,4 C 8,1 C 8,0 km/h (2 Bft) 100,00 %
09.02.2016 09:25 8,1 C 82 % 1006,4 hPa 0,0 l/m 7,4 km/h (2 Bft) O-SO 105 0 min 0,000 mm 0,0 UV-I 116 W/m 5,2 C 7,3 C 11,3 km/h (2 Bft) 100,00 %
09.02.2016 09:26 8,1 C 83 % 1006,4 hPa 0,0 l/m 6,6 km/h (2 Bft) O-SO 111 0 min 0,000 mm 0,0 UV-I 110 W/m 5,4 C 8,0 C 11,3 km/h (2 Bft) 100,00 %
09.02.2016 09:27 8,1 C 82 % 1006,3 hPa 0,0 l/m 11,1 km/h (2 Bft) O-SO 102 0 min 0,000 mm 0,0 UV-I 99 W/m 5,2 C 4,8 C 12,9 km/h (3 Bft) 95,65 %
09.02.2016 09:28 8,1 C 83 % 1006,3 hPa 0,0 l/m 10,6 km/h (2 Bft) O-SO 113 0 min 0,000 mm 0,0 UV-I 100 W/m 5,4 C 5,1 C 12,9 km/h (3 Bft) 100,00 %
09.02.2016 09:29 8,1 C 83 % 1006,2 hPa 0,0 l/m 5,9 km/h (2 Bft) SO 138 0 min 0,000 mm 0,0 UV-I 99 W/m 5,4 C 8,1 C 8,0 km/h (2 Bft) 100,00 %
09.02.2016 09:30 8,0 C 83 % 1006,2 hPa 0,0 l/m 8,8 km/h (2 Bft) SO 137 0 min 0,000 mm 0,0 UV-I 101 W/m 5,3 C 6,2 C 12,9 km/h (3 Bft) 92,86 %
09.02.2016 09:31 8,0 C 83 % 1006,2 hPa 0,0 l/m 7,8 km/h (2 Bft) O-SO 121 0 min 0,000 mm 0,0 UV-I 104 W/m 5,3 C 6,9 C 11,3 km/h (2 Bft) 100,00 %
09.02.2016 09:32 8,0 C 83 % 1006,2 hPa 0,0 l/m 8,8 km/h (2 Bft) O-SO 113 0 min 0,000 mm 0,0 UV-I 108 W/m 5,3 C 6,2 C 12,9 km/h (3 Bft) 100,00 %
09.02.2016 09:33 7,9 C 83 % 1006,2 hPa 0,0 l/m 11,2 km/h (2 Bft) SO 140 0 min 0,000 mm 0,0 UV-I 112 W/m 5,2 C 4,5 C 14,5 km/h (3 Bft) 91,30 %
09.02.2016 09:34 7,9 C 83 % 1006,2 hPa 0,0 l/m 8,7 km/h (2 Bft) SO 126 0 min 0,000 mm 0,0 UV-I 114 W/m 5,2 C 6,1 C 11,3 km/h (2 Bft) 100,00 %
09.02.2016 09:35 7,9 C 84 % 1006,2 hPa 0,0 l/m 12,7 km/h (3 Bft) O-SO 116 0 min 0,000 mm 0,0 UV-I 119 W/m 5,4 C 3,7 C 16,1 km/h (3 Bft) 100,00 %
09.02.2016 09:36 7,9 C 84 % 1006,2 hPa 0,0 l/m 13,7 km/h (3 Bft) O-SO 117 0 min 0,000 mm 0,0 UV-I 130 W/m 5,4 C 3,2 C 16,1 km/h (3 Bft) 100,00 %
09.02.2016 09:37 7,9 C 83 % 1006,2 hPa 0,0 l/m 13,3 km/h (3 Bft) SO 131 0 min 0,000 mm 0,0 UV-I 133 W/m 5,2 C 3,4 C 16,1 km/h (3 Bft) 100,00 %
09.02.2016 09:38 7,9 C 84 % 1006,2 hPa 0,0 l/m 10,5 km/h (2 Bft) O-SO 123 0 min 0,000 mm 0,0 UV-I 128 W/m 5,4 C 5,0 C 14,5 km/h (3 Bft) 100,00 %
09.02.2016 09:39 7,9 C 83 % 1006,2 hPa 0,0 l/m 9,0 km/h (2 Bft) SO 127 0 min 0,000 mm 0,0 UV-I 154 W/m 5,2 C 5,9 C 14,5 km/h (3 Bft) 100,00 %
09.02.2016 09:40 7,9 C 83 % 1006,2 hPa 0,0 l/m 12,0 km/h (2 Bft) SO 128 0 min 0,000 mm 0,0 UV-I 152 W/m 5,2 C 4,1 C 14,5 km/h (3 Bft) 100,00 %
09.02.2016 09:41 7,9 C 84 % 1006,2 hPa 0,0 l/m 10,8 km/h (2 Bft) O-SO 121 0 min 0,000 mm 0,0 UV-I 161 W/m 5,4 C 4,8 C 14,5 km/h (3 Bft) 95,83 %
09.02.2016 09:42 8,0 C 84 % 1006,1 hPa 0,0 l/m 6,6 km/h (2 Bft) O-SO 107 0 min 0,000 mm 0,0 UV-I 139 W/m 5,5 C 7,9 C 9,7 km/h (2 Bft) 95,65 %
09.02.2016 09:43 8,0 C 83 % 1006,1 hPa 0,0 l/m 9,1 km/h (2 Bft) O-SO 113 0 min 0,000 mm 0,0 UV-I 126 W/m 5,3 C 6,0 C 11,3 km/h (2 Bft) 100,00 %
09.02.2016 09:44 8,0 C 83 % 1006,0 hPa 0,0 l/m 5,4 km/h (1 Bft) O-SO 118 0 min 0,000 mm 0,0 UV-I 127 W/m 5,3 C 8,0 C 9,7 km/h (2 Bft) 95,65 %
09.02.2016 09:45 8,0 C 83 % 1006,0 hPa 0,0 l/m 6,7 km/h (2 Bft) SO 126 0 min 0,000 mm 0,0 UV-I 139 W/m 5,3 C 7,8 C 9,7 km/h (2 Bft) 100,00 %
09.02.2016 09:46 8,0 C 83 % 1006,0 hPa 0,0 l/m 5,2 km/h (1 Bft) SO 139 0 min 0,000 mm 0,0 UV-I 126 W/m 5,3 C 8,0 C 8,0 km/h (2 Bft) 95,65 %
09.02.2016 09:47 8,1 C 83 % 1006,0 hPa 0,0 l/m 5,6 km/h (1 Bft) SO 137 0 min 0,000 mm 0,0 UV-I 120 W/m 5,4 C 8,1 C 9,7 km/h (2 Bft) 100,00 %
09.02.2016 09:48 8,1 C 83 % 1006,0 hPa 0,0 l/m 5,5 km/h (1 Bft) O-SO 118 0 min 0,000 mm 0,0 UV-I 124 W/m 5,4 C 8,1 C 6,4 km/h (2 Bft) 95,65 %
09.02.2016 09:49 8,1 C 83 % 1006,0 hPa 0,0 l/m 4,9 km/h (1 Bft) SO 142 0 min 0,000 mm 0,0 UV-I 132 W/m 5,4 C 8,1 C 6,4 km/h (2 Bft) 100,00 %
09.02.2016 09:50 8,1 C 82 % 1006,0 hPa 0,0 l/m 3,4 km/h (1 Bft) O 101 0 min 0,000 mm 0,0 UV-I 138 W/m 5,2 C 8,1 C 6,4 km/h (2 Bft) 95,65 %
09.02.2016 09:51 8,1 C 82 % 1006,0 hPa 0,0 l/m 5,0 km/h (1 Bft) O 85 0 min 0,000 mm 0,0 UV-I 141 W/m 5,2 C 8,1 C 8,0 km/h (2 Bft) 91,67 %
09.02.2016 09:52 8,1 C 82 % 1006,0 hPa 0,0 l/m 3,5 km/h (1 Bft) O-NO 77 0 min 0,000 mm 0,0 UV-I 160 W/m 5,2 C 8,1 C 4,8 km/h (1 Bft) 100,00 %
09.02.2016 09:53 8,1 C 82 % 1005,9 hPa 0,0 l/m 2,9 km/h (1 Bft) O-NO 71 0 min 0,000 mm 0,5 UV-I 175 W/m 5,2 C 8,1 C 4,8 km/h (1 Bft) 95,83 %
09.02.2016 09:54 8,2 C 83 % 1006,0 hPa 0,0 l/m 3,2 km/h (1 Bft) O-SO 107 1 min 0,000 mm 0,5 UV-I 191 W/m 5,5 C 8,2 C 4,8 km/h (1 Bft) 100,00 %
09.02.2016 09:55 8,2 C 82 % 1005,9 hPa 0,0 l/m 6,4 km/h (2 Bft) O 93 1 min 0,000 mm 0,5 UV-I 197 W/m 5,3 C 8,2 C 9,7 km/h (2 Bft) 95,83 %
09.02.2016 09:56 8,2 C 82 % 1005,9 hPa 0,0 l/m 4,6 km/h (1 Bft) O-NO 62 1 min 0,000 mm 0,5 UV-I 203 W/m 5,3 C 8,2 C 9,7 km/h (2 Bft) 95,65 %
09.02.2016 09:57 8,2 C 83 % 1005,9 hPa 0,0 l/m 5,4 km/h (1 Bft) O-NO 62 1 min 0,000 mm 0,5 UV-I 204 W/m 5,5 C 8,2 C 6,4 km/h (2 Bft) 95,83 %
09.02.2016 09:58 8,3 C 82 % 1005,7 hPa 0,0 l/m 6,8 km/h (2 Bft) O-NO 67 1 min 0,000 mm 0,5 UV-I 204 W/m 5,4 C 8,0 C 9,7 km/h (2 Bft) 95,65 %
09.02.2016 09:59 8,3 C 83 % 1005,7 hPa 0,0 l/m 5,7 km/h (1 Bft) O 82 1 min 0,000 mm 0,5 UV-I 198 W/m 5,6 C 8,3 C 8,0 km/h (2 Bft) 95,83 %
09.02.2016 10:00 8,3 C 83 % 1005,8 hPa 0,0 l/m 6,6 km/h (2 Bft) O 82 0 min 0,000 mm 0,5 UV-I 191 W/m 5,6 C 8,2 C 11,3 km/h (2 Bft) 95,83 %
09.02.2016 10:01 8,3 C 82 % 1005,7 hPa 0,0 l/m 5,2 km/h (1 Bft) O-NO 75 0 min 0,076 mm 0,5 UV-I 188 W/m 5,4 C 8,3 C 6,4 km/h (2 Bft) 100,00 %
09.02.2016 10:02 8,3 C 83 % 1005,7 hPa 0,0 l/m 6,6 km/h (2 Bft) NO 53 0 min 0,000 mm 0,5 UV-I 184 W/m 5,6 C 8,2 C 9,7 km/h (2 Bft) 95,83 %
09.02.2016 10:03 8,3 C 82 % 1005,6 hPa 0,0 l/m 8,6 km/h (2 Bft) O-NO 69 0 min 0,000 mm 0,6 UV-I 187 W/m 5,4 C 6,6 C 12,9 km/h (3 Bft) 100,00 %
09.02.2016 10:04 8,3 C 82 % 1005,6 hPa 0,0 l/m 7,3 km/h (2 Bft) O-NO 59 1 min 0,000 mm 0,6 UV-I 256 W/m 5,4 C 7,6 C 9,7 km/h (2 Bft) 96,30 %
09.02.2016 10:05 8,4 C 82 % 1005,6 hPa 0,0 l/m 7,5 km/h (2 Bft) O-NO 61 1 min 0,000 mm 0,7 UV-I 309 W/m 5,5 C 7,5 C 11,3 km/h (2 Bft) 95,65 %
09.02.2016 10:06 8,4 C 83 % 1005,6 hPa 0,0 l/m 4,1 km/h (1 Bft) O-NO 63 1 min 0,000 mm 0,7 UV-I 325 W/m 5,7 C 8,4 C 8,0 km/h (2 Bft) 100,00 %
09.02.2016 10:07 8,5 C 83 % 1005,6 hPa 0,0 l/m 7,0 km/h (2 Bft) O-NO 76 1 min 0,000 mm 0,7 UV-I 360 W/m 5,8 C 8,0 C 9,7 km/h (2 Bft) 95,65 %
09.02.2016 10:08 8,6 C 83 % 1005,5 hPa 0,0 l/m 6,5 km/h (2 Bft) O 84 1 min 0,000 mm 0,7 UV-I 352 W/m 5,9 C 8,5 C 8,0 km/h (2 Bft) 100,00 %
09.02.2016 10:09 8,7 C 83 % 1005,5 hPa 0,0 l/m 4,9 km/h (1 Bft) O-SO 103 1 min 0,000 mm 0,8 UV-I 421 W/m 6,0 C 8,7 C 6,4 km/h (2 Bft) 95,65 %
09.02.2016 10:10 8,7 C 82 % 1005,4 hPa 0,0 l/m 5,6 km/h (1 Bft) O-SO 113 1 min 0,000 mm 0,8 UV-I 400 W/m 5,8 C 8,7 C 9,7 km/h (2 Bft) 100,00 %
09.02.2016 10:11 8,8 C 82 % 1005,4 hPa 0,0 l/m 5,6 km/h (1 Bft) O-NO 65 1 min 0,000 mm 0,8 UV-I 392 W/m 5,9 C 8,8 C 9,7 km/h (2 Bft) 91,30 %
09.02.2016 10:12 8,8 C 82 % 1005,4 hPa 0,0 l/m 9,2 km/h (2 Bft) O-NO 71 1 min 0,000 mm 0,8 UV-I 378 W/m 5,9 C 6,8 C 12,9 km/h (3 Bft) 100,00 %
09.02.2016 10:13 8,9 C 81 % 1005,5 hPa 0,0 l/m 7,3 km/h (2 Bft) O-NO 65 1 min 0,000 mm 0,8 UV-I 368 W/m 5,8 C 8,2 C 9,7 km/h (2 Bft) 100,00 %
09.02.2016 10:14 8,9 C 82 % 1005,3 hPa 0,0 l/m 6,3 km/h (2 Bft) O-NO 62 1 min 0,000 mm 0,7 UV-I 351 W/m 6,0 C 8,9 C 8,0 km/h (2 Bft) 91,67 %
09.02.2016 10:15 9,1 C 82 % 1005,3 hPa 0,0 l/m 8,6 km/h (2 Bft) NO 56 1 min 0,000 mm 0,8 UV-I 355 W/m 6,2 C 7,5 C 14,5 km/h (3 Bft) 100,00 %
09.02.2016 10:16 9,1 C 81 % 1005,3 hPa 0,0 l/m 14,3 km/h (3 Bft) O 96 1 min 0,000 mm 0,8 UV-I 350 W/m 6,0 C 4,4 C 19,3 km/h (3 Bft) 100,00 %
09.02.2016 10:17 9,1 C 80 % 1005,3 hPa 0,0 l/m 9,9 km/h (2 Bft) O-NO 70 1 min 0,000 mm 0,8 UV-I 340 W/m 5,8 C 6,7 C 12,9 km/h (3 Bft) 100,00 %
09.02.2016 10:18 9,2 C 80 % 1005,2 hPa 0,0 l/m 9,1 km/h (2 Bft) O-NO 71 1 min 0,000 mm 0,8 UV-I 344 W/m 5,9 C 7,3 C 14,5 km/h (3 Bft) 100,00 %
09.02.2016 10:19 9,2 C 80 % 1005,2 hPa 0,0 l/m 11,5 km/h (2 Bft) O 89 1 min 0,000 mm 0,8 UV-I 332 W/m 5,9 C 5,9 C 17,7 km/h (3 Bft) 95,83 %
09.02.2016 10:20 9,2 C 82 % 1005,2 hPa 0,0 l/m 9,4 km/h (2 Bft) NO 55 1 min 0,000 mm 0,8 UV-I 328 W/m 6,3 C 7,1 C 11,3 km/h (2 Bft) 95,65 %
09.02.2016 10:21 9,2 C 80 % 1005,1 hPa 0,0 l/m 12,2 km/h (2 Bft) O-NO 67 1 min 0,000 mm 0,8 UV-I 349 W/m 5,9 C 5,5 C 17,7 km/h (3 Bft) 100,00 %
09.02.2016 10:22 9,2 C 80 % 1005,1 hPa 0,0 l/m 11,4 km/h (2 Bft) O-NO 71 1 min 0,000 mm 0,8 UV-I 362 W/m 5,9 C 5,9 C 14,5 km/h (3 Bft) 100,00 %
09.02.2016 10:23 9,2 C 80 % 1005,1 hPa 0,0 l/m 9,1 km/h (2 Bft) O-NO 57 1 min 0,000 mm 0,8 UV-I 350 W/m 5,9 C 7,3 C 11,3 km/h (2 Bft) 100,00 %
09.02.2016 10:24 9,2 C 80 % 1005,1 hPa 0,0 l/m 8,9 km/h (2 Bft) O-NO 70 1 min 0,000 mm 0,8 UV-I 330 W/m 5,9 C 7,4 C 12,9 km/h (3 Bft) 95,65 %
09.02.2016 10:25 9,3 C 81 % 1005,1 hPa 0,0 l/m 9,6 km/h (2 Bft) O-NO 78 1 min 0,000 mm 0,8 UV-I 354 W/m 6,2 C 7,1 C 14,5 km/h (3 Bft) 100,00 %
09.02.2016 10:26 9,3 C 81 % 1005,1 hPa 0,0 l/m 9,5 km/h (2 Bft) NO 42 1 min 0,000 mm 0,8 UV-I 330 W/m 6,2 C 7,1 C 14,5 km/h (3 Bft) 91,30 %
09.02.2016 10:27 9,4 C 80 % 1005,1 hPa 0,0 l/m 11,3 km/h (2 Bft) O-NO 61 1 min 0,000 mm 0,9 UV-I 402 W/m 6,1 C 6,2 C 16,1 km/h (3 Bft) 100,00 %
09.02.2016 10:28 9,4 C 80 % 1005,0 hPa 0,0 l/m 14,4 km/h (3 Bft) O-NO 73 1 min 0,000 mm 0,9 UV-I 407 W/m 6,1 C 4,7 C 17,7 km/h (3 Bft) 100,00 %
09.02.2016 10:29 9,4 C 80 % 1005,0 hPa 0,0 l/m 15,0 km/h (3 Bft) NO 52 1 min 0,000 mm 0,9 UV-I 406 W/m 6,1 C 4,4 C 19,3 km/h (3 Bft) 100,00 %
09.02.2016 10:30 9,4 C 80 % 1005,0 hPa 0,0 l/m 10,4 km/h (2 Bft) O-NO 60 1 min 0,000 mm 0,9 UV-I 411 W/m 6,1 C 6,7 C 14,5 km/h (3 Bft) 100,00 %
09.02.2016 10:31 9,4 C 79 % 1005,0 hPa 0,0 l/m 14,2 km/h (3 Bft) O-NO 63 1 min 0,000 mm 0,9 UV-I 427 W/m 5,9 C 4,8 C 19,3 km/h (3 Bft) 100,00 %
09.02.2016 10:32 9,4 C 79 % 1005,0 hPa 0,0 l/m 12,2 km/h (2 Bft) O-NO 65 1 min 0,000 mm 0,9 UV-I 427 W/m 5,9 C 5,7 C 16,1 km/h (3 Bft) 100,00 %
09.02.2016 10:33 9,4 C 79 % 1005,1 hPa 0,0 l/m 11,1 km/h (2 Bft) NO 49 1 min 0,000 mm 0,9 UV-I 403 W/m 5,9 C 6,3 C 17,7 km/h (3 Bft) 100,00 %
09.02.2016 10:34 9,4 C 80 % 1005,1 hPa 0,0 l/m 16,7 km/h (3 Bft) O-NO 71 1 min 0,000 mm 0,9 UV-I 398 W/m 6,1 C 3,7 C 22,5 km/h (4 Bft) 100,00 %
09.02.2016 10:35 9,4 C 79 % 1005,1 hPa 0,0 l/m 16,1 km/h (3 Bft) O-NO 76 1 min 0,000 mm 0,9 UV-I 421 W/m 5,9 C 3,9 C 19,3 km/h (3 Bft) 100,00 %
09.02.2016 10:36 9,4 C 79 % 1005,1 hPa 0,0 l/m 12,3 km/h (3 Bft) O-NO 59 1 min 0,000 mm 0,9 UV-I 385 W/m 5,9 C 5,7 C 16,1 km/h (3 Bft) 95,65 %
09.02.2016 10:37 9,4 C 80 % 1005,1 hPa 0,0 l/m 12,3 km/h (3 Bft) NO 51 1 min 0,000 mm 0,9 UV-I 385 W/m 6,1 C 5,7 C 17,7 km/h (3 Bft) 95,83 %
09.02.2016 10:38 9,5 C 79 % 1005,1 hPa 0,0 l/m 12,7 km/h (3 Bft) O-NO 57 1 min 0,000 mm 0,9 UV-I 435 W/m 6,0 C 5,6 C 16,1 km/h (3 Bft) 100,00 %
09.02.2016 10:39 9,5 C 78 % 1005,2 hPa 0,0 l/m 13,7 km/h (3 Bft) NO 51 1 min 0,000 mm 0,9 UV-I 422 W/m 5,9 C 5,1 C 16,1 km/h (3 Bft) 100,00 %
09.02.2016 10:40 9,6 C 79 % 1005,1 hPa 0,0 l/m 14,6 km/h (3 Bft) O-SO 109 1 min 0,000 mm 0,9 UV-I 397 W/m 6,1 C 4,8 C 17,7 km/h (3 Bft) 100,00 %
09.02.2016 10:41 9,6 C 79 % 1005,1 hPa 0,0 l/m 13,3 km/h (3 Bft) O-NO 76 1 min 0,000 mm 0,9 UV-I 374 W/m 6,1 C 5,4 C 16,1 km/h (3 Bft) 100,00 %
09.02.2016 10:42 9,6 C 80 % 1005,1 hPa 0,0 l/m 11,0 km/h (2 Bft) O 90 1 min 0,000 mm 0,8 UV-I 332 W/m 6,3 C 6,6 C 16,1 km/h (3 Bft) 100,00 %
09.02.2016 10:43 9,7 C 79 % 1005,1 hPa 0,0 l/m 13,4 km/h (3 Bft) O 80 1 min 0,000 mm 0,9 UV-I 317 W/m 6,2 C 5,5 C 17,7 km/h (3 Bft) 95,65 %
09.02.2016 10:44 9,7 C 78 % 1005,1 hPa 0,0 l/m 13,5 km/h (3 Bft) O 98 1 min 0,000 mm 0,8 UV-I 276 W/m 6,1 C 5,4 C 16,1 km/h (3 Bft) 100,00 %
09.02.2016 10:45 9,7 C 78 % 1005,1 hPa 0,0 l/m 7,6 km/h (2 Bft) O 92 1 min 0,000 mm 0,8 UV-I 308 W/m 6,1 C 8,8 C 12,9 km/h (3 Bft) 100,00 %
09.02.2016 10:46 9,6 C 79 % 1005,1 hPa 0,0 l/m 12,7 km/h (3 Bft) O-NO 73 1 min 0,000 mm 0,7 UV-I 247 W/m 6,1 C 5,7 C 17,7 km/h (3 Bft) 100,00 %
09.02.2016 10:47 9,6 C 78 % 1005,1 hPa 0,0 l/m 15,0 km/h (3 Bft) O 80 0 min 0,000 mm 0,7 UV-I 183 W/m 6,0 C 4,6 C 19,3 km/h (3 Bft) 100,00 %
09.02.2016 10:48 9,5 C 78 % 1005,0 hPa 0,0 l/m 11,1 km/h (2 Bft) O 83 0 min 0,000 mm 0,8 UV-I 222 W/m 5,9 C 6,4 C 17,7 km/h (3 Bft) 100,00 %
09.02.2016 10:49 9,5 C 79 % 1004,9 hPa 0,0 l/m 11,0 km/h (2 Bft) O 91 1 min 0,000 mm 0,8 UV-I 260 W/m 6,0 C 6,5 C 19,3 km/h (3 Bft) 100,00 %
09.02.2016 10:50 9,4 C 79 % 1004,9 hPa 0,0 l/m 12,4 km/h (3 Bft) O-NO 68 0 min 0,000 mm 0,8 UV-I 218 W/m 5,9 C 5,6 C 16,1 km/h (3 Bft) 100,00 %
09.02.2016 10:51 9,5 C 80 % 1004,9 hPa 0,0 l/m 13,8 km/h (3 Bft) NO 39 1 min 0,000 mm 0,8 UV-I 259 W/m 6,2 C 5,1 C 17,7 km/h (3 Bft) 100,00 %
09.02.2016 10:52 9,5 C 79 % 1004,9 hPa 0,0 l/m 13,1 km/h (3 Bft) O-NO 65 1 min 0,000 mm 0,8 UV-I 254 W/m 6,0 C 5,4 C 17,7 km/h (3 Bft) 100,00 %
09.02.2016 10:53 9,6 C 79 % 1004,9 hPa 0,0 l/m 12,8 km/h (3 Bft) O-NO 71 0 min 0,000 mm 0,8 UV-I 185 W/m 6,1 C 5,7 C 17,7 km/h (3 Bft) 100,00 %
09.02.2016 10:54 9,6 C 79 % 1004,9 hPa 0,0 l/m 12,5 km/h (3 Bft) NO 46 0 min 0,000 mm 0,8 UV-I 218 W/m 6,1 C 5,8 C 19,3 km/h (3 Bft) 100,00 %
09.02.2016 10:55 9,6 C 79 % 1004,9 hPa 0,0 l/m 10,2 km/h (2 Bft) O-NO 73 1 min 0,000 mm 0,9 UV-I 292 W/m 6,1 C 7,0 C 14,5 km/h (3 Bft) 100,00 %
09.02.2016 10:56 9,6 C 80 % 1004,8 hPa 0,0 l/m 12,2 km/h (2 Bft) O-NO 63 1 min 0,000 mm 0,9 UV-I 329 W/m 6,3 C 6,0 C 16,1 km/h (3 Bft) 100,00 %
09.02.2016 10:57 9,7 C 79 % 1004,8 hPa 0,0 l/m 13,9 km/h (3 Bft) O-NO 59 1 min 0,000 mm 0,9 UV-I 328 W/m 6,2 C 5,3 C 17,7 km/h (3 Bft) 100,00 %
09.02.2016 10:58 9,7 C 79 % 1004,7 hPa 0,0 l/m 11,5 km/h (2 Bft) O 83 1 min 0,000 mm 0,9 UV-I 330 W/m 6,2 C 6,4 C 14,5 km/h (3 Bft) 95,83 %
09.02.2016 10:59 9,7 C 78 % 1004,6 hPa 0,0 l/m 15,3 km/h (3 Bft) O 79 1 min 0,000 mm 0,9 UV-I 346 W/m 6,1 C 4,6 C 20,9 km/h (4 Bft) 100,00 %
09.02.2016 11:00 9,7 C 78 % 1004,6 hPa 0,0 l/m 15,7 km/h (3 Bft) NO 50 1 min 0,000 mm 1,0 UV-I 351 W/m 6,1 C 4,5 C 22,5 km/h (4 Bft) 97,14 %
09.02.2016 11:01 9,8 C 78 % 1004,5 hPa 0,0 l/m 14,6 km/h (3 Bft) O-NO 78 1 min 0,178 mm 1,0 UV-I 329 W/m 6,1 C 5,1 C 17,7 km/h (3 Bft) 100,00 %
09.02.2016 11:02 9,8 C 78 % 1004,5 hPa 0,0 l/m 12,2 km/h (2 Bft) NO 49 1 min 0,000 mm 1,0 UV-I 378 W/m 6,1 C 6,2 C 19,3 km/h (3 Bft) 95,65 %
09.02.2016 11:03 9,8 C 77 % 1004,5 hPa 0,0 l/m 17,8 km/h (3 Bft) O-NO 58 1 min 0,000 mm 1,0 UV-I 401 W/m 6,0 C 3,8 C 20,9 km/h (4 Bft) 100,00 %
09.02.2016 11:04 9,9 C 78 % 1004,5 hPa 0,0 l/m 11,7 km/h (2 Bft) O-NO 66 1 min 0,000 mm 1,0 UV-I 404 W/m 6,2 C 6,6 C 17,7 km/h (3 Bft) 95,65 %
09.02.2016 11:05 9,9 C 77 % 1004,5 hPa 0,0 l/m 11,9 km/h (2 Bft) O-NO 70 1 min 0,000 mm 1,0 UV-I 398 W/m 6,1 C 6,4 C 17,7 km/h (3 Bft) 100,00 %
09.02.2016 11:06 9,9 C 78 % 1004,5 hPa 0,0 l/m 12,2 km/h (2 Bft) O-NO 59 1 min 0,000 mm 1,0 UV-I 388 W/m 6,2 C 6,3 C 19,3 km/h (3 Bft) 100,00 %
09.02.2016 11:07 10,0 C 79 % 1004,5 hPa 0,0 l/m 13,2 km/h (3 Bft) O 83 1 min 0,000 mm 0,9 UV-I 374 W/m 6,5 C 5,9 C 19,3 km/h (3 Bft) 100,00 %
09.02.2016 11:08 10,0 C 78 % 1004,5 hPa 0,0 l/m 11,8 km/h (2 Bft) O-SO 102 0 min 0,000 mm 0,9 UV-I 232 W/m 6,3 C 6,6 C 16,1 km/h (3 Bft) 100,00 %
09.02.2016 11:09 10,0 C 79 % 1004,5 hPa 0,0 l/m 13,6 km/h (3 Bft) O-NO 66 1 min 0,000 mm 0,9 UV-I 291 W/m 6,5 C 5,7 C 19,3 km/h (3 Bft) 100,00 %
09.02.2016 11:10 10,0 C 76 % 1004,5 hPa 0,0 l/m 16,2 km/h (3 Bft) O 90 1 min 0,000 mm 1,0 UV-I 344 W/m 6,0 C 4,6 C 19,3 km/h (3 Bft) 100,00 %
09.02.2016 11:11 10,0 C 76 % 1004,5 hPa 0,0 l/m 14,3 km/h (3 Bft) NO 53 1 min 0,000 mm 1,0 UV-I 342 W/m 6,0 C 5,4 C 17,7 km/h (3 Bft) 100,00 %
09.02.2016 11:12 10,0 C 76 % 1004,5 hPa 0,0 l/m 14,6 km/h (3 Bft) O-NO 64 1 min 0,000 mm 1,0 UV-I 333 W/m 6,0 C 5,3 C 17,7 km/h (3 Bft) 95,65 %
09.02.2016 11:13 10,1 C 77 % 1004,5 hPa 0,0 l/m 12,9 km/h (3 Bft) NO 50 1 min 0,000 mm 1,0 UV-I 345 W/m 6,3 C 6,2 C 17,7 km/h (3 Bft) 95,83 %
09.02.2016 11:14 10,1 C 77 % 1004,4 hPa 0,0 l/m 15,6 km/h (3 Bft) O-NO 73 1 min 0,000 mm 1,0 UV-I 359 W/m 6,3 C 5,0 C 20,9 km/h (4 Bft) 100,00 %
09.02.2016 11:15 10,1 C 77 % 1004,4 hPa 0,0 l/m 16,0 km/h (3 Bft) O 93 1 min 0,000 mm 1,0 UV-I 378 W/m 6,3 C 4,8 C 20,9 km/h (4 Bft) 100,00 %
09.02.2016 11:16 10,1 C 76 % 1004,4 hPa 0,0 l/m 12,4 km/h (3 Bft) O-NO 67 1 min 0,000 mm 1,1 UV-I 399 W/m 6,1 C 6,4 C 17,7 km/h (3 Bft) 100,00 %
09.02.2016 11:17 10,2 C 77 % 1004,4 hPa 0,0 l/m 14,5 km/h (3 Bft) O-NO 59 1 min 0,000 mm 1,1 UV-I 377 W/m 6,4 C 5,6 C 17,7 km/h (3 Bft) 96,30 %
09.02.2016 11:18 10,2 C 77 % 1004,3 hPa 0,0 l/m 15,4 km/h (3 Bft) O-SO 105 1 min 0,000 mm 1,0 UV-I 382 W/m 6,4 C 5,2 C 19,3 km/h (3 Bft) 95,65 %
09.02.2016 11:19 10,3 C 75 % 1004,3 hPa 0,0 l/m 11,4 km/h (2 Bft) O-NO 61 1 min 0,000 mm 1,0 UV-I 372 W/m 6,1 C 7,2 C 16,1 km/h (3 Bft) 100,00 %
09.02.2016 11:20 10,3 C 76 % 1004,3 hPa 0,0 l/m 13,0 km/h (3 Bft) O-NO 57 1 min 0,000 mm 1,0 UV-I 339 W/m 6,3 C 6,4 C 17,7 km/h (3 Bft) 100,00 %
09.02.2016 11:21 10,3 C 76 % 1004,3 hPa 0,0 l/m 12,3 km/h (3 Bft) O-NO 66 1 min 0,000 mm 1,0 UV-I 340 W/m 6,3 C 6,7 C 20,9 km/h (4 Bft) 95,65 %
09.02.2016 11:22 10,3 C 75 % 1004,2 hPa 0,0 l/m 15,2 km/h (3 Bft) O-NO 69 1 min 0,000 mm 1,0 UV-I 313 W/m 6,1 C 5,4 C 22,5 km/h (4 Bft) 100,00 %
09.02.2016 11:23 10,3 C 74 % 1004,2 hPa 0,0 l/m 18,2 km/h (3 Bft) O-NO 65 0 min 0,000 mm 0,9 UV-I 237 W/m 5,9 C 4,3 C 22,5 km/h (4 Bft) 91,30 %
09.02.2016 11:24 10,3 C 74 % 1004,1 hPa 0,0 l/m 18,2 km/h (3 Bft) O-NO 71 0 min 0,000 mm 0,9 UV-I 204 W/m 5,9 C 4,3 C 22,5 km/h (4 Bft) 95,83 %
09.02.2016 11:25 10,3 C 74 % 1004,1 hPa 0,0 l/m 16,0 km/h (3 Bft) O-NO 74 1 min 0,000 mm 0,9 UV-I 256 W/m 5,9 C 5,1 C 20,9 km/h (4 Bft) 100,00 %
09.02.2016 11:26 10,3 C 74 % 1004,0 hPa 0,0 l/m 16,7 km/h (3 Bft) NO 55 1 min 0,000 mm 1,0 UV-I 307 W/m 5,9 C 4,8 C 20,9 km/h (4 Bft) 95,83 %
09.02.2016 11:27 10,3 C 74 % 1004,0 hPa 0,0 l/m 16,2 km/h (3 Bft) O-NO 68 1 min 0,000 mm 1,0 UV-I 324 W/m 5,9 C 5,0 C 20,9 km/h (4 Bft) 96,00 %
09.02.2016 11:28 10,3 C 75 % 1003,9 hPa 0,0 l/m 15,6 km/h (3 Bft) O-NO 65 1 min 0,000 mm 1,0 UV-I 340 W/m 6,1 C 5,3 C 19,3 km/h (3 Bft) 95,83 %
09.02.2016 11:29 10,4 C 75 % 1003,9 hPa 0,0 l/m 12,5 km/h (3 Bft) O-NO 71 1 min 0,000 mm 1,0 UV-I 334 W/m 6,2 C 6,7 C 17,7 km/h (3 Bft) 100,00 %
09.02.2016 11:30 10,4 C 75 % 1003,9 hPa 0,0 l/m 16,7 km/h (3 Bft) O-NO 65 1 min 0,000 mm 1,0 UV-I 325 W/m 6,2 C 4,9 C 20,9 km/h (4 Bft) 95,83 %
09.02.2016 11:31 10,4 C 74 % 1003,8 hPa 0,0 l/m 18,3 km/h (3 Bft) O-NO 75 1 min 0,000 mm 1,0 UV-I 347 W/m 6,0 C 4,4 C 24,1 km/h (4 Bft) 91,30 %
09.02.2016 11:32 10,5 C 74 % 1003,7 hPa 0,0 l/m 18,4 km/h (3 Bft) O-NO 71 1 min 0,000 mm 1,0 UV-I 317 W/m 6,1 C 4,5 C 22,5 km/h (4 Bft) 95,83 %
09.02.2016 11:33 10,5 C 73 % 1003,7 hPa 0,0 l/m 20,3 km/h (4 Bft) O 82 1 min 0,000 mm 1,0 UV-I 281 W/m 5,9 C 3,8 C 25,7 km/h (4 Bft) 100,00 %
09.02.2016 11:34 10,5 C 72 % 1003,6 hPa 0,0 l/m 19,2 km/h (3 Bft) NO 54 0 min 0,000 mm 1,0 UV-I 223 W/m 5,7 C 4,2 C 22,5 km/h (4 Bft) 96,67 %
09.02.2016 11:35 10,5 C 71 % 1003,5 hPa 0,0 l/m 17,6 km/h (3 Bft) NO 51 0 min 0,000 mm 1,0 UV-I 237 W/m 5,5 C 4,7 C 20,9 km/h (4 Bft) 96,15 %
09.02.2016 11:36 10,5 C 72 % 1003,4 hPa 0,0 l/m 13,9 km/h (3 Bft) O-NO 69 1 min 0,000 mm 1,0 UV-I 300 W/m 5,7 C 6,2 C 20,9 km/h (4 Bft) 95,83 %
09.02.2016 11:37 10,5 C 73 % 1003,4 hPa 0,0 l/m 20,0 km/h (4 Bft) O-NO 66 1 min 0,000 mm 1,1 UV-I 368 W/m 5,9 C 3,9 C 25,7 km/h (4 Bft) 91,30 %
09.02.2016 11:38 10,5 C 72 % 1003,4 hPa 0,0 l/m 15,3 km/h (3 Bft) O-NO 74 1 min 0,000 mm 1,1 UV-I 371 W/m 5,7 C 5,6 C 20,9 km/h (4 Bft) 100,00 %
09.02.2016 11:39 10,6 C 73 % 1003,4 hPa 0,0 l/m 15,0 km/h (3 Bft) O 88 1 min 0,000 mm 1,1 UV-I 370 W/m 6,0 C 5,9 C 17,7 km/h (3 Bft) 95,65 %
09.02.2016 11:40 10,6 C 72 % 1003,2 hPa 0,0 l/m 15,5 km/h (3 Bft) O 85 1 min 0,000 mm 1,1 UV-I 361 W/m 5,8 C 5,7 C 20,9 km/h (4 Bft) 100,00 %
09.02.2016 11:41 10,7 C 72 % 1003,1 hPa 0,0 l/m 12,9 km/h (3 Bft) O-NO 63 1 min 0,000 mm 1,1 UV-I 356 W/m 5,9 C 6,9 C 17,7 km/h (3 Bft) 91,67 %
09.02.2016 11:42 10,7 C 72 % 1003,0 hPa 0,0 l/m 20,9 km/h (4 Bft) O-NO 72 1 min 0,000 mm 1,1 UV-I 365 W/m 5,9 C 3,9 C 27,4 km/h (4 Bft) 91,30 %
09.02.2016 11:43 10,7 C 70 % 1002,9 hPa 0,0 l/m 20,7 km/h (4 Bft) NO 53 1 min 0,000 mm 1,1 UV-I 377 W/m 5,5 C 4,0 C 25,7 km/h (4 Bft) 100,00 %
09.02.2016 11:44 10,7 C 70 % 1002,8 hPa 0,0 l/m 15,4 km/h (3 Bft) O-NO 75 1 min 0,000 mm 1,1 UV-I 357 W/m 5,5 C 5,8 C 22,5 km/h (4 Bft) 91,30 %
09.02.2016 11:45 10,7 C 72 % 1002,8 hPa 0,0 l/m 18,2 km/h (3 Bft) O 87 1 min 0,000 mm 1,1 UV-I 340 W/m 5,9 C 4,8 C 24,1 km/h (4 Bft) 100,00 %
09.02.2016 11:46 10,7 C 71 % 1002,8 hPa 0,0 l/m 17,4 km/h (3 Bft) O-NO 66 1 min 0,000 mm 1,0 UV-I 338 W/m 5,7 C 5,1 C 20,9 km/h (4 Bft) 95,65 %
09.02.2016 11:47 10,7 C 71 % 1002,8 hPa 0,0 l/m 14,8 km/h (3 Bft) O-NO 59 0 min 0,000 mm 0,8 UV-I 198 W/m 5,7 C 6,1 C 19,3 km/h (3 Bft) 100,00 %
09.02.2016 11:48 10,7 C 72 % 1002,8 hPa 0,0 l/m 16,0 km/h (3 Bft) O-NO 74 0 min 0,000 mm 0,9 UV-I 178 W/m 5,9 C 5,6 C 24,1 km/h (4 Bft) 100,00 %
09.02.2016 11:49 10,7 C 71 % 1002,8 hPa 0,0 l/m 16,5 km/h (3 Bft) O-NO 74 0 min 0,000 mm 0,9 UV-I 207 W/m 5,7 C 5,4 C 25,7 km/h (4 Bft) 100,00 %
09.02.2016 11:50 10,7 C 70 % 1002,8 hPa 0,0 l/m 18,8 km/h (3 Bft) O 92 0 min 0,000 mm 0,9 UV-I 232 W/m 5,5 C 4,6 C 22,5 km/h (4 Bft) 91,30 %
09.02.2016 11:51 10,6 C 70 % 1002,8 hPa 0,0 l/m 15,5 km/h (3 Bft) O-NO 71 1 min 0,000 mm 0,9 UV-I 276 W/m 5,4 C 5,7 C 20,9 km/h (4 Bft) 100,00 %
09.02.2016 11:52 10,7 C 71 % 1002,8 hPa 0,0 l/m 10,9 km/h (2 Bft) NO 53 1 min 0,000 mm 1,0 UV-I 335 W/m 5,7 C 7,9 C 16,1 km/h (3 Bft) 100,00 %
09.02.2016 11:53 10,7 C 70 % 1002,7 hPa 0,0 l/m 12,9 km/h (3 Bft) O-NO 77 1 min 0,000 mm 1,1 UV-I 380 W/m 5,5 C 6,9 C 19,3 km/h (3 Bft) 92,59 %
09.02.2016 11:54 10,8 C 72 % 1002,7 hPa 0,0 l/m 13,6 km/h (3 Bft) O-NO 65 1 min 0,000 mm 1,2 UV-I 411 W/m 6,0 C 6,7 C 16,1 km/h (3 Bft) 95,65 %
09.02.2016 11:55 10,8 C 73 % 1002,6 hPa 0,0 l/m 14,1 km/h (3 Bft) O-NO 74 1 min 0,000 mm 1,2 UV-I 394 W/m 6,2 C 6,5 C 16,1 km/h (3 Bft) 100,00 %
09.02.2016 11:56 10,9 C 73 % 1002,6 hPa 0,0 l/m 14,1 km/h (3 Bft) O 82 1 min 0,000 mm 1,1 UV-I 353 W/m 6,3 C 6,6 C 19,3 km/h (3 Bft) 95,65 %
09.02.2016 11:57 10,9 C 72 % 1002,6 hPa 0,0 l/m 19,7 km/h (3 Bft) O-NO 71 1 min 0,000 mm 1,1 UV-I 378 W/m 6,1 C 4,5 C 29,0 km/h (5 Bft) 100,00 %
09.02.2016 11:58 11,0 C 70 % 1002,6 hPa 0,0 l/m 21,5 km/h (4 Bft) O-NO 74 1 min 0,000 mm 1,2 UV-I 406 W/m 5,7 C 4,1 C 27,4 km/h (4 Bft) 100,00 %
09.02.2016 11:59 11,0 C 70 % 1002,6 hPa 0,0 l/m 19,4 km/h (3 Bft) O 82 1 min 0,000 mm 1,2 UV-I 416 W/m 5,7 C 4,8 C 25,7 km/h (4 Bft) 100,00 %
09.02.2016 12:00 11,0 C 69 % 1002,5 hPa 0,0 l/m 20,7 km/h (4 Bft) O-NO 68 1 min 0,203 mm 1,1 UV-I 389 W/m 5,5 C 4,4 C 27,4 km/h (4 Bft) 100,00 %
09.02.2016 12:01 11,1 C 69 % 1002,5 hPa 0,0 l/m 19,4 km/h (3 Bft) O-NO 67 1 min 0,000 mm 1,1 UV-I 382 W/m 5,6 C 4,9 C 24,1 km/h (4 Bft) 86,96 %
09.02.2016 12:02 11,1 C 69 % 1002,4 hPa 0,0 l/m 21,3 km/h (4 Bft) O-NO 61 1 min 0,000 mm 1,1 UV-I 368 W/m 5,6 C 4,3 C 25,7 km/h (4 Bft) 100,00 %
09.02.2016 12:03 11,1 C 69 % 1002,4 hPa 0,0 l/m 19,9 km/h (4 Bft) O-NO 65 1 min 0,000 mm 1,1 UV-I 373 W/m 5,6 C 4,7 C 24,1 km/h (4 Bft) 91,30 %
09.02.2016 12:04 11,1 C 69 % 1002,4 hPa 0,0 l/m 20,2 km/h (4 Bft) O-NO 78 1 min 0,000 mm 1,1 UV-I 359 W/m 5,6 C 4,6 C 27,4 km/h (4 Bft) 100,00 %
09.02.2016 12:05 11,1 C 69 % 1002,4 hPa 0,0 l/m 19,8 km/h (3 Bft) O 82 1 min 0,000 mm 1,1 UV-I 349 W/m 5,6 C 4,8 C 25,7 km/h (4 Bft) 100,00 %
09.02.2016 12:06 11,1 C 69 % 1002,3 hPa 0,0 l/m 17,2 km/h (3 Bft) O 79 1 min 0,000 mm 1,2 UV-I 387 W/m 5,6 C 5,6 C 22,5 km/h (4 Bft) 100,00 %
09.02.2016 12:07 11,1 C 69 % 1002,3 hPa 0,0 l/m 18,4 km/h (3 Bft) O 80 1 min 0,000 mm 1,2 UV-I 410 W/m 5,6 C 5,2 C 24,1 km/h (4 Bft) 95,65 %
09.02.2016 12:08 11,1 C 69 % 1002,3 hPa 0,0 l/m 18,0 km/h (3 Bft) O-NO 78 1 min 0,000 mm 1,2 UV-I 453 W/m 5,6 C 5,4 C 22,5 km/h (4 Bft) 100,00 %
09.02.2016 12:09 11,1 C 70 % 1002,3 hPa 0,0 l/m 18,2 km/h (3 Bft) O 86 1 min 0,000 mm 1,2 UV-I 422 W/m 5,8 C 5,3 C 20,9 km/h (4 Bft) 95,65 %
09.02.2016 12:10 11,2 C 71 % 1002,3 hPa 0,0 l/m 16,1 km/h (3 Bft) NO 47 1 min 0,000 mm 1,2 UV-I 383 W/m 6,1 C 6,2 C 19,3 km/h (3 Bft) 100,00 %
09.02.2016 12:11 11,2 C 72 % 1002,2 hPa 0,0 l/m 15,8 km/h (3 Bft) O-NO 63 1 min 0,000 mm 1,2 UV-I 392 W/m 6,3 C 6,3 C 22,5 km/h (4 Bft) 95,65 %
09.02.2016 12:12 11,2 C 72 % 1002,2 hPa 0,0 l/m 15,6 km/h (3 Bft) NO 46 1 min 0,000 mm 1,1 UV-I 382 W/m 6,3 C 6,4 C 19,3 km/h (3 Bft) 100,00 %
09.02.2016 12:13 11,3 C 72 % 1002,2 hPa 0,0 l/m 14,7 km/h (3 Bft) O 82 1 min 0,000 mm 1,2 UV-I 422 W/m 6,4 C 6,8 C 19,3 km/h (3 Bft) 95,65 %
09.02.2016 12:14 11,3 C 72 % 1002,2 hPa 0,0 l/m 17,8 km/h (3 Bft) O-NO 61 1 min 0,000 mm 1,2 UV-I 484 W/m 6,4 C 5,7 C 22,5 km/h (4 Bft) 100,00 %
09.02.2016 12:15 11,3 C 71 % 1002,2 hPa 0,0 l/m 18,8 km/h (3 Bft) NO 41 1 min 0,000 mm 1,3 UV-I 540 W/m 6,2 C 5,3 C 24,1 km/h (4 Bft) 100,00 %
09.02.2016 12:16 11,4 C 71 % 1002,1 hPa 0,0 l/m 19,1 km/h (3 Bft) O 93 1 min 0,000 mm 1,3 UV-I 563 W/m 6,3 C 5,4 C 24,1 km/h (4 Bft) 100,00 %
09.02.2016 12:17 11,4 C 72 % 1002,1 hPa 0,0 l/m 14,6 km/h (3 Bft) NO 55 1 min 0,000 mm 1,3 UV-I 548 W/m 6,5 C 7,0 C 19,3 km/h (3 Bft) 95,65 %
09.02.2016 12:18 11,4 C 73 % 1002,0 hPa 0,0 l/m 18,1 km/h (3 Bft) NO 54 1 min 0,000 mm 1,3 UV-I 619 W/m 6,7 C 5,7 C 24,1 km/h (4 Bft) 100,00 %
09.02.2016 12:19 11,5 C 73 % 1002,0 hPa 0,0 l/m 16,9 km/h (3 Bft) N-NO 30 1 min 0,000 mm 1,1 UV-I 504 W/m 6,8 C 6,2 C 22,5 km/h (4 Bft) 100,00 %
09.02.2016 12:20 11,5 C 73 % 1002,0 hPa 0,0 l/m 17,1 km/h (3 Bft) O-NO 58 1 min 0,000 mm 1,1 UV-I 348 W/m 6,8 C 6,2 C 24,1 km/h (4 Bft) 95,65 %
09.02.2016 12:21 11,5 C 73 % 1001,9 hPa 0,0 l/m 18,2 km/h (3 Bft) NO 39 1 min 0,000 mm 1,1 UV-I 385 W/m 6,8 C 5,8 C 24,1 km/h (4 Bft) 100,00 %
09.02.2016 12:22 11,5 C 72 % 1001,8 hPa 0,0 l/m 19,9 km/h (4 Bft) O-NO 71 1 min 0,000 mm 1,0 UV-I 396 W/m 6,6 C 5,3 C 24,1 km/h (4 Bft) 95,65 %
09.02.2016 12:23 11,4 C 72 % 1001,8 hPa 0,0 l/m 17,2 km/h (3 Bft) O-NO 59 1 min 0,000 mm 1,0 UV-I 280 W/m 6,5 C 6,0 C 22,5 km/h (4 Bft) 100,00 %
09.02.2016 12:24 11,4 C 72 % 1001,7 hPa 0,0 l/m 20,5 km/h (4 Bft) NO 43 1 min 0,000 mm 1,0 UV-I 280 W/m 6,5 C 4,9 C 25,7 km/h (4 Bft) 100,00 %
09.02.2016 12:25 11,3 C 72 % 1001,7 hPa 0,0 l/m 20,7 km/h (4 Bft) NO 46 1 min 0,000 mm 1,0 UV-I 273 W/m 6,4 C 4,8 C 25,7 km/h (4 Bft) 100,00 %
09.02.2016 12:26 11,3 C 72 % 1001,6 hPa 0,0 l/m 21,5 km/h (4 Bft) NO 48 1 min 0,000 mm 1,0 UV-I 261 W/m 6,4 C 4,5 C 27,4 km/h (4 Bft) 100,00 %
09.02.2016 12:27 11,3 C 72 % 1001,6 hPa 0,0 l/m 24,3 km/h (4 Bft) O-NO 62 0 min 0,000 mm 1,0 UV-I 251 W/m 6,4 C 3,8 C 32,2 km/h (5 Bft) 100,00 %
09.02.2016 12:28 11,2 C 72 % 1001,5 hPa 0,0 l/m 21,0 km/h (4 Bft) N-NO 33 0 min 0,000 mm 0,9 UV-I 250 W/m 6,3 C 4,5 C 25,7 km/h (4 Bft) 88,46 %
09.02.2016 12:29 11,2 C 73 % 1001,6 hPa 0,0 l/m 22,1 km/h (4 Bft) O 84 0 min 0,000 mm 0,9 UV-I 246 W/m 6,5 C 4,2 C 25,7 km/h (4 Bft) 100,00 %
09.02.2016 12:30 11,2 C 73 % 1001,5 hPa 0,0 l/m 17,5 km/h (3 Bft) NO 53 0 min 0,000 mm 0,9 UV-I 242 W/m 6,5 C 5,7 C 24,1 km/h (4 Bft) 100,00 %
09.02.2016 12:31 11,1 C 72 % 1001,4 hPa 0,0 l/m 21,7 km/h (4 Bft) NO 49 0 min 0,000 mm 0,9 UV-I 238 W/m 6,2 C 4,2 C 25,7 km/h (4 Bft) 100,00 %
09.02.2016 12:32 11,1 C 72 % 1001,4 hPa 0,0 l/m 21,3 km/h (4 Bft) O-NO 62 0 min 0,000 mm 0,9 UV-I 237 W/m 6,2 C 4,3 C 27,4 km/h (4 Bft) 95,65 %
09.02.2016 12:33 11,1 C 72 % 1001,5 hPa 0,0 l/m 21,9 km/h (4 Bft) NO 34 0 min 0,000 mm 0,9 UV-I 237 W/m 6,2 C 4,1 C 27,4 km/h (4 Bft) 95,83 %
09.02.2016 12:34 11,1 C 72 % 1001,4 hPa 0,0 l/m 21,1 km/h (4 Bft) O-NO 59 0 min 0,000 mm 0,9 UV-I 236 W/m 6,2 C 4,4 C 25,7 km/h (4 Bft) 100,00 %
09.02.2016 12:35 11,1 C 72 % 1001,4 hPa 0,0 l/m 19,0 km/h (3 Bft) NO 51 0 min 0,000 mm 0,9 UV-I 236 W/m 6,2 C 5,0 C 25,7 km/h (4 Bft) 100,00 %
09.02.2016 12:36 11,0 C 72 % 1001,3 hPa 0,0 l/m 23,0 km/h (4 Bft) O-NO 65 0 min 0,000 mm 0,9 UV-I 232 W/m 6,2 C 3,7 C 30,6 km/h (5 Bft) 100,00 %
09.02.2016 12:37 11,0 C 71 % 1001,2 hPa 0,0 l/m 21,9 km/h (4 Bft) O 80 0 min 0,000 mm 0,9 UV-I 230 W/m 5,9 C 4,0 C 29,0 km/h (5 Bft) 95,65 %
09.02.2016 12:38 11,0 C 71 % 1001,2 hPa 0,0 l/m 18,5 km/h (3 Bft) O-NO 71 0 min 0,000 mm 0,9 UV-I 230 W/m 5,9 C 5,1 C 24,1 km/h (4 Bft) 95,83 %
09.02.2016 12:39 10,9 C 72 % 1001,2 hPa 0,0 l/m 20,5 km/h (4 Bft) O-NO 63 0 min 0,000 mm 0,9 UV-I 228 W/m 6,1 C 4,3 C 25,7 km/h (4 Bft) 91,30 %
09.02.2016 12:40 10,9 C 73 % 1001,0 hPa 0,0 l/m 15,1 km/h (3 Bft) NO 49 0 min 0,000 mm 0,9 UV-I 231 W/m 6,3 C 6,2 C 22,5 km/h (4 Bft) 100,00 %
09.02.2016 12:41 10,9 C 73 % 1001,0 hPa 0,0 l/m 16,2 km/h (3 Bft) NO 51 0 min 0,000 mm 1,0 UV-I 233 W/m 6,3 C 5,8 C 19,3 km/h (3 Bft) 95,65 %
09.02.2016 12:42 10,9 C 73 % 1001,0 hPa 0,0 l/m 17,8 km/h (3 Bft) NO 36 1 min 0,000 mm 0,9 UV-I 260 W/m 6,3 C 5,2 C 22,5 km/h (4 Bft) 100,00 %
09.02.2016 12:43 11,0 C 72 % 1000,9 hPa 0,0 l/m 20,3 km/h (4 Bft) O-NO 67 1 min 0,000 mm 1,1 UV-I 331 W/m 6,2 C 4,5 C 25,7 km/h (4 Bft) 95,65 %
09.02.2016 12:44 11,0 C 72 % 1000,9 hPa 0,0 l/m 21,0 km/h (4 Bft) O-NO 61 1 min 0,000 mm 1,1 UV-I 358 W/m 6,2 C 4,3 C 25,7 km/h (4 Bft) 100,00 %
09.02.2016 12:45 11,1 C 73 % 1000,8 hPa 0,0 l/m 18,0 km/h (3 Bft) O-NO 73 1 min 0,000 mm 1,2 UV-I 397 W/m 6,4 C 5,4 C 22,5 km/h (4 Bft) 96,15 %
09.02.2016 12:46 11,1 C 72 % 1000,8 hPa 0,0 l/m 19,1 km/h (3 Bft) O 82 1 min 0,000 mm 1,2 UV-I 413 W/m 6,2 C 5,0 C 25,7 km/h (4 Bft) 100,00 %
09.02.2016 12:47 11,2 C 72 % 1000,8 hPa 0,0 l/m 20,1 km/h (4 Bft) NO 50 1 min 0,000 mm 1,2 UV-I 500 W/m 6,3 C 4,8 C 27,4 km/h (4 Bft) 95,65 %
09.02.2016 12:48 11,3 C 71 % 1000,7 hPa 0,0 l/m 20,3 km/h (4 Bft) O-NO 74 1 min 0,000 mm 1,2 UV-I 455 W/m 6,2 C 4,9 C 27,4 km/h (4 Bft) 100,00 %
09.02.2016 12:49 11,3 C 71 % 1000,6 hPa 0,0 l/m 18,4 km/h (3 Bft) O 96 1 min 0,000 mm 1,3 UV-I 495 W/m 6,2 C 5,5 C 25,7 km/h (4 Bft) 100,00 %
09.02.2016 12:50 11,4 C 71 % 1000,6 hPa 0,0 l/m 17,4 km/h (3 Bft) N-NO 28 1 min 0,000 mm 1,2 UV-I 550 W/m 6,3 C 5,9 C 22,5 km/h (4 Bft) 100,00 %
09.02.2016 12:51 11,6 C 71 % 1000,6 hPa 0,0 l/m 19,6 km/h (3 Bft) NO 46 1 min 0,000 mm 1,2 UV-I 538 W/m 6,5 C 5,5 C 24,1 km/h (4 Bft) 100,00 %
09.02.2016 12:52 11,6 C 71 % 1000,6 hPa 0,0 l/m 16,4 km/h (3 Bft) O-NO 66 1 min 0,000 mm 1,2 UV-I 520 W/m 6,5 C 6,5 C 22,5 km/h (4 Bft) 100,00 %
09.02.2016 12:53 11,7 C 72 % 1000,5 hPa 0,0 l/m 21,9 km/h (4 Bft) O-NO 58 1 min 0,000 mm 1,2 UV-I 513 W/m 6,8 C 4,9 C 25,7 km/h (4 Bft) 95,65 %
09.02.2016 12:54 11,7 C 70 % 1000,4 hPa 0,0 l/m 20,2 km/h (4 Bft) O-NO 61 1 min 0,000 mm 1,2 UV-I 513 W/m 6,4 C 5,4 C 24,1 km/h (4 Bft) 100,00 %
09.02.2016 12:55 11,7 C 71 % 1000,4 hPa 0,0 l/m 24,5 km/h (4 Bft) NO 48 1 min 0,000 mm 1,3 UV-I 518 W/m 6,6 C 4,3 C 29,0 km/h (5 Bft) 100,00 %
09.02.2016 12:56 11,8 C 70 % 1000,3 hPa 0,0 l/m 19,9 km/h (4 Bft) O-NO 75 1 min 0,000 mm 1,2 UV-I 516 W/m 6,5 C 5,6 C 27,4 km/h (4 Bft) 100,00 %
09.02.2016 12:57 11,8 C 70 % 1000,2 hPa 0,0 l/m 20,1 km/h (4 Bft) NO 49 1 min 0,000 mm 1,2 UV-I 502 W/m 6,5 C 5,6 C 24,1 km/h (4 Bft) 100,00 %
09.02.2016 12:58 11,8 C 71 % 1000,2 hPa 0,0 l/m 18,6 km/h (3 Bft) O-NO 57 1 min 0,000 mm 1,2 UV-I 503 W/m 6,7 C 6,0 C 22,5 km/h (4 Bft) 100,00 %
09.02.2016 12:59 11,8 C 71 % 1000,1 hPa 0,0 l/m 20,0 km/h (4 Bft) NO 48 1 min 0,000 mm 1,2 UV-I 518 W/m 6,7 C 5,6 C 25,7 km/h (4 Bft) 100,00 %
09.02.2016 13:00 11,8 C 70 % 1000,1 hPa 0,0 l/m 20,7 km/h (4 Bft) O-NO 78 1 min 0,000 mm 1,3 UV-I 542 W/m 6,5 C 5,4 C 29,0 km/h (5 Bft) 95,65 %
09.02.2016 13:01 11,9 C 69 % 1000,0 hPa 0,0 l/m 20,4 km/h (4 Bft) O-NO 63 1 min 0,254 mm 1,2 UV-I 540 W/m 6,4 C 5,6 C 25,7 km/h (4 Bft) 95,83 %
09.02.2016 13:02 11,9 C 71 % 999,9 hPa 0,0 l/m 22,0 km/h (4 Bft) NO 49 1 min 0,000 mm 1,3 UV-I 544 W/m 6,8 C 5,2 C 25,7 km/h (4 Bft) 100,00 %
09.02.2016 13:03 11,9 C 68 % 999,9 hPa 0,0 l/m 21,5 km/h (4 Bft) O-NO 70 1 min 0,000 mm 1,2 UV-I 538 W/m 6,2 C 5,3 C 25,7 km/h (4 Bft) 95,83 %
09.02.2016 13:04 11,9 C 69 % 999,8 hPa 0,0 l/m 20,0 km/h (4 Bft) O-NO 65 1 min 0,000 mm 1,3 UV-I 534 W/m 6,4 C 5,7 C 27,4 km/h (4 Bft) 95,65 %
09.02.2016 13:05 11,9 C 69 % 999,8 hPa 0,0 l/m 22,5 km/h (4 Bft) O-NO 65 1 min 0,000 mm 1,3 UV-I 539 W/m 6,4 C 5,0 C 30,6 km/h (5 Bft) 87,50 %
09.02.2016 13:06 11,9 C 69 % 999,8 hPa 0,0 l/m 21,6 km/h (4 Bft) O-NO 65 1 min 0,000 mm 1,2 UV-I 524 W/m 6,4 C 5,3 C 27,4 km/h (4 Bft) 100,00 %
09.02.2016 13:07 11,9 C 69 % 999,7 hPa 0,0 l/m 24,3 km/h (4 Bft) O-NO 57 1 min 0,000 mm 1,2 UV-I 488 W/m 6,4 C 4,6 C 29,0 km/h (5 Bft) 95,83 %
09.02.2016 13:08 11,9 C 69 % 999,6 hPa 0,0 l/m 25,1 km/h (4 Bft) NO 42 1 min 0,000 mm 1,2 UV-I 460 W/m 6,4 C 4,4 C 30,6 km/h (5 Bft) 92,00 %
09.02.2016 13:09 11,9 C 69 % 999,5 hPa 0,0 l/m 21,5 km/h (4 Bft) O-NO 74 1 min 0,000 mm 1,1 UV-I 454 W/m 6,4 C 5,3 C 27,4 km/h (4 Bft) 100,00 %
09.02.2016 13:10 11,9 C 69 % 999,5 hPa 0,0 l/m 20,2 km/h (4 Bft) NO 34 1 min 0,000 mm 1,1 UV-I 446 W/m 6,4 C 5,7 C 25,7 km/h (4 Bft) 95,65 %
09.02.2016 13:11 12,0 C 70 % 999,5 hPa 0,0 l/m 18,8 km/h (3 Bft) NO 52 1 min 0,000 mm 1,1 UV-I 443 W/m 6,7 C 6,2 C 24,1 km/h (4 Bft) 100,00 %
09.02.2016 13:12 12,0 C 70 % 999,4 hPa 0,0 l/m 20,0 km/h (4 Bft) NO 53 1 min 0,000 mm 1,1 UV-I 424 W/m 6,7 C 5,9 C 24,1 km/h (4 Bft) 96,15 %
09.02.2016 13:13 12,1 C 70 % 999,5 hPa 0,0 l/m 14,1 km/h (3 Bft) NO 49 1 min 0,000 mm 1,1 UV-I 431 W/m 6,8 C 8,0 C 19,3 km/h (3 Bft) 100,00 %
09.02.2016 13:14 12,1 C 72 % 999,4 hPa 0,0 l/m 13,8 km/h (3 Bft) N-NO 26 1 min 0,000 mm 1,1 UV-I 422 W/m 7,2 C 8,2 C 19,3 km/h (3 Bft) 96,30 %
09.02.2016 13:15 12,2 C 71 % 999,4 hPa 0,0 l/m 11,3 km/h (2 Bft) O-NO 61 1 min 0,000 mm 1,1 UV-I 416 W/m 7,1 C 9,4 C 17,7 km/h (3 Bft) 100,00 %
09.02.2016 13:16 12,3 C 70 % 999,4 hPa 0,0 l/m 13,5 km/h (3 Bft) O-NO 76 1 min 0,000 mm 1,1 UV-I 456 W/m 7,0 C 8,5 C 19,3 km/h (3 Bft) 95,83 %
09.02.2016 13:17 12,3 C 70 % 999,4 hPa 0,0 l/m 18,9 km/h (3 Bft) O-NO 73 1 min 0,000 mm 1,1 UV-I 474 W/m 7,0 C 6,6 C 24,1 km/h (4 Bft) 100,00 %
09.02.2016 13:18 12,3 C 68 % 999,4 hPa 0,0 l/m 15,2 km/h (3 Bft) NO 48 1 min 0,000 mm 1,1 UV-I 469 W/m 6,6 C 7,8 C 20,9 km/h (4 Bft) 96,30 %
09.02.2016 13:19 12,3 C 69 % 999,3 hPa 0,0 l/m 13,8 km/h (3 Bft) NO 42 1 min 0,000 mm 1,1 UV-I 482 W/m 6,8 C 8,4 C 19,3 km/h (3 Bft) 95,65 %
09.02.2016 13:20 12,3 C 69 % 999,3 hPa 0,0 l/m 14,9 km/h (3 Bft) NO 47 1 min 0,000 mm 1,1 UV-I 492 W/m 6,8 C 8,0 C 20,9 km/h (4 Bft) 95,83 %
09.02.2016 13:21 12,3 C 69 % 999,3 hPa 0,0 l/m 19,0 km/h (3 Bft) O-NO 66 1 min 0,000 mm 1,1 UV-I 486 W/m 6,8 C 6,6 C 22,5 km/h (4 Bft) 92,31 %
09.02.2016 13:22 12,3 C 68 % 999,3 hPa 0,0 l/m 18,8 km/h (3 Bft) O-NO 78 1 min 0,000 mm 1,1 UV-I 414 W/m 6,6 C 6,6 C 24,1 km/h (4 Bft) 100,00 %
09.02.2016 13:23 12,3 C 68 % 999,3 hPa 0,0 l/m 14,3 km/h (3 Bft) O-NO 63 1 min 0,000 mm 1,2 UV-I 450 W/m 6,6 C 8,2 C 19,3 km/h (3 Bft) 95,65 %
09.02.2016 13:24 12,3 C 70 % 999,3 hPa 0,0 l/m 20,9 km/h (4 Bft) NO 45 1 min 0,000 mm 1,2 UV-I 565 W/m 7,0 C 6,0 C 25,7 km/h (4 Bft) 88,46 %
09.02.2016 13:25 12,4 C 69 % 999,2 hPa 0,0 l/m 19,0 km/h (3 Bft) O-NO 58 1 min 0,000 mm 1,0 UV-I 531 W/m 6,9 C 6,7 C 22,5 km/h (4 Bft) 100,00 %
09.02.2016 13:26 12,4 C 70 % 999,2 hPa 0,0 l/m 14,4 km/h (3 Bft) O-NO 65 1 min 0,000 mm 0,9 UV-I 389 W/m 7,1 C 8,3 C 19,3 km/h (3 Bft) 100,00 %
09.02.2016 13:27 12,4 C 69 % 999,1 hPa 0,0 l/m 16,5 km/h (3 Bft) O-NO 67 1 min 0,000 mm 0,9 UV-I 327 W/m 6,9 C 7,5 C 24,1 km/h (4 Bft) 88,46 %
09.02.2016 13:28 12,4 C 70 % 999,1 hPa 0,0 l/m 19,8 km/h (3 Bft) NO 48 1 min 0,000 mm 0,9 UV-I 329 W/m 7,1 C 6,4 C 24,1 km/h (4 Bft) 95,83 %
09.02.2016 13:29 12,4 C 69 % 998,9 hPa 0,0 l/m 15,9 km/h (3 Bft) NO 54 1 min 0,000 mm 0,8 UV-I 265 W/m 6,9 C 7,7 C 20,9 km/h (4 Bft) 100,00 %
09.02.2016 13:30 12,3 C 70 % 998,8 hPa 0,0 l/m 16,4 km/h (3 Bft) NO 49 1 min 0,000 mm 0,8 UV-I 247 W/m 7,0 C 7,4 C 22,5 km/h (4 Bft) 100,00 %
09.02.2016 13:31 12,3 C 70 % 998,7 hPa 0,0 l/m 16,9 km/h (3 Bft) O-NO 71 0 min 0,000 mm 0,7 UV-I 235 W/m 7,0 C 7,2 C 24,1 km/h (4 Bft) 100,00 %
09.02.2016 13:32 12,3 C 70 % 998,5 hPa 0,0 l/m 21,8 km/h (4 Bft) NO 44 0 min 0,000 mm 0,7 UV-I 224 W/m 7,0 C 5,8 C 25,7 km/h (4 Bft) 95,83 %
09.02.2016 13:33 12,2 C 70 % 998,5 hPa 0,0 l/m 21,5 km/h (4 Bft) O 82 0 min 0,000 mm 0,7 UV-I 215 W/m 6,9 C 5,7 C 27,4 km/h (4 Bft) 95,65 %
09.02.2016 13:34 12,2 C 70 % 998,4 hPa 0,0 l/m 18,5 km/h (3 Bft) O-NO 68 0 min 0,000 mm 0,7 UV-I 204 W/m 6,9 C 6,6 C 25,7 km/h (4 Bft) 100,00 %
09.02.2016 13:35 12,2 C 70 % 998,3 hPa 0,0 l/m 16,9 km/h (3 Bft) O-NO 62 0 min 0,000 mm 0,6 UV-I 191 W/m 6,9 C 7,1 C 24,1 km/h (4 Bft) 100,00 %
09.02.2016 13:36 12,1 C 70 % 998,3 hPa 0,0 l/m 15,3 km/h (3 Bft) O-NO 67 0 min 0,000 mm 0,6 UV-I 183 W/m 6,8 C 7,6 C 20,9 km/h (4 Bft) 100,00 %
09.02.2016 13:37 12,1 C 72 % 998,3 hPa 0,0 l/m 14,6 km/h (3 Bft) NO 55 0 min 0,000 mm 0,6 UV-I 179 W/m 7,2 C 7,8 C 20,9 km/h (4 Bft) 100,00 %
09.02.2016 13:38 12,1 C 70 % 998,3 hPa 0,0 l/m 17,0 km/h (3 Bft) O-NO 74 0 min 0,000 mm 0,6 UV-I 175 W/m 6,8 C 7,0 C 24,1 km/h (4 Bft) 95,83 %
09.02.2016 13:39 12,1 C 69 % 998,3 hPa 0,0 l/m 18,2 km/h (3 Bft) O-NO 64 0 min 0,000 mm 0,6 UV-I 171 W/m 6,6 C 6,6 C 20,9 km/h (4 Bft) 91,30 %
09.02.2016 13:40 12,1 C 70 % 998,2 hPa 0,0 l/m 19,6 km/h (3 Bft) O-NO 58 0 min 0,000 mm 0,6 UV-I 173 W/m 6,8 C 6,1 C 25,7 km/h (4 Bft) 100,00 %
09.02.2016 13:41 12,1 C 70 % 998,2 hPa 0,0 l/m 18,8 km/h (3 Bft) NO 53 0 min 0,000 mm 0,6 UV-I 177 W/m 6,8 C 6,4 C 25,7 km/h (4 Bft) 100,00 %
09.02.2016 13:42 12,1 C 70 % 998,1 hPa 0,0 l/m 16,4 km/h (3 Bft) O-NO 65 0 min 0,000 mm 0,6 UV-I 178 W/m 6,8 C 7,2 C 20,9 km/h (4 Bft) 97,14 %
09.02.2016 13:43 12,1 C 69 % 998,1 hPa 0,0 l/m 17,6 km/h (3 Bft) NO 55 0 min 0,000 mm 0,6 UV-I 177 W/m 6,6 C 6,8 C 22,5 km/h (4 Bft) 100,00 %
09.02.2016 13:44 12,1 C 69 % 998,1 hPa 0,0 l/m 19,7 km/h (3 Bft) O-NO 67 0 min 0,000 mm 0,6 UV-I 171 W/m 6,6 C 6,1 C 24,1 km/h (4 Bft) 100,00 %
09.02.2016 13:45 12,0 C 69 % 998,0 hPa 0,0 l/m 19,5 km/h (3 Bft) O-NO 67 0 min 0,000 mm 0,6 UV-I 163 W/m 6,5 C 6,0 C 24,1 km/h (4 Bft) 100,00 %
09.02.2016 13:46 12,0 C 69 % 998,0 hPa 0,0 l/m 16,2 km/h (3 Bft) O-NO 60 0 min 0,000 mm 0,6 UV-I 152 W/m 6,5 C 7,1 C 22,5 km/h (4 Bft) 91,30 %
09.02.2016 13:47 12,0 C 69 % 997,9 hPa 0,0 l/m 16,0 km/h (3 Bft) NO 42 0 min 0,000 mm 0,6 UV-I 148 W/m 6,5 C 7,2 C 19,3 km/h (3 Bft) 100,00 %
09.02.2016 13:48 12,0 C 69 % 997,9 hPa 0,0 l/m 16,2 km/h (3 Bft) O-NO 60 0 min 0,000 mm 0,6 UV-I 148 W/m 6,5 C 7,1 C 19,3 km/h (3 Bft) 95,65 %
09.02.2016 13:49 12,0 C 69 % 997,8 hPa 0,0 l/m 16,9 km/h (3 Bft) O-NO 58 0 min 0,000 mm 0,6 UV-I 152 W/m 6,5 C 6,9 C 20,9 km/h (4 Bft) 100,00 %
09.02.2016 13:50 12,0 C 70 % 997,8 hPa 0,0 l/m 16,4 km/h (3 Bft) NO 51 0 min 0,000 mm 0,6 UV-I 155 W/m 6,7 C 7,0 C 20,9 km/h (4 Bft) 91,30 %
09.02.2016 13:51 11,9 C 71 % 997,7 hPa 0,0 l/m 13,9 km/h (3 Bft) O-NO 74 0 min 0,000 mm 0,6 UV-I 158 W/m 6,8 C 7,9 C 20,9 km/h (4 Bft) 100,00 %
09.02.2016 13:52 11,9 C 71 % 997,6 hPa 0,0 l/m 15,0 km/h (3 Bft) O 92 0 min 0,000 mm 0,6 UV-I 158 W/m 6,8 C 7,4 C 17,7 km/h (3 Bft) 100,00 %
09.02.2016 13:53 11,9 C 71 % 997,6 hPa 0,0 l/m 11,3 km/h (2 Bft) O-NO 57 0 min 0,000 mm 0,6 UV-I 158 W/m 6,8 C 9,0 C 16,1 km/h (3 Bft) 100,00 %
09.02.2016 13:54 12,0 C 72 % 997,6 hPa 0,0 l/m 11,0 km/h (2 Bft) O 90 0 min 0,000 mm 0,5 UV-I 158 W/m 7,1 C 9,3 C 16,1 km/h (3 Bft) 91,30 %
09.02.2016 13:55 12,0 C 71 % 997,5 hPa 0,0 l/m 13,5 km/h (3 Bft) O-NO 70 0 min 0,000 mm 0,5 UV-I 159 W/m 6,9 C 8,2 C 19,3 km/h (3 Bft) 100,00 %
09.02.2016 13:56 12,0 C 70 % 997,5 hPa 0,0 l/m 15,5 km/h (3 Bft) O-NO 61 0 min 0,000 mm 0,5 UV-I 158 W/m 6,7 C 7,4 C 20,9 km/h (4 Bft) 100,00 %
09.02.2016 13:57 12,0 C 70 % 997,5 hPa 0,0 l/m 17,3 km/h (3 Bft) O-NO 61 0 min 0,000 mm 0,5 UV-I 158 W/m 6,7 C 6,7 C 20,9 km/h (4 Bft) 95,65 %
09.02.2016 13:58 12,1 C 71 % 997,5 hPa 0,0 l/m 12,9 km/h (3 Bft) O 86 0 min 0,000 mm 0,5 UV-I 162 W/m 7,0 C 8,5 C 17,7 km/h (3 Bft) 100,00 %
09.02.2016 13:59 12,1 C 71 % 997,5 hPa 0,0 l/m 14,9 km/h (3 Bft) O-NO 73 0 min 0,000 mm 0,5 UV-I 166 W/m 7,0 C 7,7 C 22,5 km/h (4 Bft) 100,00 %
09.02.2016 14:00 12,1 C 71 % 997,4 hPa 0,0 l/m 10,8 km/h (2 Bft) O-NO 70 0 min 0,203 mm 0,5 UV-I 165 W/m 7,0 C 9,5 C 14,5 km/h (3 Bft) 100,00 %
09.02.2016 14:01 12,1 C 72 % 997,4 hPa 0,0 l/m 8,2 km/h (2 Bft) NO 53 0 min 0,000 mm 0,5 UV-I 174 W/m 7,2 C 10,9 C 9,7 km/h (2 Bft) 100,00 %
09.02.2016 14:02 12,1 C 73 % 997,4 hPa 0,0 l/m 7,9 km/h (2 Bft) O-NO 69 0 min 0,000 mm 0,5 UV-I 161 W/m 7,4 C 11,1 C 11,3 km/h (2 Bft) 100,00 %
09.02.2016 14:03 12,1 C 72 % 997,4 hPa 0,0 l/m 12,9 km/h (3 Bft) O-NO 62 0 min 0,000 mm 0,5 UV-I 155 W/m 7,2 C 8,5 C 17,7 km/h (3 Bft) 100,00 %
09.02.2016 14:04 12,1 C 71 % 997,4 hPa 0,0 l/m 7,6 km/h (2 Bft) NO 53 0 min 0,000 mm 0,5 UV-I 155 W/m 7,0 C 11,3 C 9,7 km/h (2 Bft) 100,00 %
09.02.2016 14:05 12,1 C 72 % 997,4 hPa 0,0 l/m 8,4 km/h (2 Bft) NO 36 0 min 0,000 mm 0,5 UV-I 155 W/m 7,2 C 10,8 C 12,9 km/h (3 Bft) 100,00 %
09.02.2016 14:06 12,1 C 73 % 997,3 hPa 0,0 l/m 8,2 km/h (2 Bft) NO 55 0 min 0,000 mm 0,5 UV-I 155 W/m 7,4 C 10,9 C 11,3 km/h (2 Bft) 100,00 %
09.02.2016 14:07 12,1 C 72 % 997,3 hPa 0,0 l/m 8,6 km/h (2 Bft) NO 49 0 min 0,000 mm 0,5 UV-I 155 W/m 7,2 C 10,7 C 14,5 km/h (3 Bft) 95,65 %
09.02.2016 14:08 12,0 C 73 % 997,3 hPa 0,0 l/m 7,9 km/h (2 Bft) N-NO 32 0 min 0,000 mm 0,2 UV-I 153 W/m 7,3 C 11,0 C 14,5 km/h (3 Bft) 100,00 %
09.02.2016 14:09 12,0 C 74 % 997,3 hPa 0,0 l/m 8,5 km/h (2 Bft) N 10 0 min 0,000 mm 0,0 UV-I 149 W/m 7,5 C 10,6 C 14,5 km/h (3 Bft) 100,00 %
09.02.2016 14:10 12,0 C 73 % 997,3 hPa 0,0 l/m 8,5 km/h (2 Bft) NO 38 0 min 0,000 mm 0,0 UV-I 143 W/m 7,3 C 10,6 C 12,9 km/h (3 Bft) 95,83 %
09.02.2016 14:11 12,0 C 74 % 997,3 hPa 0,0 l/m 10,8 km/h (2 Bft) O 82 0 min 0,000 mm 0,0 UV-I 138 W/m 7,5 C 9,4 C 14,5 km/h (3 Bft) 100,00 %
09.02.2016 14:12 12,0 C 73 % 997,3 hPa 0,0 l/m 9,7 km/h (2 Bft) NO 34 0 min 0,000 mm 0,0 UV-I 137 W/m 7,3 C 10,0 C 12,9 km/h (3 Bft) 100,00 %
09.02.2016 14:13 12,0 C 74 % 997,3 hPa 0,0 l/m 10,1 km/h (2 Bft) NO 40 0 min 0,000 mm 0,0 UV-I 137 W/m 7,5 C 9,8 C 14,5 km/h (3 Bft) 100,00 %
09.02.2016 14:14 12,0 C 73 % 997,2 hPa 0,0 l/m 11,7 km/h (2 Bft) NO 36 0 min 0,000 mm 0,0 UV-I 139 W/m 7,3 C 9,0 C 16,1 km/h (3 Bft) 100,00 %
09.02.2016 14:15 11,9 C 73 % 997,2 hPa 0,0 l/m 11,8 km/h (2 Bft) NO 50 0 min 0,000 mm 0,0 UV-I 142 W/m 7,2 C 8,8 C 17,7 km/h (3 Bft) 100,00 %
09.02.2016 14:16 11,9 C 74 % 997,1 hPa 0,0 l/m 10,7 km/h (2 Bft) NO 46 0 min 0,000 mm 0,0 UV-I 145 W/m 7,4 C 9,3 C 14,5 km/h (3 Bft) 100,00 %
09.02.2016 14:17 11,9 C 73 % 997,1 hPa 0,0 l/m 12,2 km/h (2 Bft) NO 42 0 min 0,000 mm 0,0 UV-I 144 W/m 7,2 C 8,6 C 16,1 km/h (3 Bft) 100,00 %
09.02.2016 14:18 11,9 C 73 % 997,0 hPa 0,0 l/m 11,8 km/h (2 Bft) NO 54 0 min 0,000 mm 0,0 UV-I 146 W/m 7,2 C 8,8 C 16,1 km/h (3 Bft) 100,00 %
09.02.2016 14:19 11,9 C 73 % 997,0 hPa 0,0 l/m 14,6 km/h (3 Bft) NO 45 0 min 0,000 mm 0,0 UV-I 149 W/m 7,2 C 7,6 C 17,7 km/h (3 Bft) 100,00 %
09.02.2016 14:20 11,9 C 72 % 996,9 hPa 0,0 l/m 12,1 km/h (2 Bft) O-NO 65 0 min 0,000 mm 0,0 UV-I 151 W/m 7,0 C 8,7 C 16,1 km/h (3 Bft) 100,00 %
09.02.2016 14:25 12,0 C 72 % 996,5 hPa 0,0 l/m 12,9 km/h (3 Bft) NO 45 0 min 0,000 mm 0,2 UV-I 170 W/m 7,1 C 8,4 C 19,3 km/h (3 Bft) 100,00 %
09.02.2016 14:30 12,0 C 72 % 996,3 hPa 0,0 l/m 11,3 km/h (2 Bft) NO 45 0 min 0,000 mm 0,2 UV-I 168 W/m 7,1 C 9,1 C 20,9 km/h (4 Bft) 100,00 %
09.02.2016 14:35 11,9 C 72 % 996,0 hPa 0,0 l/m 12,9 km/h (3 Bft) O-NO 67 0 min 0,000 mm 0,0 UV-I 127 W/m 7,0 C 8,3 C 20,9 km/h (4 Bft) 100,00 %
09.02.2016 14:40 11,9 C 71 % 995,8 hPa 0,0 l/m 16,1 km/h (3 Bft) O-NO 67 0 min 0,000 mm 0,0 UV-I 100 W/m 6,8 C 7,0 C 24,1 km/h (4 Bft) 100,00 %
09.02.2016 14:45 11,7 C 72 % 995,6 hPa 0,0 l/m 17,7 km/h (3 Bft) O-NO 67 0 min 0,000 mm 0,0 UV-I 80 W/m 6,8 C 6,2 C 25,7 km/h (4 Bft) 100,00 %
09.02.2016 14:50 11,6 C 73 % 995,5 hPa 0,0 l/m 12,9 km/h (3 Bft) O-NO 67 0 min 0,000 mm 0,0 UV-I 89 W/m 6,9 C 7,9 C 20,9 km/h (4 Bft) 99,12 %
09.02.2016 14:55 11,6 C 72 % 995,3 hPa 0,0 l/m 9,7 km/h (2 Bft) O-NO 67 0 min 0,000 mm 0,0 UV-I 96 W/m 6,7 C 9,5 C 17,7 km/h (3 Bft) 100,00 %
09.02.2016 15:00 11,7 C 72 % 995,2 hPa 0,0 l/m 11,3 km/h (2 Bft) O-NO 67 0 min 0,102 mm 0,0 UV-I 94 W/m 6,8 C 8,8 C 17,7 km/h (3 Bft) 100,00 %
09.02.2016 15:05 11,7 C 72 % 995,1 hPa 0,0 l/m 9,7 km/h (2 Bft) O-NO 67 0 min 0,000 mm 0,0 UV-I 82 W/m 6,8 C 9,6 C 16,1 km/h (3 Bft) 100,00 %
09.02.2016 15:10 11,6 C 72 % 995,0 hPa 0,0 l/m 9,7 km/h (2 Bft) NO 45 0 min 0,000 mm 0,0 UV-I 80 W/m 6,7 C 9,5 C 16,1 km/h (3 Bft) 99,12 %
09.02.2016 15:15 11,6 C 72 % 994,9 hPa 0,0 l/m 8,0 km/h (2 Bft) O-NO 67 0 min 0,000 mm 0,0 UV-I 90 W/m 6,7 C 10,5 C 17,7 km/h (3 Bft) 100,00 %
09.02.2016 15:20 11,6 C 73 % 994,8 hPa 0,0 l/m 8,4 km/h (2 Bft) O-NO 63 0 min 0,000 mm 0,0 UV-I 97 W/m 6,9 C 10,3 C 12,9 km/h (3 Bft) 100,00 %
09.02.2016 15:21 11,6 C 73 % 994,8 hPa 0,0 l/m 9,7 km/h (2 Bft) NO 52 0 min 0,000 mm 0,0 UV-I 99 W/m 6,9 C 9,5 C 12,9 km/h (3 Bft) 91,67 %
09.02.2016 15:22 11,6 C 72 % 994,6 hPa 0,0 l/m 8,8 km/h (2 Bft) O-NO 62 0 min 0,000 mm 0,0 UV-I 102 W/m 6,7 C 10,0 C 9,7 km/h (2 Bft) 100,00 %
09.02.2016 15:23 11,6 C 72 % 994,5 hPa 0,0 l/m 9,5 km/h (2 Bft) O 86 0 min 0,000 mm 0,0 UV-I 98 W/m 6,7 C 9,6 C 12,9 km/h (3 Bft) 96,30 %
09.02.2016 15:24 11,6 C 72 % 994,5 hPa 0,0 l/m 10,8 km/h (2 Bft) O-NO 71 0 min 0,000 mm 0,0 UV-I 98 W/m 6,7 C 8,9 C 16,1 km/h (3 Bft) 93,33 %
09.02.2016 15:25 11,6 C 72 % 994,5 hPa 0,0 l/m 10,8 km/h (2 Bft) O-NO 67 0 min 0,000 mm 0,0 UV-I 93 W/m 6,7 C 8,9 C 16,1 km/h (3 Bft) 100,00 %
09.02.2016 15:26 11,6 C 73 % 994,5 hPa 0,0 l/m 10,8 km/h (2 Bft) O-NO 78 0 min 0,000 mm 0,0 UV-I 94 W/m 6,9 C 8,9 C 16,1 km/h (3 Bft) 100,00 %
09.02.2016 15:27 11,6 C 73 % 994,5 hPa 0,0 l/m 10,8 km/h (2 Bft) O-NO 69 0 min 0,000 mm 0,0 UV-I 91 W/m 6,9 C 8,9 C 16,1 km/h (3 Bft) 100,00 %
09.02.2016 15:28 11,6 C 73 % 994,5 hPa 0,0 l/m 13,6 km/h (3 Bft) NO 53 0 min 0,000 mm 0,0 UV-I 91 W/m 6,9 C 7,6 C 17,7 km/h (3 Bft) 96,55 %
09.02.2016 15:29 11,5 C 73 % 994,4 hPa 0,0 l/m 14,8 km/h (3 Bft) NO 53 0 min 0,000 mm 0,0 UV-I 90 W/m 6,8 C 7,0 C 17,7 km/h (3 Bft) 100,00 %
09.02.2016 15:30 11,5 C 73 % 994,4 hPa 0,0 l/m 11,0 km/h (2 Bft) NO 53 0 min 0,000 mm 0,0 UV-I 91 W/m 6,8 C 8,7 C 14,5 km/h (3 Bft) 100,00 %
09.02.2016 15:31 11,5 C 73 % 994,4 hPa 0,0 l/m 11,3 km/h (2 Bft) NO 53 0 min 0,000 mm 0,0 UV-I 94 W/m 6,8 C 8,6 C 17,7 km/h (3 Bft) 100,00 %
09.02.2016 15:32 11,5 C 73 % 994,4 hPa 0,0 l/m 9,4 km/h (2 Bft) O-NO 69 0 min 0,000 mm 0,0 UV-I 97 W/m 6,8 C 9,6 C 12,9 km/h (3 Bft) 98,34 %
09.02.2016 15:33 11,5 C 73 % 994,4 hPa 0,0 l/m 8,9 km/h (2 Bft) O-NO 62 0 min 0,000 mm 0,0 UV-I 100 W/m 6,8 C 9,9 C 12,9 km/h (3 Bft) 97,56 %
09.02.2016 15:34 11,5 C 73 % 994,4 hPa 0,0 l/m 6,2 km/h (2 Bft) O-NO 70 0 min 0,000 mm 0,0 UV-I 105 W/m 6,8 C 11,5 C 8,0 km/h (2 Bft) 100,00 %
09.02.2016 15:35 11,5 C 73 % 994,4 hPa 0,0 l/m 7,3 km/h (2 Bft) NO 49 0 min 0,000 mm 0,0 UV-I 108 W/m 6,8 C 10,9 C 8,0 km/h (2 Bft) 96,88 %
09.02.2016 15:36 11,5 C 73 % 994,3 hPa 0,0 l/m 8,6 km/h (2 Bft) O-NO 61 0 min 0,000 mm 0,0 UV-I 111 W/m 6,8 C 10,1 C 12,9 km/h (3 Bft) 100,00 %
09.02.2016 15:37 11,5 C 73 % 994,3 hPa 0,0 l/m 10,0 km/h (2 Bft) O-NO 61 0 min 0,000 mm 0,0 UV-I 111 W/m 6,8 C 9,3 C 12,9 km/h (3 Bft) 100,00 %
09.02.2016 15:38 11,5 C 73 % 994,3 hPa 0,0 l/m 8,9 km/h (2 Bft) O-NO 71 0 min 0,000 mm 0,0 UV-I 110 W/m 6,8 C 9,9 C 11,3 km/h (2 Bft) 100,00 %
09.02.2016 15:39 11,5 C 72 % 994,3 hPa 0,0 l/m 8,4 km/h (2 Bft) O-NO 69 0 min 0,000 mm 0,0 UV-I 106 W/m 6,6 C 10,2 C 12,9 km/h (3 Bft) 92,86 %
09.02.2016 15:40 11,5 C 73 % 994,3 hPa 0,0 l/m 5,6 km/h (1 Bft) NO 49 0 min 0,000 mm 0,0 UV-I 98 W/m 6,8 C 11,5 C 6,4 km/h (2 Bft) 100,00 %
09.02.2016 15:41 11,5 C 73 % 994,2 hPa 0,0 l/m 6,4 km/h (2 Bft) O-NO 72 0 min 0,000 mm 0,0 UV-I 94 W/m 6,8 C 11,5 C 8,0 km/h (2 Bft) 100,00 %
09.02.2016 15:42 11,4 C 73 % 994,2 hPa 0,0 l/m 5,6 km/h (1 Bft) NO 42 0 min 0,000 mm 0,0 UV-I 90 W/m 6,7 C 11,4 C 6,4 km/h (2 Bft) 100,00 %
09.02.2016 15:43 11,4 C 73 % 994,2 hPa 0,0 l/m 3,9 km/h (1 Bft) O-NO 64 0 min 0,000 mm 0,0 UV-I 86 W/m 6,7 C 11,4 C 4,8 km/h (1 Bft) 100,00 %
09.02.2016 15:44 11,4 C 73 % 994,3 hPa 0,0 l/m 5,2 km/h (1 Bft) O-NO 63 0 min 0,000 mm 0,0 UV-I 82 W/m 6,7 C 11,4 C 8,0 km/h (2 Bft) 100,00 %
09.02.2016 15:45 11,4 C 73 % 994,3 hPa 0,0 l/m 5,2 km/h (1 Bft) O-NO 57 0 min 0,000 mm 0,0 UV-I 79 W/m 6,7 C 11,4 C 6,4 km/h (2 Bft) 95,65 %
09.02.2016 15:46 11,4 C 73 % 994,3 hPa 0,0 l/m 5,2 km/h (1 Bft) O-NO 71 0 min 0,000 mm 0,0 UV-I 77 W/m 6,7 C 11,4 C 6,4 km/h (2 Bft) 100,00 %
09.02.2016 15:47 11,3 C 73 % 994,3 hPa 0,0 l/m 5,1 km/h (1 Bft) NO 43 0 min 0,000 mm 0,0 UV-I 77 W/m 6,6 C 11,3 C 8,0 km/h (2 Bft) 100,00 %
09.02.2016 15:48 11,3 C 74 % 994,2 hPa 0,0 l/m 5,0 km/h (1 Bft) NO 51 0 min 0,000 mm 0,0 UV-I 77 W/m 6,8 C 11,3 C 6,4 km/h (2 Bft) 100,00 %
09.02.2016 15:49 11,3 C 74 % 994,2 hPa 0,0 l/m 4,9 km/h (1 Bft) NO 55 0 min 0,000 mm 0,0 UV-I 79 W/m 6,8 C 11,3 C 6,4 km/h (2 Bft) 100,00 %
09.02.2016 15:50 11,3 C 73 % 994,2 hPa 0,0 l/m 6,0 km/h (2 Bft) O-NO 59 0 min 0,000 mm 0,0 UV-I 81 W/m 6,6 C 11,3 C 6,4 km/h (2 Bft) 100,00 %
09.02.2016 15:51 11,3 C 73 % 994,1 hPa 0,0 l/m 7,1 km/h (2 Bft) O-NO 62 0 min 0,000 mm 0,0 UV-I 81 W/m 6,6 C 10,8 C 9,7 km/h (2 Bft) 100,00 %
09.02.2016 15:52 11,3 C 73 % 994,1 hPa 0,0 l/m 8,8 km/h (2 Bft) NO 55 0 min 0,000 mm 0,0 UV-I 81 W/m 6,6 C 9,7 C 11,3 km/h (2 Bft) 91,30 %
09.02.2016 15:53 11,3 C 73 % 994,0 hPa 0,0 l/m 12,3 km/h (3 Bft) NO 53 0 min 0,000 mm 0,0 UV-I 78 W/m 6,6 C 7,9 C 16,1 km/h (3 Bft) 100,00 %
09.02.2016 15:54 11,3 C 73 % 994,0 hPa 0,0 l/m 9,3 km/h (2 Bft) O-NO 63 0 min 0,000 mm 0,0 UV-I 76 W/m 6,6 C 9,4 C 14,5 km/h (3 Bft) 100,00 %
09.02.2016 15:55 11,4 C 72 % 994,0 hPa 0,0 l/m 8,0 km/h (2 Bft) O-NO 63 0 min 0,000 mm 0,0 UV-I 73 W/m 6,5 C 10,3 C 9,7 km/h (2 Bft) 100,00 %
09.02.2016 15:56 11,4 C 73 % 994,0 hPa 0,0 l/m 7,6 km/h (2 Bft) NO 51 0 min 0,000 mm 0,0 UV-I 70 W/m 6,7 C 10,6 C 9,7 km/h (2 Bft) 100,00 %
09.02.2016 15:57 11,4 C 72 % 994,0 hPa 0,0 l/m 8,0 km/h (2 Bft) O-NO 63 0 min 0,000 mm 0,0 UV-I 69 W/m 6,5 C 10,3 C 12,9 km/h (3 Bft) 96,30 %
09.02.2016 15:58 11,3 C 73 % 993,9 hPa 0,0 l/m 3,9 km/h (1 Bft) NO 51 0 min 0,000 mm 0,0 UV-I 68 W/m 6,6 C 11,3 C 4,8 km/h (1 Bft) 95,65 %
09.02.2016 15:59 11,3 C 73 % 993,9 hPa 0,0 l/m 5,8 km/h (2 Bft) NO 48 0 min 0,000 mm 0,0 UV-I 65 W/m 6,6 C 11,3 C 8,0 km/h (2 Bft) 100,00 %
09.02.2016 16:00 11,3 C 73 % 994,0 hPa 0,0 l/m 6,1 km/h (2 Bft) O 80 0 min 0,076 mm 0,0 UV-I 63 W/m 6,6 C 11,3 C 8,0 km/h (2 Bft) 100,00 %
09.02.2016 16:01 11,3 C 73 % 993,9 hPa 0,0 l/m 5,9 km/h (2 Bft) O-NO 57 0 min 0,000 mm 0,0 UV-I 62 W/m 6,6 C 11,3 C 8,0 km/h (2 Bft) 95,83 %
09.02.2016 16:02 11,3 C 73 % 993,9 hPa 0,0 l/m 7,3 km/h (2 Bft) O-NO 58 0 min 0,000 mm 0,0 UV-I 59 W/m 6,6 C 10,7 C 9,7 km/h (2 Bft) 100,00 %
09.02.2016 16:03 11,3 C 72 % 993,9 hPa 0,0 l/m 6,0 km/h (2 Bft) O-NO 57 0 min 0,000 mm 0,0 UV-I 57 W/m 6,4 C 11,3 C 8,0 km/h (2 Bft) 95,83 %
09.02.2016 16:04 11,3 C 72 % 993,9 hPa 0,0 l/m 6,1 km/h (2 Bft) O-NO 60 0 min 0,000 mm 0,0 UV-I 56 W/m 6,4 C 11,3 C 8,0 km/h (2 Bft) 92,31 %
09.02.2016 16:05 11,3 C 73 % 993,9 hPa 0,0 l/m 5,5 km/h (1 Bft) O-NO 67 0 min 0,000 mm 0,0 UV-I 54 W/m 6,6 C 11,3 C 8,0 km/h (2 Bft) 100,00 %
09.02.2016 16:06 11,3 C 72 % 993,8 hPa 0,0 l/m 7,6 km/h (2 Bft) NO 56 0 min 0,000 mm 0,0 UV-I 54 W/m 6,4 C 10,5 C 11,3 km/h (2 Bft) 100,00 %
09.02.2016 16:07 11,3 C 72 % 993,7 hPa 0,0 l/m 8,9 km/h (2 Bft) NO 46 0 min 0,000 mm 0,0 UV-I 52 W/m 6,4 C 9,7 C 9,7 km/h (2 Bft) 100,00 %
09.02.2016 16:08 11,3 C 72 % 993,7 hPa 0,0 l/m 8,8 km/h (2 Bft) O-NO 59 0 min 0,000 mm 0,0 UV-I 50 W/m 6,4 C 9,7 C 11,3 km/h (2 Bft) 100,00 %
09.02.2016 16:09 11,3 C 73 % 993,7 hPa 0,0 l/m 7,7 km/h (2 Bft) O-NO 65 0 min 0,000 mm 0,0 UV-I 48 W/m 6,6 C 10,4 C 9,7 km/h (2 Bft) 100,00 %
09.02.2016 16:10 11,2 C 73 % 993,7 hPa 0,0 l/m 7,9 km/h (2 Bft) NO 55 0 min 0,000 mm 0,0 UV-I 47 W/m 6,5 C 10,2 C 9,7 km/h (2 Bft) 100,00 %
09.02.2016 16:11 11,2 C 72 % 993,7 hPa 0,0 l/m 5,5 km/h (1 Bft) O-NO 62 0 min 0,000 mm 0,0 UV-I 46 W/m 6,3 C 11,2 C 6,4 km/h (2 Bft) 96,15 %
09.02.2016 16:12 11,2 C 72 % 993,7 hPa 0,0 l/m 5,5 km/h (1 Bft) NO 50 0 min 0,000 mm 0,0 UV-I 44 W/m 6,3 C 11,2 C 6,4 km/h (2 Bft) 100,00 %
09.02.2016 16:13 11,2 C 72 % 993,7 hPa 0,0 l/m 5,8 km/h (2 Bft) NO 49 0 min 0,000 mm 0,0 UV-I 42 W/m 6,3 C 11,2 C 8,0 km/h (2 Bft) 100,00 %
09.02.2016 16:14 11,2 C 72 % 993,6 hPa 0,0 l/m 6,7 km/h (2 Bft) O-NO 60 0 min 0,000 mm 0,0 UV-I 40 W/m 6,3 C 11,0 C 8,0 km/h (2 Bft) 100,00 %
09.02.2016 16:15 11,2 C 72 % 993,6 hPa 0,0 l/m 5,8 km/h (2 Bft) O-NO 64 0 min 0,000 mm 0,0 UV-I 39 W/m 6,3 C 11,2 C 8,0 km/h (2 Bft) 100,00 %
09.02.2016 16:16 11,2 C 72 % 993,5 hPa 0,0 l/m 7,0 km/h (2 Bft) O-NO 70 0 min 0,000 mm 0,0 UV-I 38 W/m 6,3 C 10,8 C 9,7 km/h (2 Bft) 95,83 %
09.02.2016 16:17 11,1 C 72 % 993,4 hPa 0,0 l/m 8,0 km/h (2 Bft) NO 55 0 min 0,000 mm 0,0 UV-I 37 W/m 6,2 C 10,0 C 11,3 km/h (2 Bft) 100,00 %
09.02.2016 16:18 11,2 C 72 % 993,4 hPa 0,0 l/m 8,2 km/h (2 Bft) O-NO 60 0 min 0,000 mm 0,0 UV-I 37 W/m 6,3 C 10,0 C 9,7 km/h (2 Bft) 95,83 %
09.02.2016 16:19 11,1 C 72 % 993,4 hPa 0,0 l/m 8,6 km/h (2 Bft) NO 38 0 min 0,000 mm 0,0 UV-I 37 W/m 6,2 C 9,6 C 9,7 km/h (2 Bft) 100,00 %
09.02.2016 16:20 11,1 C 72 % 993,3 hPa 0,0 l/m 9,3 km/h (2 Bft) NO 56 0 min 0,000 mm 0,0 UV-I 38 W/m 6,2 C 9,2 C 11,3 km/h (2 Bft) 100,00 %
09.02.2016 16:21 11,1 C 73 % 993,3 hPa 0,0 l/m 8,7 km/h (2 Bft) NO 52 0 min 0,000 mm 0,0 UV-I 39 W/m 6,4 C 9,6 C 11,3 km/h (2 Bft) 100,00 %
09.02.2016 16:22 11,1 C 72 % 993,2 hPa 0,0 l/m 9,3 km/h (2 Bft) NO 55 0 min 0,000 mm 0,0 UV-I 38 W/m 6,2 C 9,2 C 9,7 km/h (2 Bft) 100,00 %
09.02.2016 16:23 11,1 C 73 % 993,2 hPa 0,0 l/m 9,5 km/h (2 Bft) NO 56 0 min 0,000 mm 0,0 UV-I 37 W/m 6,4 C 9,1 C 12,9 km/h (3 Bft) 100,00 %
09.02.2016 16:24 11,1 C 72 % 993,2 hPa 0,0 l/m 9,9 km/h (2 Bft) NO 51 0 min 0,000 mm 0,0 UV-I 37 W/m 6,2 C 8,9 C 11,3 km/h (2 Bft) 100,00 %
09.02.2016 16:25 11,1 C 72 % 993,2 hPa 0,0 l/m 9,2 km/h (2 Bft) NO 46 0 min 0,000 mm 0,0 UV-I 37 W/m 6,2 C 9,3 C 11,3 km/h (2 Bft) 93,33 %
09.02.2016 16:26 11,1 C 72 % 993,1 hPa 0,0 l/m 8,1 km/h (2 Bft) O-NO 61 0 min 0,000 mm 0,0 UV-I 37 W/m 6,2 C 9,9 C 12,9 km/h (3 Bft) 97,73 %
09.02.2016 16:27 11,1 C 72 % 993,1 hPa 0,0 l/m 8,9 km/h (2 Bft) NO 50 0 min 0,000 mm 0,0 UV-I 36 W/m 6,2 C 9,4 C 12,9 km/h (3 Bft) 100,00 %
09.02.2016 16:28 11,1 C 72 % 993,1 hPa 0,0 l/m 6,7 km/h (2 Bft) O-NO 69 0 min 0,000 mm 0,0 UV-I 33 W/m 6,2 C 10,9 C 8,0 km/h (2 Bft) 100,00 %
09.02.2016 16:29 11,1 C 72 % 993,1 hPa 0,0 l/m 7,5 km/h (2 Bft) O 82 0 min 0,000 mm 0,0 UV-I 33 W/m 6,2 C 10,3 C 9,7 km/h (2 Bft) 100,00 %
09.02.2016 16:30 11,0 C 72 % 993,1 hPa 0,0 l/m 8,6 km/h (2 Bft) O-NO 58 0 min 0,000 mm 0,0 UV-I 32 W/m 6,2 C 9,5 C 11,3 km/h (2 Bft) 100,00 %
09.02.2016 16:31 11,0 C 73 % 993,0 hPa 0,0 l/m 8,4 km/h (2 Bft) NO 54 0 min 0,000 mm 0,0 UV-I 29 W/m 6,4 C 9,6 C 12,9 km/h (3 Bft) 100,00 %
09.02.2016 16:32 10,9 C 73 % 992,9 hPa 0,0 l/m 6,3 km/h (2 Bft) O-NO 57 0 min 0,000 mm 0,0 UV-I 27 W/m 6,3 C 10,9 C 9,7 km/h (2 Bft) 100,00 %
09.02.2016 16:33 10,9 C 73 % 992,9 hPa 0,0 l/m 8,1 km/h (2 Bft) O-NO 78 0 min 0,000 mm 0,0 UV-I 26 W/m 6,3 C 9,7 C 9,7 km/h (2 Bft) 98,73 %
09.02.2016 16:34 10,9 C 73 % 992,9 hPa 0,0 l/m 7,6 km/h (2 Bft) NO 45 0 min 0,000 mm 0,0 UV-I 25 W/m 6,3 C 10,1 C 9,7 km/h (2 Bft) 100,00 %
09.02.2016 16:35 10,9 C 73 % 992,9 hPa 0,0 l/m 7,4 km/h (2 Bft) O-NO 65 0 min 0,000 mm 0,0 UV-I 23 W/m 6,3 C 10,2 C 8,0 km/h (2 Bft) 100,00 %
09.02.2016 16:36 10,8 C 73 % 992,9 hPa 0,0 l/m 8,8 km/h (2 Bft) O-NO 66 0 min 0,000 mm 0,0 UV-I 23 W/m 6,2 C 9,2 C 12,9 km/h (3 Bft) 100,00 %
09.02.2016 16:37 10,8 C 73 % 992,9 hPa 0,0 l/m 7,8 km/h (2 Bft) NO 51 0 min 0,000 mm 0,0 UV-I 22 W/m 6,2 C 9,8 C 9,7 km/h (2 Bft) 100,00 %
09.02.2016 16:38 10,8 C 73 % 992,9 hPa 0,0 l/m 11,4 km/h (2 Bft) O 83 0 min 0,000 mm 0,0 UV-I 21 W/m 6,2 C 7,7 C 16,1 km/h (3 Bft) 100,00 %
09.02.2016 16:39 10,8 C 73 % 992,9 hPa 0,0 l/m 10,3 km/h (2 Bft) O 90 0 min 0,000 mm 0,0 UV-I 20 W/m 6,2 C 8,3 C 12,9 km/h (3 Bft) 100,00 %
09.02.2016 16:40 10,8 C 73 % 992,9 hPa 0,0 l/m 8,6 km/h (2 Bft) O 82 0 min 0,000 mm 0,0 UV-I 19 W/m 6,2 C 9,3 C 12,9 km/h (3 Bft) 95,65 %
09.02.2016 16:41 10,8 C 72 % 992,9 hPa 0,0 l/m 10,7 km/h (2 Bft) O-SO 109 0 min 0,000 mm 0,0 UV-I 18 W/m 6,0 C 8,1 C 14,5 km/h (3 Bft) 100,00 %
09.02.2016 16:42 10,8 C 72 % 992,9 hPa 0,0 l/m 6,9 km/h (2 Bft) O-NO 67 0 min 0,000 mm 0,0 UV-I 18 W/m 6,0 C 10,5 C 8,0 km/h (2 Bft) 100,00 %
09.02.2016 16:43 10,8 C 72 % 992,9 hPa 0,0 l/m 7,3 km/h (2 Bft) O 92 0 min 0,000 mm 0,0 UV-I 16 W/m 6,0 C 10,2 C 11,3 km/h (2 Bft) 100,00 %
09.02.2016 16:44 10,8 C 72 % 992,9 hPa 0,0 l/m 10,2 km/h (2 Bft) O 85 0 min 0,000 mm 0,0 UV-I 15 W/m 6,0 C 8,4 C 14,5 km/h (3 Bft) 100,00 %
09.02.2016 16:45 10,8 C 72 % 992,9 hPa 0,0 l/m 7,6 km/h (2 Bft) O-NO 76 0 min 0,000 mm 0,0 UV-I 14 W/m 6,0 C 10,0 C 12,9 km/h (3 Bft) 100,00 %
09.02.2016 16:46 10,8 C 72 % 992,9 hPa 0,0 l/m 8,1 km/h (2 Bft) O 84 0 min 0,000 mm 0,0 UV-I 14 W/m 6,0 C 9,6 C 12,9 km/h (3 Bft) 100,00 %
09.02.2016 16:47 10,8 C 72 % 992,9 hPa 0,0 l/m 7,5 km/h (2 Bft) O-SO 105 0 min 0,000 mm 0,0 UV-I 12 W/m 6,0 C 10,0 C 11,3 km/h (2 Bft) 100,00 %
09.02.2016 16:48 10,8 C 73 % 992,9 hPa 0,0 l/m 4,9 km/h (1 Bft) O 83 0 min 0,000 mm 0,0 UV-I 12 W/m 6,2 C 10,8 C 6,4 km/h (2 Bft) 100,00 %
09.02.2016 16:49 10,7 C 73 % 992,7 hPa 0,0 l/m 6,0 km/h (2 Bft) O-NO 77 0 min 0,000 mm 0,0 UV-I 12 W/m 6,1 C 10,7 C 8,0 km/h (2 Bft) 100,00 %
09.02.2016 16:50 10,6 C 73 % 992,7 hPa 0,0 l/m 4,0 km/h (1 Bft) O 95 0 min 0,000 mm 0,0 UV-I 12 W/m 6,0 C 10,6 C 6,4 km/h (2 Bft) 100,00 %
09.02.2016 16:51 10,6 C 73 % 992,5 hPa 0,0 l/m 5,6 km/h (1 Bft) O 82 0 min 0,000 mm 0,0 UV-I 11 W/m 6,0 C 10,6 C 8,0 km/h (2 Bft) 96,15 %
09.02.2016 16:52 10,6 C 73 % 992,5 hPa 0,0 l/m 5,5 km/h (1 Bft) O-NO 70 0 min 0,000 mm 0,0 UV-I 11 W/m 6,0 C 10,6 C 8,0 km/h (2 Bft) 100,00 %
09.02.2016 16:53 10,6 C 73 % 992,5 hPa 0,0 l/m 7,7 km/h (2 Bft) O-NO 61 0 min 0,000 mm 0,0 UV-I 11 W/m 6,0 C 9,7 C 11,3 km/h (2 Bft) 90,91 %
09.02.2016 16:54 10,6 C 73 % 992,5 hPa 0,0 l/m 9,8 km/h (2 Bft) O 93 0 min 0,000 mm 0,0 UV-I 9 W/m 6,0 C 8,4 C 12,9 km/h (3 Bft) 100,00 %
09.02.2016 16:55 10,6 C 73 % 992,5 hPa 0,0 l/m 10,4 km/h (2 Bft) O 81 0 min 0,000 mm 0,0 UV-I 8 W/m 6,0 C 8,0 C 12,9 km/h (3 Bft) 94,29 %
09.02.2016 16:56 10,6 C 73 % 992,5 hPa 0,0 l/m 7,4 km/h (2 Bft) O 88 0 min 0,000 mm 0,0 UV-I 7 W/m 6,0 C 9,9 C 11,3 km/h (2 Bft) 100,00 %
09.02.2016 16:57 10,6 C 74 % 992,5 hPa 0,0 l/m 6,8 km/h (2 Bft) O-NO 72 0 min 0,000 mm 0,0 UV-I 7 W/m 6,2 C 10,3 C 9,7 km/h (2 Bft) 96,15 %
09.02.2016 16:58 10,5 C 73 % 992,4 hPa 0,0 l/m 6,8 km/h (2 Bft) O-NO 70 0 min 0,000 mm 0,0 UV-I 7 W/m 5,9 C 10,2 C 9,7 km/h (2 Bft) 96,30 %
09.02.2016 16:59 10,5 C 73 % 992,3 hPa 0,0 l/m 7,5 km/h (2 Bft) O 84 0 min 0,000 mm 0,0 UV-I 5 W/m 5,9 C 9,7 C 9,7 km/h (2 Bft) 100,00 %
09.02.2016 17:00 10,6 C 72 % 992,3 hPa 0,0 l/m 3,5 km/h (1 Bft) O-NO 74 0 min 0,051 mm 0,0 UV-I 5 W/m 5,8 C 10,6 C 6,4 km/h (2 Bft) 95,83 %
09.02.2016 17:01 10,6 C 73 % 992,4 hPa 0,0 l/m 4,1 km/h (1 Bft) O 90 0 min 0,000 mm 0,0 UV-I 5 W/m 6,0 C 10,6 C 6,4 km/h (2 Bft) 96,15 %
09.02.2016 17:02 10,6 C 73 % 992,4 hPa 0,0 l/m 4,2 km/h (1 Bft) O 88 0 min 0,000 mm 0,0 UV-I 5 W/m 6,0 C 10,6 C 6,4 km/h (2 Bft) 100,00 %
09.02.2016 17:03 10,5 C 74 % 992,4 hPa 0,0 l/m 1,4 km/h (1 Bft) O 88 0 min 0,000 mm 0,0 UV-I 5 W/m 6,1 C 10,5 C 4,8 km/h (1 Bft) 96,55 %
09.02.2016 17:04 10,4 C 75 % 992,4 hPa 0,0 l/m 1,1 km/h (1 Bft) O 88 0 min 0,000 mm 0,0 UV-I 1 W/m 6,2 C 10,4 C 3,2 km/h (1 Bft) 96,30 %
09.02.2016 17:05 10,3 C 75 % 992,4 hPa 0,0 l/m 0,7 km/h (0 Bft) O 89 0 min 0,000 mm 0,0 UV-I 0 W/m 6,1 C 10,3 C 1,6 km/h (1 Bft) 95,65 %
09.02.2016 17:06 10,2 C 76 % 992,4 hPa 0,0 l/m 0,0 km/h (0 Bft) O 88 0 min 0,000 mm 0,0 UV-I 0 W/m 6,2 C 10,2 C 0,0 km/h (0 Bft) 100,00 %
09.02.2016 17:07 10,0 C 76 % 992,4 hPa 0,0 l/m 2,0 km/h (1 Bft) O 88 0 min 0,000 mm 0,0 UV-I 0 W/m 6,0 C 10,0 C 3,2 km/h (1 Bft) 93,10 %
09.02.2016 17:08 9,9 C 77 % 992,3 hPa 0,0 l/m 1,6 km/h (1 Bft) O 88 0 min 0,000 mm 0,0 UV-I 0 W/m 6,1 C 9,9 C 3,2 km/h (1 Bft) 96,67 %
09.02.2016 17:09 9,9 C 77 % 992,2 hPa 0,0 l/m 3,2 km/h (1 Bft) O-NO 75 0 min 0,000 mm 0,0 UV-I 0 W/m 6,1 C 9,9 C 6,4 km/h (2 Bft) 95,65 %
09.02.2016 17:10 9,8 C 77 % 992,2 hPa 0,0 l/m 4,0 km/h (1 Bft) O-NO 62 0 min 0,000 mm 0,0 UV-I 0 W/m 6,0 C 9,8 C 6,4 km/h (2 Bft) 95,83 %
09.02.2016 17:11 9,9 C 76 % 992,2 hPa 0,0 l/m 3,0 km/h (1 Bft) O-NO 75 0 min 0,000 mm 0,0 UV-I 0 W/m 5,9 C 9,9 C 6,4 km/h (2 Bft) 100,00 %
09.02.2016 17:12 9,9 C 75 % 992,2 hPa 0,0 l/m 1,4 km/h (1 Bft) O-NO 75 0 min 0,000 mm 0,0 UV-I 0 W/m 5,7 C 9,9 C 3,2 km/h (1 Bft) 100,00 %
09.02.2016 17:13 9,9 C 75 % 992,1 hPa 0,0 l/m 2,5 km/h (1 Bft) O-NO 73 0 min 0,000 mm 0,0 UV-I 0 W/m 5,7 C 9,9 C 6,4 km/h (2 Bft) 95,83 %
09.02.2016 17:14 10,0 C 75 % 992,1 hPa 0,0 l/m 3,8 km/h (1 Bft) O-NO 71 0 min 0,000 mm 0,0 UV-I 0 W/m 5,8 C 10,0 C 6,4 km/h (2 Bft) 95,65 %
09.02.2016 17:15 10,0 C 75 % 992,1 hPa 0,0 l/m 1,3 km/h (1 Bft) O-NO 71 0 min 0,000 mm 0,0 UV-I 0 W/m 5,8 C 10,0 C 1,6 km/h (1 Bft) 100,00 %
09.02.2016 17:16 10,0 C 76 % 992,2 hPa 0,0 l/m 3,7 km/h (1 Bft) O 94 0 min 0,000 mm 0,0 UV-I 0 W/m 6,0 C 10,0 C 6,4 km/h (2 Bft) 95,65 %
09.02.2016 17:17 9,9 C 76 % 992,1 hPa 0,0 l/m 1,8 km/h (1 Bft) O 90 0 min 0,000 mm 0,0 UV-I 0 W/m 5,9 C 9,9 C 3,2 km/h (1 Bft) 100,00 %
09.02.2016 17:18 9,8 C 76 % 992,1 hPa 0,0 l/m 1,1 km/h (1 Bft) O 92 0 min 0,000 mm 0,0 UV-I 0 W/m 5,8 C 9,8 C 3,2 km/h (1 Bft) 95,65 %
09.02.2016 17:19 9,8 C 77 % 992,1 hPa 0,0 l/m 3,6 km/h (1 Bft) O 92 0 min 0,000 mm 0,0 UV-I 0 W/m 6,0 C 9,8 C 4,8 km/h (1 Bft) 100,00 %
09.02.2016 17:20 9,7 C 77 % 992,1 hPa 0,0 l/m 3,4 km/h (1 Bft) O 91 0 min 0,000 mm 0,0 UV-I 0 W/m 5,9 C 9,7 C 4,8 km/h (1 Bft) 92,31 %
09.02.2016 17:21 9,7 C 77 % 992,0 hPa 0,0 l/m 3,6 km/h (1 Bft) O-NO 70 0 min 0,000 mm 0,0 UV-I 0 W/m 5,9 C 9,7 C 4,8 km/h (1 Bft) 100,00 %
09.02.2016 17:22 9,7 C 77 % 992,0 hPa 0,0 l/m 2,3 km/h (1 Bft) O-NO 74 0 min 0,000 mm 0,0 UV-I 0 W/m 5,9 C 9,7 C 4,8 km/h (1 Bft) 96,15 %
09.02.2016 17:23 9,6 C 78 % 992,0 hPa 0,0 l/m 1,0 km/h (0 Bft) O-NO 74 0 min 0,000 mm 0,0 UV-I 0 W/m 6,0 C 9,6 C 1,6 km/h (1 Bft) 96,30 %
09.02.2016 17:24 9,6 C 78 % 992,0 hPa 0,0 l/m 5,7 km/h (1 Bft) O-NO 72 0 min 0,000 mm 0,0 UV-I 0 W/m 6,0 C 9,6 C 6,4 km/h (2 Bft) 100,00 %
09.02.2016 17:25 9,6 C 77 % 991,9 hPa 0,0 l/m 4,0 km/h (1 Bft) O-NO 59 0 min 0,000 mm 0,0 UV-I 0 W/m 5,8 C 9,6 C 4,8 km/h (1 Bft) 97,37 %
09.02.2016 17:26 9,6 C 76 % 991,9 hPa 0,0 l/m 5,2 km/h (1 Bft) O-NO 59 0 min 0,000 mm 0,0 UV-I 0 W/m 5,6 C 9,6 C 8,0 km/h (2 Bft) 100,00 %
09.02.2016 17:27 9,7 C 77 % 991,9 hPa 0,0 l/m 5,2 km/h (1 Bft) O 88 0 min 0,000 mm 0,0 UV-I 0 W/m 5,9 C 9,7 C 6,4 km/h (2 Bft) 92,31 %
09.02.2016 17:28 9,7 C 76 % 991,9 hPa 0,0 l/m 6,4 km/h (2 Bft) O-NO 74 0 min 0,000 mm 0,0 UV-I 0 W/m 5,7 C 9,7 C 8,0 km/h (2 Bft) 100,00 %
09.02.2016 17:29 9,7 C 76 % 991,9 hPa 0,0 l/m 5,9 km/h (2 Bft) O-NO 76 0 min 0,000 mm 0,0 UV-I 0 W/m 5,7 C 9,7 C 11,3 km/h (2 Bft) 100,00 %
09.02.2016 17:30 9,7 C 77 % 992,0 hPa 0,0 l/m 2,3 km/h (1 Bft) O-NO 76 0 min 0,000 mm 0,0 UV-I 0 W/m 5,9 C 9,7 C 4,8 km/h (1 Bft) 100,00 %
09.02.2016 17:31 9,6 C 78 % 991,9 hPa 0,0 l/m 2,3 km/h (1 Bft) O-NO 76 0 min 0,000 mm 0,0 UV-I 0 W/m 6,0 C 9,6 C 4,8 km/h (1 Bft) 100,00 %
09.02.2016 17:32 9,4 C 78 % 991,9 hPa 0,0 l/m 2,8 km/h (1 Bft) O-NO 77 0 min 0,000 mm 0,0 UV-I 0 W/m 5,8 C 9,4 C 4,8 km/h (1 Bft) 100,00 %
09.02.2016 17:33 9,3 C 79 % 991,9 hPa 0,0 l/m 3,9 km/h (1 Bft) O-NO 76 0 min 0,000 mm 0,0 UV-I 0 W/m 5,8 C 9,3 C 6,4 km/h (2 Bft) 100,00 %
09.02.2016 17:34 9,2 C 80 % 991,9 hPa 0,0 l/m 5,0 km/h (1 Bft) O 94 0 min 0,000 mm 0,0 UV-I 0 W/m 5,9 C 9,2 C 6,4 km/h (2 Bft) 91,67 %
09.02.2016 17:35 9,0 C 80 % 991,8 hPa 0,0 l/m 7,4 km/h (2 Bft) O 100 0 min 0,000 mm 0,0 UV-I 0 W/m 5,7 C 8,2 C 11,3 km/h (2 Bft) 100,00 %
09.02.2016 17:36 8,9 C 80 % 991,9 hPa 0,0 l/m 9,3 km/h (2 Bft) O 88 0 min 0,000 mm 0,0 UV-I 0 W/m 5,6 C 6,8 C 12,9 km/h (3 Bft) 100,00 %
09.02.2016 17:37 8,9 C 79 % 991,8 hPa 0,0 l/m 8,3 km/h (2 Bft) O 84 0 min 0,000 mm 0,0 UV-I 0 W/m 5,5 C 7,5 C 11,3 km/h (2 Bft) 96,15 %
09.02.2016 17:38 8,9 C 79 % 991,8 hPa 0,0 l/m 3,9 km/h (1 Bft) O-NO 76 0 min 0,000 mm 0,0 UV-I 0 W/m 5,5 C 8,9 C 6,4 km/h (2 Bft) 100,00 %
09.02.2016 17:39 9,1 C 78 % 991,8 hPa 0,0 l/m 4,6 km/h (1 Bft) O-SO 112 0 min 0,000 mm 0,0 UV-I 0 W/m 5,5 C 9,1 C 6,4 km/h (2 Bft) 100,00 %
09.02.2016 17:40 9,2 C 77 % 991,9 hPa 0,0 l/m 6,4 km/h (2 Bft) O-SO 113 0 min 0,000 mm 0,0 UV-I 0 W/m 5,4 C 9,2 C 12,9 km/h (3 Bft) 100,00 %
09.02.2016 17:41 9,3 C 77 % 991,9 hPa 0,0 l/m 2,3 km/h (1 Bft) O-SO 113 0 min 0,000 mm 0,0 UV-I 0 W/m 5,5 C 9,3 C 4,8 km/h (1 Bft) 100,00 %
09.02.2016 17:42 9,3 C 78 % 991,9 hPa 0,0 l/m 4,4 km/h (1 Bft) SO 129 0 min 0,000 mm 0,0 UV-I 0 W/m 5,7 C 9,3 C 6,4 km/h (2 Bft) 100,00 %
09.02.2016 17:43 9,3 C 78 % 991,8 hPa 0,0 l/m 3,9 km/h (1 Bft) O-SO 115 0 min 0,000 mm 0,0 UV-I 0 W/m 5,7 C 9,3 C 6,4 km/h (2 Bft) 100,00 %
09.02.2016 17:44 9,3 C 79 % 991,8 hPa 0,0 l/m 5,4 km/h (1 Bft) O-SO 114 0 min 0,000 mm 0,0 UV-I 0 W/m 5,8 C 9,3 C 9,7 km/h (2 Bft) 100,00 %
09.02.2016 17:45 9,2 C 80 % 991,9 hPa 0,0 l/m 2,6 km/h (1 Bft) O-SO 114 0 min 0,000 mm 0,0 UV-I 0 W/m 5,9 C 9,2 C 4,8 km/h (1 Bft) 96,15 %
09.02.2016 17:46 9,1 C 80 % 991,9 hPa 0,0 l/m 1,9 km/h (1 Bft) O-SO 111 0 min 0,000 mm 0,0 UV-I 0 W/m 5,8 C 9,1 C 4,8 km/h (1 Bft) 100,00 %
09.02.2016 17:47 9,0 C 80 % 991,8 hPa 0,0 l/m 5,7 km/h (1 Bft) O 96 0 min 0,000 mm 0,0 UV-I 0 W/m 5,7 C 9,0 C 9,7 km/h (2 Bft) 100,00 %
09.02.2016 17:48 8,9 C 80 % 991,8 hPa 0,0 l/m 4,6 km/h (1 Bft) O-SO 113 0 min 0,000 mm 0,0 UV-I 0 W/m 5,6 C 8,9 C 6,4 km/h (2 Bft) 100,00 %
09.02.2016 17:49 8,9 C 80 % 991,8 hPa 0,0 l/m 4,7 km/h (1 Bft) O-SO 113 0 min 0,000 mm 0,0 UV-I 0 W/m 5,6 C 8,9 C 6,4 km/h (2 Bft) 96,15 %
09.02.2016 17:50 8,9 C 79 % 991,8 hPa 0,0 l/m 4,2 km/h (1 Bft) O-SO 111 0 min 0,000 mm 0,0 UV-I 0 W/m 5,5 C 8,9 C 4,8 km/h (1 Bft) 100,00 %
09.02.2016 17:51 8,9 C 80 % 991,8 hPa 0,0 l/m 5,2 km/h (1 Bft) O 82 0 min 0,000 mm 0,0 UV-I 0 W/m 5,6 C 8,9 C 6,4 km/h (2 Bft) 91,67 %
09.02.2016 17:52 8,9 C 80 % 991,7 hPa 0,0 l/m 5,2 km/h (1 Bft) O-NO 74 0 min 0,000 mm 0,0 UV-I 0 W/m 5,6 C 8,9 C 6,4 km/h (2 Bft) 100,00 %
09.02.2016 17:53 9,0 C 77 % 991,7 hPa 0,0 l/m 8,1 km/h (2 Bft) O 83 0 min 0,000 mm 0,0 UV-I 0 W/m 5,2 C 7,7 C 11,3 km/h (2 Bft) 100,00 %
09.02.2016 17:54 9,2 C 75 % 991,7 hPa 0,0 l/m 9,2 km/h (2 Bft) O-NO 62 0 min 0,000 mm 0,0 UV-I 0 W/m 5,0 C 7,2 C 14,5 km/h (3 Bft) 100,00 %
09.02.2016 17:55 9,4 C 75 % 991,7 hPa 0,0 l/m 8,5 km/h (2 Bft) O 98 0 min 0,000 mm 0,0 UV-I 0 W/m 5,2 C 7,9 C 11,3 km/h (2 Bft) 100,00 %
09.02.2016 17:56 9,6 C 75 % 991,7 hPa 0,0 l/m 7,4 km/h (2 Bft) O 86 0 min 0,000 mm 0,0 UV-I 0 W/m 5,4 C 8,9 C 11,3 km/h (2 Bft) 100,00 %
09.02.2016 17:57 9,7 C 74 % 991,7 hPa 0,0 l/m 5,5 km/h (1 Bft) O-NO 70 0 min 0,000 mm 0,0 UV-I 0 W/m 5,3 C 9,7 C 8,0 km/h (2 Bft) 100,00 %
09.02.2016 17:58 9,8 C 74 % 991,6 hPa 0,0 l/m 6,1 km/h (2 Bft) O 90 0 min 0,000 mm 0,0 UV-I 0 W/m 5,4 C 9,8 C 9,7 km/h (2 Bft) 100,00 %
09.02.2016 17:59 9,8 C 75 % 991,6 hPa 0,0 l/m 8,1 km/h (2 Bft) O 86 0 min 0,000 mm 0,0 UV-I 0 W/m 5,6 C 8,6 C 12,9 km/h (3 Bft) 95,83 %
09.02.2016 18:00 9,7 C 75 % 991,6 hPa 0,0 l/m 6,4 km/h (2 Bft) O 84 0 min 0,025 mm 0,0 UV-I 0 W/m 5,5 C 9,7 C 9,7 km/h (2 Bft) 100,00 %
09.02.2016 18:01 9,7 C 74 % 991,6 hPa 0,0 l/m 6,8 km/h (2 Bft) O 82 0 min 0,000 mm 0,0 UV-I 0 W/m 5,3 C 9,4 C 9,7 km/h (2 Bft) 100,00 %
09.02.2016 18:02 9,8 C 74 % 991,6 hPa 0,0 l/m 6,0 km/h (2 Bft) O-NO 74 0 min 0,000 mm 0,0 UV-I 0 W/m 5,4 C 9,8 C 8,0 km/h (2 Bft) 100,00 %
09.02.2016 18:03 9,8 C 74 % 991,6 hPa 0,0 l/m 5,3 km/h (1 Bft) O 89 0 min 0,000 mm 0,0 UV-I 0 W/m 5,4 C 9,8 C 6,4 km/h (2 Bft) 97,37 %
09.02.2016 18:04 9,8 C 74 % 991,6 hPa 0,0 l/m 5,0 km/h (1 Bft) O 92 0 min 0,000 mm 0,0 UV-I 0 W/m 5,4 C 9,8 C 6,4 km/h (2 Bft) 100,00 %
09.02.2016 18:05 9,8 C 75 % 991,6 hPa 0,0 l/m 1,4 km/h (1 Bft) O 92 0 min 0,000 mm 0,0 UV-I 0 W/m 5,6 C 9,8 C 3,2 km/h (1 Bft) 100,00 %
09.02.2016 18:06 9,7 C 74 % 991,6 hPa 0,0 l/m 0,7 km/h (0 Bft) O 92 0 min 0,000 mm 0,0 UV-I 0 W/m 5,3 C 9,7 C 1,6 km/h (1 Bft) 100,00 %
09.02.2016 18:07 9,7 C 76 % 991,6 hPa 0,0 l/m 0,0 km/h (0 Bft) O 92 0 min 0,000 mm 0,0 UV-I 0 W/m 5,7 C 9,7 C 0,0 km/h (0 Bft) 96,30 %
09.02.2016 18:08 9,6 C 76 % 991,6 hPa 0,0 l/m 5,0 km/h (1 Bft) O-NO 68 0 min 0,000 mm 0,0 UV-I 0 W/m 5,6 C 9,6 C 8,0 km/h (2 Bft) 100,00 %
09.02.2016 18:09 9,5 C 76 % 991,6 hPa 0,0 l/m 4,8 km/h (1 Bft) O-NO 65 0 min 0,000 mm 0,0 UV-I 0 W/m 5,5 C 9,5 C 6,4 km/h (2 Bft) 98,54 %
09.02.2016 18:10 9,5 C 75 % 991,5 hPa 0,0 l/m 4,4 km/h (1 Bft) O-NO 59 0 min 0,000 mm 0,0 UV-I 0 W/m 5,3 C 9,5 C 6,4 km/h (2 Bft) 100,00 %
09.02.2016 18:11 9,6 C 75 % 991,6 hPa 0,0 l/m 3,3 km/h (1 Bft) NO 49 0 min 0,000 mm 0,0 UV-I 0 W/m 5,4 C 9,6 C 4,8 km/h (1 Bft) 91,30 %
09.02.2016 18:12 9,6 C 75 % 991,6 hPa 0,0 l/m 4,2 km/h (1 Bft) O-NO 74 0 min 0,000 mm 0,0 UV-I 0 W/m 5,4 C 9,6 C 6,4 km/h (2 Bft) 100,00 %
09.02.2016 18:13 9,7 C 74 % 991,6 hPa 0,0 l/m 2,8 km/h (1 Bft) O-NO 74 0 min 0,000 mm 0,0 UV-I 0 W/m 5,3 C 9,7 C 3,2 km/h (1 Bft) 100,00 %
09.02.2016 18:14 9,7 C 74 % 991,6 hPa 0,0 l/m 2,1 km/h (1 Bft) O-NO 74 0 min 0,000 mm 0,0 UV-I 0 W/m 5,3 C 9,7 C 4,8 km/h (1 Bft) 100,00 %
09.02.2016 18:15 9,8 C 74 % 991,6 hPa 0,0 l/m 2,9 km/h (1 Bft) O-NO 74 0 min 0,000 mm 0,0 UV-I 0 W/m 5,4 C 9,8 C 4,8 km/h (1 Bft) 100,00 %
09.02.2016 18:16 9,8 C 75 % 991,5 hPa 0,0 l/m 1,5 km/h (1 Bft) O-NO 74 0 min 0,000 mm 0,0 UV-I 0 W/m 5,6 C 9,8 C 3,2 km/h (1 Bft) 100,00 %
09.02.2016 18:17 9,7 C 75 % 991,5 hPa 0,0 l/m 2,2 km/h (1 Bft) O-NO 74 0 min 0,000 mm 0,0 UV-I 0 W/m 5,5 C 9,7 C 3,2 km/h (1 Bft) 95,65 %
09.02.2016 18:18 9,7 C 76 % 991,5 hPa 0,0 l/m 2,8 km/h (1 Bft) O-NO 74 0 min 0,000 mm 0,0 UV-I 0 W/m 5,7 C 9,7 C 3,2 km/h (1 Bft) 100,00 %
09.02.2016 18:19 9,6 C 76 % 991,5 hPa 0,0 l/m 1,9 km/h (1 Bft) O-NO 74 0 min 0,000 mm 0,0 UV-I 0 W/m 5,6 C 9,6 C 3,2 km/h (1 Bft) 96,55 %
09.02.2016 18:20 9,6 C 76 % 991,5 hPa 0,0 l/m 0,1 km/h (0 Bft) O-NO 74 0 min 0,000 mm 0,0 UV-I 0 W/m 5,6 C 9,6 C 1,6 km/h (1 Bft) 100,00 %
09.02.2016 18:21 9,4 C 77 % 991,5 hPa 0,0 l/m 0,0 km/h (0 Bft) O-NO 74 0 min 0,000 mm 0,0 UV-I 0 W/m 5,6 C 9,4 C 0,0 km/h (0 Bft) 92,86 %
09.02.2016 18:22 9,3 C 77 % 991,4 hPa 0,0 l/m 0,0 km/h (0 Bft) O-NO 74 0 min 0,000 mm 0,0 UV-I 0 W/m 5,5 C 9,3 C 0,0 km/h (0 Bft) 100,00 %
09.02.2016 18:23 9,2 C 78 % 991,4 hPa 0,0 l/m 1,4 km/h (1 Bft) O-NO 74 0 min 0,000 mm 0,0 UV-I 0 W/m 5,6 C 9,2 C 3,2 km/h (1 Bft) 100,00 %
09.02.2016 18:24 9,2 C 79 % 991,4 hPa 0,0 l/m 3,7 km/h (1 Bft) O-NO 74 0 min 0,000 mm 0,0 UV-I 0 W/m 5,8 C 9,2 C 4,8 km/h (1 Bft) 100,00 %
09.02.2016 18:25 9,1 C 79 % 991,4 hPa 0,0 l/m 4,1 km/h (1 Bft) O-NO 74 0 min 0,000 mm 0,0 UV-I 0 W/m 5,7 C 9,1 C 4,8 km/h (1 Bft) 100,00 %
09.02.2016 18:26 8,9 C 80 % 991,4 hPa 0,0 l/m 3,0 km/h (1 Bft) O-NO 74 0 min 0,000 mm 0,0 UV-I 0 W/m 5,6 C 8,9 C 4,8 km/h (1 Bft) 100,00 %
09.02.2016 18:27 8,8 C 80 % 991,4 hPa 0,0 l/m 1,8 km/h (1 Bft) O-NO 74 0 min 0,000 mm 0,0 UV-I 0 W/m 5,5 C 8,8 C 3,2 km/h (1 Bft) 100,00 %
09.02.2016 18:28 8,8 C 80 % 991,3 hPa 0,0 l/m 1,8 km/h (1 Bft) O-NO 74 0 min 0,000 mm 0,0 UV-I 0 W/m 5,5 C 8,8 C 3,2 km/h (1 Bft) 100,00 %
09.02.2016 18:29 8,8 C 79 % 991,3 hPa 0,0 l/m 3,8 km/h (1 Bft) O-NO 59 0 min 0,000 mm 0,0 UV-I 0 W/m 5,4 C 8,8 C 4,8 km/h (1 Bft) 100,00 %
09.02.2016 18:30 8,8 C 79 % 991,3 hPa 0,0 l/m 2,7 km/h (1 Bft) O-NO 59 0 min 0,000 mm 0,0 UV-I 0 W/m 5,4 C 8,8 C 3,2 km/h (1 Bft) 100,00 %
09.02.2016 18:31 8,9 C 79 % 991,4 hPa 0,0 l/m 5,8 km/h (2 Bft) O-NO 69 0 min 0,000 mm 0,0 UV-I 0 W/m 5,5 C 8,9 C 6,4 km/h (2 Bft) 100,00 %
09.02.2016 18:32 8,9 C 79 % 991,3 hPa 0,0 l/m 3,6 km/h (1 Bft) O-NO 69 0 min 0,000 mm 0,0 UV-I 0 W/m 5,5 C 8,9 C 6,4 km/h (2 Bft) 100,00 %
09.02.2016 18:33 8,8 C 80 % 991,3 hPa 0,0 l/m 1,2 km/h (1 Bft) O-NO 69 0 min 0,000 mm 0,0 UV-I 0 W/m 5,5 C 8,8 C 1,6 km/h (1 Bft) 100,00 %
09.02.2016 18:34 8,8 C 80 % 991,3 hPa 0,0 l/m 2,7 km/h (1 Bft) O-NO 69 0 min 0,000 mm 0,0 UV-I 0 W/m 5,5 C 8,8 C 4,8 km/h (1 Bft) 100,00 %
09.02.2016 18:35 8,8 C 80 % 991,3 hPa 0,0 l/m 3,8 km/h (1 Bft) O-NO 69 0 min 0,000 mm 0,0 UV-I 0 W/m 5,5 C 8,8 C 4,8 km/h (1 Bft) 100,00 %
09.02.2016 18:36 8,9 C 79 % 991,3 hPa 0,0 l/m 4,4 km/h (1 Bft) O-NO 68 0 min 0,000 mm 0,0 UV-I 0 W/m 5,5 C 8,9 C 4,8 km/h (1 Bft) 100,00 %
09.02.2016 18:37 8,9 C 79 % 991,2 hPa 0,0 l/m 6,3 km/h (2 Bft) NO 51 0 min 0,000 mm 0,0 UV-I 0 W/m 5,5 C 8,9 C 8,0 km/h (2 Bft) 100,00 %
09.02.2016 18:38 8,9 C 79 % 991,2 hPa 0,0 l/m 6,0 km/h (2 Bft) NO 55 0 min 0,000 mm 0,0 UV-I 0 W/m 5,5 C 8,9 C 6,4 km/h (2 Bft) 96,15 %
09.02.2016 18:39 9,0 C 78 % 991,2 hPa 0,0 l/m 6,8 km/h (2 Bft) NO 45 0 min 0,000 mm 0,0 UV-I 0 W/m 5,4 C 8,7 C 11,3 km/h (2 Bft) 100,00 %
09.02.2016 18:40 9,1 C 78 % 991,1 hPa 0,0 l/m 7,0 km/h (2 Bft) NO 45 0 min 0,000 mm 0,0 UV-I 0 W/m 5,5 C 8,7 C 9,7 km/h (2 Bft) 100,00 %
09.02.2016 18:41 9,2 C 78 % 991,1 hPa 0,0 l/m 5,7 km/h (1 Bft) NO 44 0 min 0,000 mm 0,0 UV-I 0 W/m 5,6 C 9,2 C 8,0 km/h (2 Bft) 100,00 %
09.02.2016 18:42 9,2 C 79 % 990,9 hPa 0,0 l/m 7,4 km/h (2 Bft) NO 39 0 min 0,000 mm 0,0 UV-I 0 W/m 5,8 C 8,4 C 9,7 km/h (2 Bft) 100,00 %
09.02.2016 18:43 9,1 C 79 % 990,9 hPa 0,0 l/m 9,4 km/h (2 Bft) N-NO 32 0 min 0,000 mm 0,0 UV-I 0 W/m 5,7 C 7,0 C 9,7 km/h (2 Bft) 100,00 %
09.02.2016 18:44 9,1 C 79 % 990,9 hPa 0,0 l/m 8,9 km/h (2 Bft) NO 55 0 min 0,000 mm 0,0 UV-I 0 W/m 5,7 C 7,3 C 11,3 km/h (2 Bft) 100,00 %
09.02.2016 18:45 9,1 C 78 % 991,0 hPa 0,0 l/m 8,7 km/h (2 Bft) O-NO 68 0 min 0,000 mm 0,0 UV-I 0 W/m 5,5 C 7,4 C 12,9 km/h (3 Bft) 100,00 %
09.02.2016 18:46 9,1 C 78 % 991,1 hPa 0,0 l/m 10,1 km/h (2 Bft) O-NO 62 0 min 0,000 mm 0,0 UV-I 0 W/m 5,5 C 6,5 C 12,9 km/h (3 Bft) 100,00 %
09.02.2016 18:47 9,1 C 78 % 991,0 hPa 0,0 l/m 8,6 km/h (2 Bft) NO 55 0 min 0,000 mm 0,0 UV-I 0 W/m 5,5 C 7,5 C 12,9 km/h (3 Bft) 95,83 %
09.02.2016 18:48 9,2 C 77 % 990,9 hPa 0,0 l/m 9,7 km/h (2 Bft) NO 55 0 min 0,000 mm 0,0 UV-I 0 W/m 5,4 C 6,9 C 11,3 km/h (2 Bft) 96,15 %
09.02.2016 18:49 9,2 C 77 % 990,9 hPa 0,0 l/m 8,5 km/h (2 Bft) NO 55 0 min 0,000 mm 0,0 UV-I 0 W/m 5,4 C 7,7 C 9,7 km/h (2 Bft) 100,00 %
09.02.2016 18:50 9,2 C 77 % 990,9 hPa 0,0 l/m 7,2 km/h (2 Bft) NO 44 0 min 0,000 mm 0,0 UV-I 0 W/m 5,4 C 8,6 C 9,7 km/h (2 Bft) 93,33 %
09.02.2016 18:51 9,3 C 76 % 990,9 hPa 0,0 l/m 5,8 km/h (2 Bft) NO 52 0 min 0,000 mm 0,0 UV-I 0 W/m 5,3 C 9,3 C 8,0 km/h (2 Bft) 100,00 %
09.02.2016 18:52 9,3 C 76 % 990,9 hPa 0,0 l/m 2,9 km/h (1 Bft) NO 53 0 min 0,000 mm 0,0 UV-I 0 W/m 5,3 C 9,3 C 4,8 km/h (1 Bft) 100,00 %
09.02.2016 18:53 9,3 C 76 % 990,9 hPa 0,0 l/m 2,5 km/h (1 Bft) NO 53 0 min 0,000 mm 0,0 UV-I 0 W/m 5,3 C 9,3 C 3,2 km/h (1 Bft) 100,00 %
09.02.2016 18:54 9,3 C 76 % 990,9 hPa 0,0 l/m 3,6 km/h (1 Bft) NO 53 0 min 0,000 mm 0,0 UV-I 0 W/m 5,3 C 9,3 C 4,8 km/h (1 Bft) 100,00 %
09.02.2016 18:55 9,3 C 76 % 990,8 hPa 0,0 l/m 3,0 km/h (1 Bft) NO 53 0 min 0,000 mm 0,0 UV-I 0 W/m 5,3 C 9,3 C 4,8 km/h (1 Bft) 100,00 %
09.02.2016 18:56 9,3 C 76 % 990,8 hPa 0,0 l/m 1,0 km/h (0 Bft) NO 53 0 min 0,000 mm 0,0 UV-I 0 W/m 5,3 C 9,3 C 1,6 km/h (1 Bft) 100,00 %
09.02.2016 18:57 9,3 C 77 % 990,8 hPa 0,0 l/m 3,1 km/h (1 Bft) O-NO 69 0 min 0,000 mm 0,0 UV-I 0 W/m 5,5 C 9,3 C 4,8 km/h (1 Bft) 100,00 %
09.02.2016 18:58 9,2 C 77 % 990,7 hPa 0,0 l/m 5,5 km/h (1 Bft) O-NO 71 0 min 0,000 mm 0,0 UV-I 0 W/m 5,4 C 9,2 C 8,0 km/h (2 Bft) 100,00 %
09.02.2016 18:59 9,2 C 77 % 990,7 hPa 0,0 l/m 5,3 km/h (1 Bft) NO 51 0 min 0,000 mm 0,0 UV-I 0 W/m 5,4 C 9,2 C 8,0 km/h (2 Bft) 100,00 %
09.02.2016 19:00 9,2 C 76 % 990,7 hPa 0,0 l/m 5,0 km/h (1 Bft) O-NO 66 0 min 0,026 mm 0,0 UV-I 0 W/m 5,2 C 9,2 C 6,4 km/h (2 Bft) 100,00 %
09.02.2016 19:01 9,2 C 77 % 990,7 hPa 0,0 l/m 8,7 km/h (2 Bft) NO 55 0 min 0,000 mm 0,0 UV-I 0 W/m 5,4 C 7,5 C 12,9 km/h (3 Bft) 100,00 %
09.02.2016 19:02 9,2 C 76 % 990,7 hPa 0,0 l/m 8,2 km/h (2 Bft) O-NO 63 0 min 0,000 mm 0,0 UV-I 0 W/m 5,2 C 7,9 C 9,7 km/h (2 Bft) 92,59 %
09.02.2016 19:03 9,2 C 74 % 990,7 hPa 0,0 l/m 3,0 km/h (1 Bft) O-NO 63 0 min 0,000 mm 0,0 UV-I 0 W/m 4,8 C 9,2 C 6,4 km/h (2 Bft) 100,00 %
09.02.2016 19:04 9,3 C 76 % 990,7 hPa 0,0 l/m 1,0 km/h (0 Bft) O-NO 74 0 min 0,000 mm 0,0 UV-I 0 W/m 5,3 C 9,3 C 3,2 km/h (1 Bft) 93,10 %
09.02.2016 19:05 9,2 C 76 % 990,7 hPa 0,0 l/m 0,8 km/h (0 Bft) O-NO 74 0 min 0,000 mm 0,0 UV-I 0 W/m 5,2 C 9,2 C 3,2 km/h (1 Bft) 95,65 %
09.02.2016 19:06 9,2 C 77 % 990,7 hPa 0,0 l/m 1,3 km/h (1 Bft) O-NO 74 0 min 0,000 mm 0,0 UV-I 0 W/m 5,4 C 9,2 C 3,2 km/h (1 Bft) 100,00 %
09.02.2016 19:07 9,1 C 77 % 990,6 hPa 0,0 l/m 0,3 km/h (0 Bft) O-NO 74 0 min 0,000 mm 0,0 UV-I 0 W/m 5,3 C 9,1 C 1,6 km/h (1 Bft) 95,65 %
09.02.2016 19:08 9,0 C 77 % 990,6 hPa 0,0 l/m 2,1 km/h (1 Bft) O-NO 74 0 min 0,000 mm 0,0 UV-I 0 W/m 5,2 C 9,0 C 3,2 km/h (1 Bft) 95,83 %
09.02.2016 19:09 9,0 C 77 % 990,5 hPa 0,0 l/m 2,8 km/h (1 Bft) O-NO 74 0 min 0,000 mm 0,0 UV-I 0 W/m 5,2 C 9,0 C 4,8 km/h (1 Bft) 96,15 %
09.02.2016 19:10 8,9 C 77 % 990,6 hPa 0,0 l/m 1,8 km/h (1 Bft) O-NO 67 0 min 0,000 mm 0,0 UV-I 0 W/m 5,1 C 8,9 C 4,8 km/h (1 Bft) 100,00 %
09.02.2016 19:11 8,9 C 77 % 990,6 hPa 0,0 l/m 3,1 km/h (1 Bft) O-NO 61 0 min 0,000 mm 0,0 UV-I 0 W/m 5,1 C 8,9 C 6,4 km/h (2 Bft) 95,83 %
09.02.2016 19:12 8,9 C 78 % 990,6 hPa 0,0 l/m 1,7 km/h (1 Bft) O-NO 61 0 min 0,000 mm 0,0 UV-I 0 W/m 5,3 C 8,9 C 3,2 km/h (1 Bft) 95,65 %
09.02.2016 19:13 8,9 C 78 % 990,6 hPa 0,0 l/m 1,3 km/h (1 Bft) O-NO 71 0 min 0,000 mm 0,0 UV-I 0 W/m 5,3 C 8,9 C 3,2 km/h (1 Bft) 100,00 %
09.02.2016 19:14 8,8 C 78 % 990,6 hPa 0,0 l/m 2,7 km/h (1 Bft) O-NO 71 0 min 0,000 mm 0,0 UV-I 0 W/m 5,2 C 8,8 C 4,8 km/h (1 Bft) 91,30 %
09.02.2016 19:15 8,8 C 79 % 990,6 hPa 0,0 l/m 2,1 km/h (1 Bft) O-NO 71 0 min 0,000 mm 0,0 UV-I 0 W/m 5,4 C 8,8 C 3,2 km/h (1 Bft) 100,00 %
09.02.2016 19:16 8,8 C 78 % 990,6 hPa 0,0 l/m 2,3 km/h (1 Bft) SO 140 0 min 0,000 mm 0,0 UV-I 0 W/m 5,2 C 8,8 C 3,2 km/h (1 Bft) 92,31 %
09.02.2016 19:17 8,7 C 79 % 990,6 hPa 0,0 l/m 0,6 km/h (0 Bft) SO 140 0 min 0,000 mm 0,0 UV-I 0 W/m 5,3 C 8,7 C 1,6 km/h (1 Bft) 100,00 %
09.02.2016 19:18 8,6 C 79 % 990,6 hPa 0,0 l/m 0,8 km/h (0 Bft) SO 140 0 min 0,000 mm 0,0 UV-I 0 W/m 5,2 C 8,6 C 3,2 km/h (1 Bft) 91,30 %
09.02.2016 19:19 8,6 C 79 % 990,6 hPa 0,0 l/m 2,2 km/h (1 Bft) SO 139 0 min 0,000 mm 0,0 UV-I 0 W/m 5,2 C 8,6 C 3,2 km/h (1 Bft) 100,00 %
09.02.2016 19:20 8,6 C 79 % 990,7 hPa 0,0 l/m 0,4 km/h (0 Bft) SO 139 0 min 0,000 mm 0,0 UV-I 0 W/m 5,2 C 8,6 C 1,6 km/h (1 Bft) 96,15 %
09.02.2016 19:21 8,6 C 79 % 990,7 hPa 0,0 l/m 0,3 km/h (0 Bft) SO 139 0 min 0,000 mm 0,0 UV-I 0 W/m 5,2 C 8,6 C 1,6 km/h (1 Bft) 100,00 %
09.02.2016 19:22 8,5 C 79 % 990,7 hPa 0,0 l/m 0,4 km/h (0 Bft) SO 139 0 min 0,000 mm 0,0 UV-I 0 W/m 5,1 C 8,5 C 1,6 km/h (1 Bft) 92,31 %
09.02.2016 19:23 8,5 C 80 % 990,7 hPa 0,0 l/m 2,3 km/h (1 Bft) SO 139 0 min 0,000 mm 0,0 UV-I 0 W/m 5,3 C 8,5 C 3,2 km/h (1 Bft) 94,44 %
09.02.2016 19:24 8,4 C 80 % 990,7 hPa 0,0 l/m 1,3 km/h (1 Bft) SO 139 0 min 0,000 mm 0,0 UV-I 0 W/m 5,2 C 8,4 C 1,6 km/h (1 Bft) 95,65 %
09.02.2016 19:25 8,3 C 81 % 990,7 hPa 0,0 l/m 0,3 km/h (0 Bft) SO 139 0 min 0,000 mm 0,0 UV-I 0 W/m 5,2 C 8,3 C 1,6 km/h (1 Bft) 95,83 %
09.02.2016 19:26 8,3 C 82 % 990,7 hPa 0,0 l/m 1,5 km/h (1 Bft) SO 139 0 min 0,000 mm 0,0 UV-I 0 W/m 5,4 C 8,3 C 3,2 km/h (1 Bft) 100,00 %
09.02.2016 19:27 8,3 C 81 % 990,7 hPa 0,0 l/m 1,6 km/h (1 Bft) SO 139 0 min 0,000 mm 0,0 UV-I 0 W/m 5,2 C 8,3 C 3,2 km/h (1 Bft) 97,56 %
09.02.2016 19:28 8,2 C 81 % 990,7 hPa 0,0 l/m 3,1 km/h (1 Bft) O-NO 65 0 min 0,000 mm 0,0 UV-I 0 W/m 5,1 C 8,2 C 4,8 km/h (1 Bft) 100,00 %
09.02.2016 19:29 8,2 C 81 % 990,7 hPa 0,0 l/m 2,8 km/h (1 Bft) O-NO 65 0 min 0,000 mm 0,0 UV-I 0 W/m 5,1 C 8,2 C 4,8 km/h (1 Bft) 91,67 %
09.02.2016 19:30 8,2 C 81 % 990,7 hPa 0,0 l/m 1,6 km/h (1 Bft) O-NO 65 0 min 0,000 mm 0,0 UV-I 0 W/m 5,1 C 8,2 C 1,6 km/h (1 Bft) 100,00 %
09.02.2016 19:31 8,2 C 81 % 990,7 hPa 0,0 l/m 0,6 km/h (0 Bft) O-NO 65 0 min 0,000 mm 0,0 UV-I 0 W/m 5,1 C 8,2 C 1,6 km/h (1 Bft) 92,31 %
09.02.2016 19:32 8,2 C 81 % 990,7 hPa 0,0 l/m 2,3 km/h (1 Bft) O-NO 65 0 min 0,000 mm 0,0 UV-I 0 W/m 5,1 C 8,2 C 3,2 km/h (1 Bft) 96,30 %
09.02.2016 19:33 8,2 C 80 % 990,7 hPa 0,0 l/m 0,7 km/h (0 Bft) O-NO 65 0 min 0,000 mm 0,0 UV-I 0 W/m 5,0 C 8,2 C 3,2 km/h (1 Bft) 95,65 %
09.02.2016 19:34 8,2 C 81 % 990,7 hPa 0,0 l/m 0,7 km/h (0 Bft) O-NO 65 0 min 0,000 mm 0,0 UV-I 0 W/m 5,1 C 8,2 C 3,2 km/h (1 Bft) 95,83 %
09.02.2016 19:35 8,2 C 80 % 990,7 hPa 0,0 l/m 1,0 km/h (0 Bft) O-NO 65 0 min 0,000 mm 0,0 UV-I 0 W/m 5,0 C 8,2 C 3,2 km/h (1 Bft) 100,00 %
09.02.2016 19:36 8,3 C 80 % 990,7 hPa 0,0 l/m 0,5 km/h (0 Bft) O-NO 65 0 min 0,000 mm 0,0 UV-I 0 W/m 5,1 C 8,3 C 1,6 km/h (1 Bft) 96,30 %
09.02.2016 19:37 8,3 C 81 % 990,6 hPa 0,0 l/m 0,6 km/h (0 Bft) O-NO 65 0 min 0,000 mm 0,0 UV-I 0 W/m 5,2 C 8,3 C 1,6 km/h (1 Bft) 100,00 %
09.02.2016 19:38 8,3 C 81 % 990,6 hPa 0,0 l/m 2,9 km/h (1 Bft) O-NO 66 0 min 0,000 mm 0,0 UV-I 0 W/m 5,2 C 8,3 C 4,8 km/h (1 Bft) 100,00 %
09.02.2016 19:39 8,3 C 81 % 990,6 hPa 0,0 l/m 4,5 km/h (1 Bft) O 83 0 min 0,000 mm 0,0 UV-I 0 W/m 5,2 C 8,3 C 11,3 km/h (2 Bft) 86,96 %
09.02.2016 19:40 8,3 C 79 % 990,5 hPa 0,0 l/m 9,3 km/h (2 Bft) O-SO 104 0 min 0,000 mm 0,0 UV-I 0 W/m 4,9 C 6,2 C 12,9 km/h (3 Bft) 100,00 %
09.02.2016 19:41 8,3 C 77 % 990,4 hPa 0,0 l/m 8,2 km/h (2 Bft) O 96 0 min 0,000 mm 0,0 UV-I 0 W/m 4,5 C 6,9 C 11,3 km/h (2 Bft) 100,00 %
09.02.2016 19:42 8,5 C 76 % 990,4 hPa 0,0 l/m 8,4 km/h (2 Bft) O 94 0 min 0,000 mm 0,0 UV-I 0 W/m 4,5 C 7,0 C 11,3 km/h (2 Bft) 100,00 %
09.02.2016 19:43 8,7 C 75 % 990,4 hPa 0,0 l/m 5,5 km/h (1 Bft) O-SO 107 0 min 0,000 mm 0,0 UV-I 0 W/m 4,5 C 8,7 C 6,4 km/h (2 Bft) 100,00 %
09.02.2016 19:44 8,8 C 75 % 990,5 hPa 0,0 l/m 4,7 km/h (1 Bft) O-SO 108 0 min 0,000 mm 0,0 UV-I 0 W/m 4,6 C 8,8 C 8,0 km/h (2 Bft) 100,00 %
09.02.2016 19:45 9,0 C 74 % 990,5 hPa 0,0 l/m 5,3 km/h (1 Bft) O-SO 119 0 min 0,000 mm 0,0 UV-I 0 W/m 4,6 C 9,0 C 8,0 km/h (2 Bft) 96,55 %
09.02.2016 19:46 9,1 C 74 % 990,6 hPa 0,0 l/m 3,3 km/h (1 Bft) O-SO 115 0 min 0,000 mm 0,0 UV-I 0 W/m 4,7 C 9,1 C 6,4 km/h (2 Bft) 100,00 %
09.02.2016 19:47 9,2 C 74 % 990,6 hPa 0,0 l/m 1,3 km/h (1 Bft) O-SO 115 0 min 0,000 mm 0,0 UV-I 0 W/m 4,8 C 9,2 C 1,6 km/h (1 Bft) 100,00 %
09.02.2016 19:48 9,2 C 76 % 990,6 hPa 0,0 l/m 0,3 km/h (0 Bft) O-SO 115 0 min 0,000 mm 0,0 UV-I 0 W/m 5,2 C 9,2 C 1,6 km/h (1 Bft) 96,30 %
09.02.2016 19:49 9,1 C 78 % 990,6 hPa 0,0 l/m 0,0 km/h (0 Bft) O-SO 115 0 min 0,000 mm 0,0 UV-I 0 W/m 5,5 C 9,1 C 0,0 km/h (0 Bft) 100,00 %
09.02.2016 19:50 8,9 C 78 % 990,5 hPa 0,0 l/m 0,0 km/h (0 Bft) O-SO 115 0 min 0,000 mm 0,0 UV-I 0 W/m 5,3 C 8,9 C 0,0 km/h (0 Bft) 100,00 %
09.02.2016 19:51 8,8 C 79 % 990,5 hPa 0,0 l/m 2,1 km/h (1 Bft) O-SO 115 0 min 0,000 mm 0,0 UV-I 0 W/m 5,4 C 8,8 C 3,2 km/h (1 Bft) 94,44 %
09.02.2016 19:52 8,6 C 80 % 990,6 hPa 0,0 l/m 0,7 km/h (0 Bft) O-SO 115 0 min 0,000 mm 0,0 UV-I 0 W/m 5,3 C 8,6 C 1,6 km/h (1 Bft) 100,00 %
09.02.2016 19:53 8,5 C 80 % 990,5 hPa 0,0 l/m 0,3 km/h (0 Bft) O-SO 115 0 min 0,000 mm 0,0 UV-I 0 W/m 5,3 C 8,5 C 1,6 km/h (1 Bft) 100,00 %
09.02.2016 19:54 8,4 C 80 % 990,7 hPa 0,0 l/m 1,0 km/h (0 Bft) O-SO 115 0 min 0,000 mm 0,0 UV-I 0 W/m 5,2 C 8,4 C 3,2 km/h (1 Bft) 100,00 %
09.02.2016 19:55 8,3 C 80 % 990,7 hPa 0,0 l/m 3,8 km/h (1 Bft) SW 223 0 min 0,000 mm 0,0 UV-I 0 W/m 5,1 C 8,3 C 6,4 km/h (2 Bft) 100,00 %
09.02.2016 19:56 8,2 C 80 % 990,7 hPa 0,0 l/m 3,7 km/h (1 Bft) SW 224 0 min 0,000 mm 0,0 UV-I 0 W/m 5,0 C 8,2 C 4,8 km/h (1 Bft) 100,00 %
09.02.2016 19:57 8,2 C 81 % 990,7 hPa 0,0 l/m 2,8 km/h (1 Bft) SW 224 0 min 0,000 mm 0,0 UV-I 0 W/m 5,1 C 8,2 C 3,2 km/h (1 Bft) 100,00 %
09.02.2016 19:58 8,1 C 81 % 990,7 hPa 0,0 l/m 0,8 km/h (0 Bft) SW 224 0 min 0,000 mm 0,0 UV-I 0 W/m 5,0 C 8,1 C 1,6 km/h (1 Bft) 100,00 %
09.02.2016 19:59 8,1 C 82 % 990,7 hPa 0,0 l/m 0,9 km/h (0 Bft) SW 224 0 min 0,000 mm 0,0 UV-I 0 W/m 5,2 C 8,1 C 1,6 km/h (1 Bft) 100,00 %
09.02.2016 20:00 8,1 C 81 % 990,7 hPa 0,0 l/m 0,8 km/h (0 Bft) SW 224 0 min 0,000 mm 0,0 UV-I 0 W/m 5,0 C 8,1 C 1,6 km/h (1 Bft) 100,00 %
09.02.2016 20:01 8,1 C 81 % 990,7 hPa 0,0 l/m 1,6 km/h (1 Bft) SW 224 0 min 0,000 mm 0,0 UV-I 0 W/m 5,0 C 8,1 C 1,6 km/h (1 Bft) 100,00 %
09.02.2016 20:02 8,1 C 81 % 990,7 hPa 0,0 l/m 1,5 km/h (1 Bft) SW 224 0 min 0,000 mm 0,0 UV-I 0 W/m 5,0 C 8,1 C 3,2 km/h (1 Bft) 100,00 %
09.02.2016 20:03 8,1 C 81 % 990,6 hPa 0,0 l/m 1,2 km/h (1 Bft) SW 224 0 min 0,000 mm 0,0 UV-I 0 W/m 5,0 C 8,1 C 1,6 km/h (1 Bft) 100,00 %
09.02.2016 20:04 8,2 C 81 % 990,6 hPa 0,0 l/m 1,5 km/h (1 Bft) SW 224 0 min 0,000 mm 0,0 UV-I 0 W/m 5,1 C 8,2 C 1,6 km/h (1 Bft) 100,00 %
09.02.2016 20:05 8,2 C 81 % 990,6 hPa 0,0 l/m 0,7 km/h (0 Bft) SW 224 0 min 0,000 mm 0,0 UV-I 0 W/m 5,1 C 8,2 C 1,6 km/h (1 Bft) 98,46 %
09.02.2016 20:06 8,2 C 81 % 990,6 hPa 0,0 l/m 1,5 km/h (1 Bft) SW 229 0 min 0,000 mm 0,0 UV-I 0 W/m 5,1 C 8,2 C 3,2 km/h (1 Bft) 100,00 %
09.02.2016 20:07 8,2 C 81 % 990,5 hPa 0,0 l/m 2,3 km/h (1 Bft) W-SW 248 0 min 0,000 mm 0,0 UV-I 0 W/m 5,1 C 8,2 C 4,8 km/h (1 Bft) 100,00 %
09.02.2016 20:08 8,2 C 81 % 990,6 hPa 0,0 l/m 0,1 km/h (0 Bft) W-SW 248 0 min 0,000 mm 0,0 UV-I 0 W/m 5,1 C 8,2 C 1,6 km/h (1 Bft) 100,00 %
09.02.2016 20:09 8,2 C 81 % 990,6 hPa 0,0 l/m 0,7 km/h (0 Bft) W-SW 248 0 min 0,000 mm 0,0 UV-I 0 W/m 5,1 C 8,2 C 1,6 km/h (1 Bft) 100,00 %
09.02.2016 20:10 8,2 C 81 % 990,6 hPa 0,0 l/m 0,5 km/h (0 Bft) W-SW 248 0 min 0,000 mm 0,0 UV-I 0 W/m 5,1 C 8,2 C 1,6 km/h (1 Bft) 96,30 %
09.02.2016 20:11 8,2 C 81 % 990,6 hPa 0,0 l/m 0,5 km/h (0 Bft) W-SW 248 0 min 0,000 mm 0,0 UV-I 0 W/m 5,1 C 8,2 C 1,6 km/h (1 Bft) 100,00 %
09.02.2016 20:12 8,1 C 81 % 990,5 hPa 0,0 l/m 1,6 km/h (1 Bft) W-SW 252 0 min 0,000 mm 0,0 UV-I 0 W/m 5,0 C 8,1 C 3,2 km/h (1 Bft) 100,00 %
09.02.2016 20:13 8,1 C 81 % 990,5 hPa 0,0 l/m 3,5 km/h (1 Bft) N 351 0 min 0,000 mm 0,0 UV-I 0 W/m 5,0 C 8,1 C 4,8 km/h (1 Bft) 100,00 %
09.02.2016 20:14 8,1 C 81 % 990,5 hPa 0,0 l/m 1,9 km/h (1 Bft) N 351 0 min 0,000 mm 0,0 UV-I 0 W/m 5,0 C 8,1 C 3,2 km/h (1 Bft) 100,00 %
09.02.2016 20:15 8,1 C 81 % 990,5 hPa 0,0 l/m 1,0 km/h (0 Bft) N 351 0 min 0,000 mm 0,0 UV-I 0 W/m 5,0 C 8,1 C 1,6 km/h (1 Bft) 100,00 %
09.02.2016 20:16 8,1 C 81 % 990,4 hPa 0,0 l/m 2,2 km/h (1 Bft) N 351 0 min 0,000 mm 0,0 UV-I 0 W/m 5,0 C 8,1 C 3,2 km/h (1 Bft) 100,00 %
09.02.2016 20:17 8,1 C 80 % 990,4 hPa 0,0 l/m 2,5 km/h (1 Bft) N 351 0 min 0,000 mm 0,0 UV-I 0 W/m 4,9 C 8,1 C 3,2 km/h (1 Bft) 100,00 %
09.02.2016 20:18 8,2 C 80 % 990,4 hPa 0,0 l/m 2,2 km/h (1 Bft) N 351 0 min 0,000 mm 0,0 UV-I 0 W/m 5,0 C 8,2 C 3,2 km/h (1 Bft) 100,00 %
09.02.2016 20:19 8,2 C 79 % 990,3 hPa 0,0 l/m 4,0 km/h (1 Bft) N-NO 13 0 min 0,000 mm 0,0 UV-I 0 W/m 4,8 C 8,2 C 4,8 km/h (1 Bft) 100,00 %
09.02.2016 20:20 8,2 C 79 % 990,3 hPa 0,0 l/m 3,4 km/h (1 Bft) N-NO 31 0 min 0,000 mm 0,0 UV-I 0 W/m 4,8 C 8,2 C 4,8 km/h (1 Bft) 100,00 %
09.02.2016 20:21 8,3 C 78 % 990,2 hPa 0,0 l/m 4,4 km/h (1 Bft) NO 51 0 min 0,000 mm 0,0 UV-I 0 W/m 4,7 C 8,3 C 6,4 km/h (2 Bft) 100,00 %
09.02.2016 20:22 8,3 C 78 % 990,2 hPa 0,0 l/m 5,7 km/h (1 Bft) NO 52 0 min 0,000 mm 0,0 UV-I 0 W/m 4,7 C 8,3 C 6,4 km/h (2 Bft) 100,00 %
09.02.2016 20:23 8,4 C 78 % 990,2 hPa 0,0 l/m 4,6 km/h (1 Bft) NO 52 0 min 0,000 mm 0,0 UV-I 0 W/m 4,8 C 8,4 C 6,4 km/h (2 Bft) 91,30 %
09.02.2016 20:24 8,5 C 78 % 990,2 hPa 0,0 l/m 3,1 km/h (1 Bft) NO 52 0 min 0,000 mm 0,0 UV-I 0 W/m 4,9 C 8,5 C 4,8 km/h (1 Bft) 100,00 %
09.02.2016 20:25 8,6 C 77 % 990,2 hPa 0,0 l/m 2,7 km/h (1 Bft) NO 52 0 min 0,000 mm 0,0 UV-I 0 W/m 4,8 C 8,6 C 3,2 km/h (1 Bft) 100,00 %
09.02.2016 20:26 8,6 C 77 % 990,2 hPa 0,0 l/m 2,0 km/h (1 Bft) NO 52 0 min 0,000 mm 0,0 UV-I 0 W/m 4,8 C 8,6 C 3,2 km/h (1 Bft) 100,00 %
09.02.2016 20:27 8,6 C 77 % 990,2 hPa 0,0 l/m 1,7 km/h (1 Bft) NO 52 0 min 0,000 mm 0,0 UV-I 0 W/m 4,8 C 8,6 C 3,2 km/h (1 Bft) 100,00 %
09.02.2016 20:28 8,6 C 77 % 990,2 hPa 0,0 l/m 1,8 km/h (1 Bft) NO 52 0 min 0,000 mm 0,0 UV-I 0 W/m 4,8 C 8,6 C 3,2 km/h (1 Bft) 100,00 %
09.02.2016 20:29 8,6 C 77 % 990,2 hPa 0,0 l/m 0,5 km/h (0 Bft) NO 52 0 min 0,000 mm 0,0 UV-I 0 W/m 4,8 C 8,6 C 1,6 km/h (1 Bft) 100,00 %
09.02.2016 20:30 8,6 C 78 % 990,2 hPa 0,0 l/m 1,9 km/h (1 Bft) NO 52 0 min 0,000 mm 0,0 UV-I 0 W/m 5,0 C 8,6 C 3,2 km/h (1 Bft) 95,65 %
09.02.2016 20:31 8,6 C 78 % 990,2 hPa 0,0 l/m 4,0 km/h (1 Bft) NO 51 0 min 0,000 mm 0,0 UV-I 0 W/m 5,0 C 8,6 C 4,8 km/h (1 Bft) 100,00 %
09.02.2016 20:32 8,6 C 77 % 990,2 hPa 0,0 l/m 4,2 km/h (1 Bft) NO 51 0 min 0,000 mm 0,0 UV-I 0 W/m 4,8 C 8,6 C 4,8 km/h (1 Bft) 100,00 %
09.02.2016 20:33 8,6 C 77 % 990,1 hPa 0,0 l/m 2,6 km/h (1 Bft) NO 51 0 min 0,000 mm 0,0 UV-I 0 W/m 4,8 C 8,6 C 4,8 km/h (1 Bft) 100,00 %
09.02.2016 20:34 8,6 C 78 % 990,2 hPa 0,0 l/m 2,2 km/h (1 Bft) NO 51 0 min 0,000 mm 0,0 UV-I 0 W/m 5,0 C 8,6 C 3,2 km/h (1 Bft) 100,00 %
09.02.2016 20:35 8,4 C 79 % 990,1 hPa 0,0 l/m 3,3 km/h (1 Bft) NO 50 0 min 0,000 mm 0,0 UV-I 0 W/m 5,0 C 8,4 C 4,8 km/h (1 Bft) 100,00 %
09.02.2016 20:36 8,4 C 79 % 990,1 hPa 0,0 l/m 2,1 km/h (1 Bft) NO 50 0 min 0,000 mm 0,0 UV-I 0 W/m 5,0 C 8,4 C 4,8 km/h (1 Bft) 100,00 %
09.02.2016 20:37 8,3 C 79 % 990,1 hPa 0,0 l/m 0,0 km/h (0 Bft) NO 50 0 min 0,000 mm 0,0 UV-I 0 W/m 4,9 C 8,3 C 0,0 km/h (0 Bft) 100,00 %
09.02.2016 20:38 8,3 C 79 % 990,1 hPa 0,0 l/m 0,0 km/h (0 Bft) NO 50 0 min 0,000 mm 0,0 UV-I 0 W/m 4,9 C 8,3 C 0,0 km/h (0 Bft) 100,00 %
09.02.2016 20:39 8,3 C 80 % 990,1 hPa 0,0 l/m 0,0 km/h (0 Bft) NO 50 0 min 0,000 mm 0,0 UV-I 0 W/m 5,1 C 8,3 C 0,0 km/h (0 Bft) 100,00 %
09.02.2016 20:40 8,2 C 80 % 990,1 hPa 0,0 l/m 0,7 km/h (0 Bft) NO 50 0 min 0,000 mm 0,0 UV-I 0 W/m 5,0 C 8,2 C 1,6 km/h (1 Bft) 100,00 %
09.02.2016 20:41 8,1 C 80 % 990,1 hPa 0,0 l/m 0,0 km/h (0 Bft) NO 50 0 min 0,000 mm 0,0 UV-I 0 W/m 4,9 C 8,1 C 0,0 km/h (0 Bft) 100,00 %
09.02.2016 20:42 8,1 C 80 % 990,1 hPa 0,0 l/m 0,0 km/h (0 Bft) NO 50 0 min 0,000 mm 0,0 UV-I 0 W/m 4,9 C 8,1 C 0,0 km/h (0 Bft) 100,00 %
09.02.2016 20:43 8,0 C 81 % 990,1 hPa 0,0 l/m 0,0 km/h (0 Bft) NO 50 0 min 0,000 mm 0,0 UV-I 0 W/m 4,9 C 8,0 C 0,0 km/h (0 Bft) 100,00 %
09.02.2016 20:44 7,9 C 80 % 990,1 hPa 0,0 l/m 0,8 km/h (0 Bft) NO 50 0 min 0,000 mm 0,0 UV-I 0 W/m 4,7 C 7,9 C 1,6 km/h (1 Bft) 100,00 %
09.02.2016 20:45 7,9 C 81 % 990,1 hPa 0,0 l/m 0,4 km/h (0 Bft) NO 50 0 min 0,000 mm 0,0 UV-I 0 W/m 4,8 C 7,9 C 1,6 km/h (1 Bft) 100,00 %
09.02.2016 20:46 7,9 C 81 % 990,1 hPa 0,0 l/m 0,0 km/h (0 Bft) NO 50 0 min 0,000 mm 0,0 UV-I 0 W/m 4,8 C 7,9 C 0,0 km/h (0 Bft) 96,55 %
09.02.2016 20:47 7,8 C 82 % 990,1 hPa 0,0 l/m 0,0 km/h (0 Bft) NO 50 0 min 0,000 mm 0,0 UV-I 0 W/m 4,9 C 7,8 C 0,0 km/h (0 Bft) 100,00 %
09.02.2016 20:48 7,8 C 81 % 990,1 hPa 0,0 l/m 0,0 km/h (0 Bft) NO 50 0 min 0,000 mm 0,0 UV-I 0 W/m 4,7 C 7,8 C 0,0 km/h (0 Bft) 100,00 %
09.02.2016 20:49 7,8 C 82 % 990,1 hPa 0,0 l/m 0,0 km/h (0 Bft) NO 50 0 min 0,000 mm 0,0 UV-I 0 W/m 4,9 C 7,8 C 0,0 km/h (0 Bft) 100,00 %
09.02.2016 20:50 7,7 C 82 % 990,1 hPa 0,0 l/m 1,1 km/h (1 Bft) NO 50 0 min 0,000 mm 0,0 UV-I 0 W/m 4,8 C 7,7 C 1,6 km/h (1 Bft) 100,00 %
09.02.2016 20:51 7,6 C 83 % 990,0 hPa 0,0 l/m 1,0 km/h (0 Bft) NO 50 0 min 0,000 mm 0,0 UV-I 0 W/m 4,9 C 7,6 C 1,6 km/h (1 Bft) 100,00 %
09.02.2016 20:52 7,6 C 84 % 990,0 hPa 0,0 l/m 0,1 km/h (0 Bft) NO 50 0 min 0,000 mm 0,0 UV-I 0 W/m 5,1 C 7,6 C 1,6 km/h (1 Bft) 100,00 %
09.02.2016 20:53 7,4 C 84 % 990,0 hPa 0,0 l/m 0,0 km/h (0 Bft) NO 50 0 min 0,000 mm 0,0 UV-I 0 W/m 4,9 C 7,4 C 0,0 km/h (0 Bft) 100,00 %
09.02.2016 20:54 7,3 C 85 % 990,0 hPa 0,0 l/m 1,1 km/h (1 Bft) NO 50 0 min 0,000 mm 0,0 UV-I 0 W/m 4,9 C 7,3 C 3,2 km/h (1 Bft) 95,83 %
09.02.2016 20:55 7,3 C 85 % 989,9 hPa 0,0 l/m 2,9 km/h (1 Bft) NO 50 0 min 0,000 mm 0,0 UV-I 0 W/m 4,9 C 7,3 C 3,2 km/h (1 Bft) 100,00 %
09.02.2016 20:56 7,3 C 85 % 989,9 hPa 0,0 l/m 0,9 km/h (0 Bft) NO 50 0 min 0,000 mm 0,0 UV-I 0 W/m 4,9 C 7,3 C 1,6 km/h (1 Bft) 100,00 %
09.02.2016 20:57 7,3 C 84 % 989,9 hPa 0,0 l/m 0,6 km/h (0 Bft) NO 50 0 min 0,000 mm 0,0 UV-I 0 W/m 4,8 C 7,3 C 1,6 km/h (1 Bft) 100,00 %
09.02.2016 20:58 7,3 C 84 % 989,9 hPa 0,0 l/m 0,0 km/h (0 Bft) NO 50 0 min 0,000 mm 0,0 UV-I 0 W/m 4,8 C 7,3 C 0,0 km/h (0 Bft) 100,00 %
09.02.2016 20:59 7,3 C 85 % 989,9 hPa 0,0 l/m 0,0 km/h (0 Bft) NO 50 0 min 0,000 mm 0,0 UV-I 0 W/m 4,9 C 7,3 C 0,0 km/h (0 Bft) 95,65 %
09.02.2016 21:00 7,3 C 84 % 989,9 hPa 0,0 l/m 1,6 km/h (1 Bft) NO 50 0 min 0,000 mm 0,0 UV-I 0 W/m 4,8 C 7,3 C 3,2 km/h (1 Bft) 95,83 %
09.02.2016 21:01 7,3 C 84 % 989,8 hPa 0,0 l/m 1,7 km/h (1 Bft) NO 50 0 min 0,000 mm 0,0 UV-I 0 W/m 4,8 C 7,3 C 3,2 km/h (1 Bft) 100,00 %
09.02.2016 21:02 7,4 C 84 % 989,8 hPa 0,0 l/m 1,9 km/h (1 Bft) NO 50 0 min 0,000 mm 0,0 UV-I 0 W/m 4,9 C 7,4 C 3,2 km/h (1 Bft) 100,00 %
09.02.2016 21:03 7,4 C 84 % 989,8 hPa 0,0 l/m 2,7 km/h (1 Bft) NO 50 0 min 0,000 mm 0,0 UV-I 0 W/m 4,9 C 7,4 C 3,2 km/h (1 Bft) 100,00 %
09.02.2016 21:04 7,4 C 84 % 989,7 hPa 0,0 l/m 1,9 km/h (1 Bft) NO 50 0 min 0,000 mm 0,0 UV-I 0 W/m 4,9 C 7,4 C 3,2 km/h (1 Bft) 100,00 %
09.02.2016 21:05 7,4 C 83 % 989,7 hPa 0,0 l/m 2,6 km/h (1 Bft) NO 50 0 min 0,000 mm 0,0 UV-I 0 W/m 4,7 C 7,4 C 3,2 km/h (1 Bft) 95,83 %
09.02.2016 21:06 7,4 C 83 % 989,6 hPa 0,0 l/m 2,9 km/h (1 Bft) NO 50 0 min 0,000 mm 0,0 UV-I 0 W/m 4,7 C 7,4 C 3,2 km/h (1 Bft) 95,65 %
09.02.2016 21:07 7,4 C 83 % 989,6 hPa 0,0 l/m 3,0 km/h (1 Bft) NO 50 0 min 0,000 mm 0,0 UV-I 0 W/m 4,7 C 7,4 C 3,2 km/h (1 Bft) 100,00 %
09.02.2016 21:08 7,6 C 81 % 989,6 hPa 0,0 l/m 3,0 km/h (1 Bft) NO 50 0 min 0,000 mm 0,0 UV-I 0 W/m 4,6 C 7,6 C 4,8 km/h (1 Bft) 91,30 %
09.02.2016 21:09 7,7 C 80 % 989,6 hPa 0,0 l/m 1,9 km/h (1 Bft) NO 50 0 min 0,000 mm 0,0 UV-I 0 W/m 4,5 C 7,7 C 3,2 km/h (1 Bft) 100,00 %
09.02.2016 21:10 7,7 C 81 % 989,6 hPa 0,0 l/m 1,2 km/h (1 Bft) NO 50 0 min 0,000 mm 0,0 UV-I 0 W/m 4,7 C 7,7 C 1,6 km/h (1 Bft) 100,00 %
09.02.2016 21:11 7,7 C 81 % 989,6 hPa 0,0 l/m 2,1 km/h (1 Bft) NO 50 0 min 0,000 mm 0,0 UV-I 0 W/m 4,7 C 7,7 C 3,2 km/h (1 Bft) 100,00 %
09.02.2016 21:12 7,8 C 80 % 989,6 hPa 0,0 l/m 1,8 km/h (1 Bft) NO 50 0 min 0,000 mm 0,0 UV-I 0 W/m 4,6 C 7,8 C 3,2 km/h (1 Bft) 100,00 %
09.02.2016 21:13 7,9 C 79 % 989,5 hPa 0,0 l/m 2,3 km/h (1 Bft) NO 50 0 min 0,000 mm 0,0 UV-I 0 W/m 4,5 C 7,9 C 3,2 km/h (1 Bft) 98,61 %
09.02.2016 21:14 7,9 C 80 % 989,5 hPa 0,0 l/m 2,1 km/h (1 Bft) NO 50 0 min 0,000 mm 0,0 UV-I 0 W/m 4,7 C 7,9 C 3,2 km/h (1 Bft) 97,56 %
09.02.2016 21:15 7,9 C 79 % 989,4 hPa 0,0 l/m 2,6 km/h (1 Bft) NO 50 0 min 0,000 mm 0,0 UV-I 0 W/m 4,5 C 7,9 C 4,8 km/h (1 Bft) 100,00 %
09.02.2016 21:16 8,0 C 79 % 989,4 hPa 0,0 l/m 3,6 km/h (1 Bft) NO 50 0 min 0,000 mm 0,0 UV-I 0 W/m 4,6 C 8,0 C 4,8 km/h (1 Bft) 96,15 %
09.02.2016 21:17 8,1 C 79 % 989,4 hPa 0,0 l/m 4,2 km/h (1 Bft) NO 50 0 min 0,000 mm 0,0 UV-I 0 W/m 4,7 C 8,1 C 4,8 km/h (1 Bft) 100,00 %
09.02.2016 21:18 8,1 C 78 % 989,4 hPa 0,0 l/m 3,7 km/h (1 Bft) NO 50 0 min 0,000 mm 0,0 UV-I 0 W/m 4,5 C 8,1 C 4,8 km/h (1 Bft) 91,30 %
09.02.2016 21:19 8,2 C 77 % 989,4 hPa 0,0 l/m 4,5 km/h (1 Bft) O-NO 59 0 min 0,000 mm 0,0 UV-I 0 W/m 4,4 C 8,2 C 4,8 km/h (1 Bft) 100,00 %
09.02.2016 21:20 8,2 C 79 % 989,4 hPa 0,0 l/m 3,6 km/h (1 Bft) O-NO 59 0 min 0,000 mm 0,0 UV-I 0 W/m 4,8 C 8,2 C 4,8 km/h (1 Bft) 96,15 %
09.02.2016 21:21 8,1 C 79 % 989,4 hPa 0,0 l/m 1,9 km/h (1 Bft) O-NO 59 0 min 0,000 mm 0,0 UV-I 0 W/m 4,7 C 8,1 C 3,2 km/h (1 Bft) 95,83 %
09.02.2016 21:22 8,0 C 80 % 989,4 hPa 0,0 l/m 0,1 km/h (0 Bft) O-NO 59 0 min 0,000 mm 0,0 UV-I 0 W/m 4,8 C 8,0 C 1,6 km/h (1 Bft) 100,00 %
09.02.2016 21:23 7,9 C 80 % 989,4 hPa 0,0 l/m 0,0 km/h (0 Bft) O-NO 59 0 min 0,000 mm 0,0 UV-I 0 W/m 4,7 C 7,9 C 0,0 km/h (0 Bft) 95,83 %
09.02.2016 21:24 7,8 C 81 % 989,3 hPa 0,0 l/m 0,2 km/h (0 Bft) O-NO 59 0 min 0,000 mm 0,0 UV-I 0 W/m 4,7 C 7,8 C 1,6 km/h (1 Bft) 100,00 %
09.02.2016 21:25 7,7 C 81 % 989,3 hPa 0,0 l/m 0,0 km/h (0 Bft) O-NO 59 0 min 0,000 mm 0,0 UV-I 0 W/m 4,7 C 7,7 C 0,0 km/h (0 Bft) 96,15 %
09.02.2016 21:26 7,7 C 81 % 989,3 hPa 0,0 l/m 0,1 km/h (0 Bft) O-NO 59 0 min 0,000 mm 0,0 UV-I 0 W/m 4,7 C 7,7 C 1,6 km/h (1 Bft) 100,00 %
09.02.2016 21:27 7,6 C 81 % 989,2 hPa 0,0 l/m 0,2 km/h (0 Bft) O-NO 59 0 min 0,000 mm 0,0 UV-I 0 W/m 4,6 C 7,6 C 1,6 km/h (1 Bft) 92,31 %
09.02.2016 21:28 7,6 C 81 % 989,2 hPa 0,0 l/m 0,0 km/h (0 Bft) O-NO 59 0 min 0,000 mm 0,0 UV-I 0 W/m 4,6 C 7,6 C 0,0 km/h (0 Bft) 95,83 %
09.02.2016 21:29 7,6 C 81 % 989,2 hPa 0,0 l/m 0,0 km/h (0 Bft) O-NO 59 0 min 0,000 mm 0,0 UV-I 0 W/m 4,6 C 7,6 C 0,0 km/h (0 Bft) 95,65 %
09.02.2016 21:30 7,6 C 80 % 989,2 hPa 0,0 l/m 0,5 km/h (0 Bft) O-NO 59 0 min 0,000 mm 0,0 UV-I 0 W/m 4,4 C 7,6 C 3,2 km/h (1 Bft) 100,00 %
09.02.2016 21:31 7,7 C 80 % 989,1 hPa 0,0 l/m 2,0 km/h (1 Bft) O-NO 59 0 min 0,000 mm 0,0 UV-I 0 W/m 4,5 C 7,7 C 3,2 km/h (1 Bft) 95,65 %
09.02.2016 21:32 7,7 C 80 % 989,1 hPa 0,0 l/m 1,4 km/h (1 Bft) O-NO 59 0 min 0,000 mm 0,0 UV-I 0 W/m 4,5 C 7,7 C 3,2 km/h (1 Bft) 100,00 %
09.02.2016 21:33 7,7 C 81 % 989,1 hPa 0,0 l/m 0,7 km/h (0 Bft) O-NO 59 0 min 0,000 mm 0,0 UV-I 0 W/m 4,7 C 7,7 C 1,6 km/h (1 Bft) 96,15 %
09.02.2016 21:34 7,6 C 81 % 989,1 hPa 0,0 l/m 0,0 km/h (0 Bft) O-NO 59 0 min 0,000 mm 0,0 UV-I 0 W/m 4,6 C 7,6 C 0,0 km/h (0 Bft) 96,97 %
09.02.2016 21:35 7,6 C 81 % 989,0 hPa 0,0 l/m 0,0 km/h (0 Bft) O-NO 59 0 min 0,000 mm 0,0 UV-I 0 W/m 4,6 C 7,6 C 0,0 km/h (0 Bft) 100,00 %
09.02.2016 21:36 7,6 C 81 % 989,0 hPa 0,0 l/m 0,1 km/h (0 Bft) O-NO 59 0 min 0,000 mm 0,0 UV-I 0 W/m 4,6 C 7,6 C 1,6 km/h (1 Bft) 95,83 %
09.02.2016 21:37 7,5 C 81 % 989,0 hPa 0,0 l/m 0,9 km/h (0 Bft) O-SO 102 0 min 0,000 mm 0,0 UV-I 0 W/m 4,5 C 7,5 C 1,6 km/h (1 Bft) 100,00 %
09.02.2016 21:38 7,5 C 81 % 989,1 hPa 0,0 l/m 2,0 km/h (1 Bft) O-SO 117 0 min 0,000 mm 0,0 UV-I 0 W/m 4,5 C 7,5 C 6,4 km/h (2 Bft) 91,67 %
09.02.2016 21:39 7,4 C 82 % 989,1 hPa 0,0 l/m 4,3 km/h (1 Bft) SO 126 0 min 0,000 mm 0,0 UV-I 0 W/m 4,5 C 7,4 C 6,4 km/h (2 Bft) 95,65 %
09.02.2016 21:40 7,4 C 82 % 989,1 hPa 0,0 l/m 4,2 km/h (1 Bft) SO 126 0 min 0,000 mm 0,0 UV-I 0 W/m 4,5 C 7,4 C 4,8 km/h (1 Bft) 93,33 %
09.02.2016 21:41 7,4 C 82 % 989,1 hPa 0,0 l/m 2,5 km/h (1 Bft) S-SO 150 0 min 0,000 mm 0,0 UV-I 0 W/m 4,5 C 7,4 C 4,8 km/h (1 Bft) 100,00 %
09.02.2016 21:42 7,3 C 83 % 989,1 hPa 0,0 l/m 2,3 km/h (1 Bft) S-SO 148 0 min 0,000 mm 0,0 UV-I 0 W/m 4,6 C 7,3 C 4,8 km/h (1 Bft) 95,83 %
09.02.2016 21:43 7,3 C 83 % 989,1 hPa 0,0 l/m 0,4 km/h (0 Bft) S-SO 148 0 min 0,000 mm 0,0 UV-I 0 W/m 4,6 C 7,3 C 1,6 km/h (1 Bft) 95,65 %
09.02.2016 21:44 7,3 C 83 % 989,1 hPa 0,0 l/m 1,1 km/h (1 Bft) S-SO 148 0 min 0,000 mm 0,0 UV-I 0 W/m 4,6 C 7,3 C 1,6 km/h (1 Bft) 100,00 %
09.02.2016 21:45 7,2 C 83 % 989,1 hPa 0,0 l/m 1,5 km/h (1 Bft) S-SO 148 0 min 0,000 mm 0,0 UV-I 0 W/m 4,5 C 7,2 C 3,2 km/h (1 Bft) 92,31 %
09.02.2016 21:46 7,2 C 83 % 989,0 hPa 0,0 l/m 0,1 km/h (0 Bft) S-SO 148 0 min 0,000 mm 0,0 UV-I 0 W/m 4,5 C 7,2 C 1,6 km/h (1 Bft) 98,47 %
09.02.2016 21:47 7,2 C 83 % 989,0 hPa 0,0 l/m 0,6 km/h (0 Bft) S-SO 148 0 min 0,000 mm 0,0 UV-I 0 W/m 4,5 C 7,2 C 1,6 km/h (1 Bft) 97,62 %
09.02.2016 21:48 7,2 C 82 % 989,0 hPa 0,0 l/m 2,6 km/h (1 Bft) S-SO 155 0 min 0,000 mm 0,0 UV-I 0 W/m 4,3 C 7,2 C 4,8 km/h (1 Bft) 100,00 %
09.02.2016 21:49 7,2 C 83 % 989,0 hPa 0,0 l/m 1,5 km/h (1 Bft) S-SO 154 0 min 0,000 mm 0,0 UV-I 0 W/m 4,5 C 7,2 C 3,2 km/h (1 Bft) 96,30 %
09.02.2016 21:50 7,2 C 83 % 989,0 hPa 0,0 l/m 1,8 km/h (1 Bft) S-SO 155 0 min 0,000 mm 0,0 UV-I 0 W/m 4,5 C 7,2 C 3,2 km/h (1 Bft) 95,65 %
09.02.2016 21:51 7,2 C 83 % 989,0 hPa 0,0 l/m 4,3 km/h (1 Bft) S 184 0 min 0,000 mm 0,0 UV-I 0 W/m 4,5 C 7,2 C 6,4 km/h (2 Bft) 100,00 %
09.02.2016 21:52 7,1 C 83 % 989,0 hPa 0,0 l/m 4,8 km/h (1 Bft) S-SO 153 0 min 0,000 mm 0,0 UV-I 0 W/m 4,4 C 7,1 C 8,0 km/h (2 Bft) 91,30 %
09.02.2016 21:53 7,2 C 83 % 989,0 hPa 0,0 l/m 3,5 km/h (1 Bft) S-SO 157 0 min 0,000 mm 0,0 UV-I 0 W/m 4,5 C 7,2 C 8,0 km/h (2 Bft) 100,00 %
09.02.2016 21:54 7,4 C 79 % 989,0 hPa 0,0 l/m 6,0 km/h (2 Bft) S-SO 154 0 min 0,000 mm 0,0 UV-I 0 W/m 4,0 C 7,4 C 8,0 km/h (2 Bft) 95,65 %
09.02.2016 21:55 7,8 C 74 % 988,9 hPa 0,0 l/m 5,8 km/h (2 Bft) S-SO 163 0 min 0,000 mm 0,0 UV-I 0 W/m 3,5 C 7,8 C 11,3 km/h (2 Bft) 100,00 %
09.02.2016 21:56 8,1 C 72 % 988,9 hPa 0,0 l/m 7,7 km/h (2 Bft) S 169 0 min 0,000 mm 0,0 UV-I 0 W/m 3,4 C 7,1 C 14,5 km/h (3 Bft) 100,00 %
09.02.2016 21:57 8,6 C 70 % 988,9 hPa 0,0 l/m 6,5 km/h (2 Bft) S 178 0 min 0,000 mm 0,0 UV-I 0 W/m 3,4 C 8,5 C 9,7 km/h (2 Bft) 100,00 %
09.02.2016 21:58 9,0 C 68 % 988,9 hPa 0,0 l/m 6,9 km/h (2 Bft) S 172 0 min 0,000 mm 0,0 UV-I 0 W/m 3,4 C 8,6 C 9,7 km/h (2 Bft) 100,00 %
09.02.2016 21:59 9,3 C 66 % 988,8 hPa 0,0 l/m 5,7 km/h (1 Bft) S-SO 157 0 min 0,000 mm 0,0 UV-I 0 W/m 3,3 C 9,3 C 8,0 km/h (2 Bft) 100,00 %
09.02.2016 22:00 9,7 C 65 % 988,8 hPa 0,0 l/m 7,9 km/h (2 Bft) S 190 0 min 0,000 mm 0,0 UV-I 0 W/m 3,4 C 8,6 C 16,1 km/h (3 Bft) 100,00 %
09.02.2016 22:01 10,1 C 62 % 988,9 hPa 0,0 l/m 7,1 km/h (2 Bft) S 188 0 min 0,000 mm 0,0 UV-I 0 W/m 3,2 C 9,6 C 14,5 km/h (3 Bft) 100,00 %
09.02.2016 22:02 10,3 C 59 % 988,8 hPa 0,0 l/m 8,3 km/h (2 Bft) SO 143 0 min 0,000 mm 0,0 UV-I 0 W/m 2,6 C 9,0 C 16,1 km/h (3 Bft) 100,00 %
09.02.2016 22:03 10,7 C 58 % 988,8 hPa 0,0 l/m 7,3 km/h (2 Bft) S-SO 155 0 min 0,000 mm 0,0 UV-I 0 W/m 2,8 C 10,1 C 11,3 km/h (2 Bft) 96,67 %
09.02.2016 22:04 10,9 C 56 % 988,8 hPa 0,0 l/m 5,9 km/h (2 Bft) S-SO 161 0 min 0,000 mm 0,0 UV-I 0 W/m 2,5 C 10,9 C 8,0 km/h (2 Bft) 100,00 %
09.02.2016 22:05 11,2 C 54 % 988,8 hPa 0,0 l/m 8,9 km/h (2 Bft) S-SO 164 0 min 0,000 mm 0,0 UV-I 0 W/m 2,2 C 9,6 C 14,5 km/h (3 Bft) 100,00 %
09.02.2016 22:06 11,4 C 54 % 988,9 hPa 0,0 l/m 5,9 km/h (2 Bft) S-SO 159 0 min 0,000 mm 0,0 UV-I 0 W/m 2,4 C 11,4 C 8,0 km/h (2 Bft) 100,00 %
09.02.2016 22:07 11,7 C 52 % 988,8 hPa 0,0 l/m 7,0 km/h (2 Bft) S 171 0 min 0,000 mm 0,0 UV-I 0 W/m 2,2 C 11,3 C 11,3 km/h (2 Bft) 100,00 %
09.02.2016 22:08 11,8 C 52 % 988,8 hPa 0,0 l/m 7,6 km/h (2 Bft) S-SO 162 0 min 0,000 mm 0,0 UV-I 0 W/m 2,3 C 11,0 C 12,9 km/h (3 Bft) 100,00 %
09.02.2016 22:09 11,9 C 51 % 988,8 hPa 0,0 l/m 7,9 km/h (2 Bft) O-SO 105 0 min 0,000 mm 0,0 UV-I 0 W/m 2,1 C 10,9 C 12,9 km/h (3 Bft) 100,00 %
09.02.2016 22:10 12,1 C 50 % 988,8 hPa 0,0 l/m 7,6 km/h (2 Bft) SO 137 0 min 0,000 mm 0,0 UV-I 0 W/m 2,0 C 11,3 C 9,7 km/h (2 Bft) 100,00 %
09.02.2016 22:11 12,2 C 50 % 988,8 hPa 0,0 l/m 8,5 km/h (2 Bft) S-SO 165 0 min 0,000 mm 0,0 UV-I 0 W/m 2,1 C 10,9 C 16,1 km/h (3 Bft) 100,00 %
09.02.2016 22:12 12,3 C 49 % 988,9 hPa 0,0 l/m 7,6 km/h (2 Bft) S 178 0 min 0,000 mm 0,0 UV-I 0 W/m 1,9 C 11,5 C 12,9 km/h (3 Bft) 100,00 %
09.02.2016 22:13 12,3 C 48 % 988,8 hPa 0,0 l/m 8,6 km/h (2 Bft) SO 131 0 min 0,000 mm 0,0 UV-I 0 W/m 1,6 C 10,9 C 14,5 km/h (3 Bft) 100,00 %
09.02.2016 22:14 12,4 C 48 % 988,9 hPa 0,0 l/m 9,1 km/h (2 Bft) S-SO 167 0 min 0,000 mm 0,0 UV-I 0 W/m 1,7 C 10,7 C 12,9 km/h (3 Bft) 100,00 %
09.02.2016 22:15 12,5 C 48 % 988,9 hPa 0,0 l/m 8,9 km/h (2 Bft) S 178 0 min 0,000 mm 0,0 UV-I 0 W/m 1,8 C 11,0 C 12,9 km/h (3 Bft) 100,00 %
09.02.2016 22:16 12,6 C 48 % 988,9 hPa 0,0 l/m 11,0 km/h (2 Bft) S-SO 148 0 min 0,000 mm 0,0 UV-I 0 W/m 1,9 C 10,0 C 22,5 km/h (4 Bft) 100,00 %
09.02.2016 22:17 12,6 C 48 % 988,9 hPa 0,0 l/m 7,0 km/h (2 Bft) S-SO 162 0 min 0,000 mm 0,0 UV-I 0 W/m 1,9 C 12,2 C 11,3 km/h (2 Bft) 100,00 %
09.02.2016 22:18 12,7 C 47 % 988,9 hPa 0,0 l/m 7,1 km/h (2 Bft) S-SO 151 0 min 0,000 mm 0,0 UV-I 0 W/m 1,7 C 12,3 C 9,7 km/h (2 Bft) 94,44 %
09.02.2016 22:19 12,7 C 47 % 988,9 hPa 0,0 l/m 7,6 km/h (2 Bft) S-SO 155 0 min 0,000 mm 0,0 UV-I 0 W/m 1,7 C 11,9 C 11,3 km/h (2 Bft) 100,00 %
09.02.2016 22:20 12,7 C 46 % 988,9 hPa 0,0 l/m 6,4 km/h (2 Bft) S 175 0 min 0,000 mm 0,0 UV-I 0 W/m 1,4 C 12,7 C 11,3 km/h (2 Bft) 100,00 %
09.02.2016 22:21 12,8 C 46 % 988,9 hPa 0,0 l/m 6,6 km/h (2 Bft) SO 145 0 min 0,000 mm 0,0 UV-I 0 W/m 1,5 C 12,7 C 11,3 km/h (2 Bft) 100,00 %
09.02.2016 22:22 12,8 C 46 % 988,9 hPa 0,0 l/m 7,7 km/h (2 Bft) S-SO 162 0 min 0,000 mm 0,0 UV-I 0 W/m 1,5 C 12,0 C 11,3 km/h (2 Bft) 100,00 %
09.02.2016 22:23 12,8 C 46 % 989,0 hPa 0,0 l/m 8,6 km/h (2 Bft) S 179 0 min 0,000 mm 0,0 UV-I 0 W/m 1,5 C 11,4 C 14,5 km/h (3 Bft) 100,00 %
09.02.2016 22:24 12,8 C 46 % 988,9 hPa 0,0 l/m 10,2 km/h (2 Bft) S-SO 164 0 min 0,000 mm 0,0 UV-I 0 W/m 1,5 C 10,6 C 17,7 km/h (3 Bft) 100,00 %
09.02.2016 22:25 12,9 C 45 % 988,9 hPa 0,0 l/m 8,1 km/h (2 Bft) S-SO 152 0 min 0,000 mm 0,0 UV-I 0 W/m 1,3 C 11,8 C 14,5 km/h (3 Bft) 100,00 %
09.02.2016 22:26 12,9 C 45 % 989,0 hPa 0,0 l/m 8,8 km/h (2 Bft) S 175 0 min 0,000 mm 0,0 UV-I 0 W/m 1,3 C 11,4 C 14,5 km/h (3 Bft) 100,00 %
09.02.2016 22:27 12,9 C 45 % 989,0 hPa 0,0 l/m 7,7 km/h (2 Bft) S-SW 210 0 min 0,000 mm 0,0 UV-I 0 W/m 1,3 C 12,1 C 11,3 km/h (2 Bft) 100,00 %
09.02.2016 22:28 13,0 C 45 % 989,0 hPa 0,0 l/m 8,6 km/h (2 Bft) S-SW 194 0 min 0,000 mm 0,0 UV-I 0 W/m 1,4 C 11,7 C 12,9 km/h (3 Bft) 100,00 %
09.02.2016 22:29 13,1 C 45 % 989,0 hPa 0,0 l/m 13,0 km/h (3 Bft) S-SO 148 0 min 0,000 mm 0,0 UV-I 0 W/m 1,4 C 9,7 C 17,7 km/h (3 Bft) 100,00 %
09.02.2016 22:30 13,1 C 45 % 989,1 hPa 0,0 l/m 11,8 km/h (2 Bft) S-SO 165 0 min 0,000 mm 0,0 UV-I 0 W/m 1,4 C 10,2 C 17,7 km/h (3 Bft) 100,00 %
09.02.2016 22:31 13,1 C 45 % 989,1 hPa 0,0 l/m 9,6 km/h (2 Bft) S 184 0 min 0,000 mm 0,0 UV-I 0 W/m 1,4 C 11,2 C 14,5 km/h (3 Bft) 96,30 %
09.02.2016 22:32 13,1 C 46 % 989,1 hPa 0,0 l/m 10,8 km/h (2 Bft) S-SO 159 0 min 0,000 mm 0,0 UV-I 0 W/m 1,7 C 10,6 C 19,3 km/h (3 Bft) 100,00 %
09.02.2016 22:33 13,0 C 46 % 989,1 hPa 0,0 l/m 14,4 km/h (3 Bft) S 176 0 min 0,000 mm 0,0 UV-I 0 W/m 1,7 C 9,0 C 24,1 km/h (4 Bft) 100,00 %
09.02.2016 22:34 12,9 C 47 % 989,1 hPa 0,0 l/m 11,2 km/h (2 Bft) S 182 0 min 0,000 mm 0,0 UV-I 0 W/m 1,9 C 10,2 C 17,7 km/h (3 Bft) 100,00 %
09.02.2016 22:35 12,9 C 46 % 989,1 hPa 0,0 l/m 9,4 km/h (2 Bft) SO 132 0 min 0,000 mm 0,0 UV-I 0 W/m 1,6 C 11,1 C 17,7 km/h (3 Bft) 100,00 %
09.02.2016 22:36 12,9 C 47 % 989,1 hPa 0,0 l/m 11,1 km/h (2 Bft) O-SO 116 0 min 0,000 mm 0,0 UV-I 0 W/m 1,9 C 10,3 C 17,7 km/h (3 Bft) 100,00 %
09.02.2016 22:37 12,9 C 47 % 989,1 hPa 0,0 l/m 9,0 km/h (2 Bft) S 173 0 min 0,000 mm 0,0 UV-I 0 W/m 1,9 C 11,3 C 12,9 km/h (3 Bft) 100,00 %
09.02.2016 22:38 12,8 C 46 % 989,2 hPa 0,0 l/m 13,3 km/h (3 Bft) S 170 0 min 0,000 mm 0,0 UV-I 0 W/m 1,5 C 9,2 C 17,7 km/h (3 Bft) 100,00 %
09.02.2016 22:39 12,8 C 47 % 989,2 hPa 0,0 l/m 12,7 km/h (3 Bft) S-SW 206 0 min 0,000 mm 0,0 UV-I 0 W/m 1,8 C 9,4 C 19,3 km/h (3 Bft) 100,00 %
09.02.2016 22:40 12,8 C 47 % 989,2 hPa 0,0 l/m 13,7 km/h (3 Bft) S-SO 163 0 min 0,000 mm 0,0 UV-I 0 W/m 1,8 C 9,0 C 20,9 km/h (4 Bft) 100,00 %
09.02.2016 22:41 12,8 C 46 % 989,2 hPa 0,0 l/m 11,8 km/h (2 Bft) S-SO 155 0 min 0,000 mm 0,0 UV-I 0 W/m 1,5 C 9,8 C 16,1 km/h (3 Bft) 100,00 %
09.02.2016 22:42 12,8 C 46 % 989,2 hPa 0,0 l/m 10,4 km/h (2 Bft) SO 135 0 min 0,000 mm 0,0 UV-I 0 W/m 1,5 C 10,5 C 16,1 km/h (3 Bft) 100,00 %
09.02.2016 22:43 12,8 C 46 % 989,1 hPa 0,0 l/m 15,9 km/h (3 Bft) S 169 0 min 0,000 mm 0,0 UV-I 0 W/m 1,5 C 8,2 C 25,7 km/h (4 Bft) 100,00 %
09.02.2016 22:44 12,8 C 47 % 989,0 hPa 0,0 l/m 13,3 km/h (3 Bft) S-SO 150 0 min 0,000 mm 0,0 UV-I 0 W/m 1,8 C 9,2 C 24,1 km/h (4 Bft) 93,33 %
09.02.2016 22:45 12,8 C 46 % 989,1 hPa 0,0 l/m 8,0 km/h (2 Bft) S-SO 158 0 min 0,000 mm 0,0 UV-I 0 W/m 1,5 C 11,8 C 16,1 km/h (3 Bft) 100,00 %
09.02.2016 22:46 13,0 C 44 % 989,2 hPa 0,0 l/m 9,3 km/h (2 Bft) SW 217 0 min 0,000 mm 0,0 UV-I 0 W/m 1,0 C 11,3 C 16,1 km/h (3 Bft) 100,00 %
09.02.2016 22:47 13,1 C 46 % 989,2 hPa 0,0 l/m 8,5 km/h (2 Bft) S-SW 209 0 min 0,000 mm 0,0 UV-I 0 W/m 1,7 C 11,8 C 12,9 km/h (3 Bft) 100,00 %
09.02.2016 22:48 13,1 C 46 % 989,3 hPa 0,0 l/m 4,3 km/h (1 Bft) NW 314 0 min 0,000 mm 0,0 UV-I 0 W/m 1,7 C 13,1 C 6,4 km/h (2 Bft) 100,00 %
09.02.2016 22:49 12,9 C 48 % 989,1 hPa 0,0 l/m 4,7 km/h (1 Bft) W-NW 288 0 min 0,000 mm 0,0 UV-I 0 W/m 2,2 C 12,9 C 6,4 km/h (2 Bft) 100,00 %
09.02.2016 22:50 12,8 C 48 % 989,2 hPa 0,0 l/m 2,0 km/h (1 Bft) W-NW 288 0 min 0,000 mm 0,0 UV-I 0 W/m 2,1 C 12,8 C 4,8 km/h (1 Bft) 100,00 %
09.02.2016 22:51 12,8 C 48 % 989,2 hPa 0,0 l/m 3,8 km/h (1 Bft) SO 140 0 min 0,000 mm 0,0 UV-I 0 W/m 2,1 C 12,8 C 6,4 km/h (2 Bft) 100,00 %
09.02.2016 22:52 12,7 C 48 % 989,2 hPa 0,0 l/m 3,0 km/h (1 Bft) S-SO 164 0 min 0,000 mm 0,0 UV-I 0 W/m 2,0 C 12,7 C 6,4 km/h (2 Bft) 100,00 %
09.02.2016 22:53 12,7 C 48 % 989,3 hPa 0,0 l/m 5,2 km/h (1 Bft) S-SW 196 0 min 0,000 mm 0,0 UV-I 0 W/m 2,0 C 12,7 C 8,0 km/h (2 Bft) 100,00 %
09.02.2016 22:54 12,6 C 48 % 989,4 hPa 0,0 l/m 5,9 km/h (2 Bft) S-SW 212 0 min 0,000 mm 0,0 UV-I 0 W/m 1,9 C 12,6 C 9,7 km/h (2 Bft) 100,00 %
09.02.2016 22:55 12,6 C 48 % 989,4 hPa 0,0 l/m 5,7 km/h (1 Bft) W 266 0 min 0,000 mm 0,0 UV-I 0 W/m 1,9 C 12,6 C 8,0 km/h (2 Bft) 100,00 %
09.02.2016 22:56 12,6 C 47 % 989,3 hPa 0,0 l/m 7,8 km/h (2 Bft) W 268 0 min 0,000 mm 0,0 UV-I 0 W/m 1,6 C 11,7 C 11,3 km/h (2 Bft) 96,30 %
09.02.2016 22:57 12,6 C 48 % 989,3 hPa 0,0 l/m 6,1 km/h (2 Bft) S-SW 203 0 min 0,000 mm 0,0 UV-I 0 W/m 1,9 C 12,6 C 9,7 km/h (2 Bft) 100,00 %
09.02.2016 22:58 12,6 C 48 % 989,4 hPa 0,0 l/m 6,0 km/h (2 Bft) W-SW 254 0 min 0,000 mm 0,0 UV-I 0 W/m 1,9 C 12,6 C 8,0 km/h (2 Bft) 100,00 %
09.02.2016 22:59 12,6 C 49 % 989,4 hPa 0,0 l/m 10,6 km/h (2 Bft) SW 227 0 min 0,000 mm 0,0 UV-I 0 W/m 2,2 C 10,2 C 12,9 km/h (3 Bft) 100,00 %
09.02.2016 23:00 12,5 C 49 % 989,4 hPa 0,0 l/m 7,9 km/h (2 Bft) S-SW 207 0 min 0,000 mm 0,0 UV-I 0 W/m 2,1 C 11,5 C 9,7 km/h (2 Bft) 100,00 %
09.02.2016 23:01 12,4 C 50 % 989,4 hPa 0,0 l/m 5,3 km/h (1 Bft) S-SW 197 0 min 0,051 mm 0,0 UV-I 0 W/m 2,3 C 12,4 C 6,4 km/h (2 Bft) 100,00 %
09.02.2016 23:02 12,4 C 50 % 989,4 hPa 0,0 l/m 5,3 km/h (1 Bft) S-SW 206 0 min 0,000 mm 0,0 UV-I 0 W/m 2,3 C 12,4 C 8,0 km/h (2 Bft) 96,55 %
09.02.2016 23:03 12,3 C 50 % 989,3 hPa 0,0 l/m 7,4 km/h (2 Bft) S 178 0 min 0,000 mm 0,0 UV-I 0 W/m 2,2 C 11,6 C 9,7 km/h (2 Bft) 100,00 %
09.02.2016 23:04 12,3 C 50 % 989,3 hPa 0,0 l/m 6,4 km/h (2 Bft) SW 232 0 min 0,000 mm 0,0 UV-I 0 W/m 2,2 C 12,3 C 8,0 km/h (2 Bft) 100,00 %
09.02.2016 23:05 12,2 C 50 % 989,3 hPa 0,0 l/m 4,3 km/h (1 Bft) S-SW 210 0 min 0,000 mm 0,0 UV-I 0 W/m 2,1 C 12,2 C 6,4 km/h (2 Bft) 100,00 %
09.02.2016 23:06 12,2 C 50 % 989,3 hPa 0,0 l/m 5,6 km/h (1 Bft) SW 215 0 min 0,000 mm 0,0 UV-I 0 W/m 2,1 C 12,2 C 6,4 km/h (2 Bft) 100,00 %
09.02.2016 23:07 12,2 C 50 % 989,3 hPa 0,0 l/m 4,6 km/h (1 Bft) S-SW 213 0 min 0,000 mm 0,0 UV-I 0 W/m 2,1 C 12,2 C 6,4 km/h (2 Bft) 100,00 %
09.02.2016 23:08 12,2 C 50 % 989,4 hPa 0,0 l/m 4,2 km/h (1 Bft) S-SW 206 0 min 0,000 mm 0,0 UV-I 0 W/m 2,1 C 12,2 C 4,8 km/h (1 Bft) 100,00 %
09.02.2016 23:09 12,1 C 51 % 989,4 hPa 0,0 l/m 6,2 km/h (2 Bft) SW 236 0 min 0,000 mm 0,0 UV-I 0 W/m 2,3 C 12,1 C 11,3 km/h (2 Bft) 96,67 %
09.02.2016 23:10 12,1 C 50 % 989,5 hPa 0,0 l/m 6,9 km/h (2 Bft) W-SW 248 0 min 0,000 mm 0,0 UV-I 0 W/m 2,0 C 11,8 C 11,3 km/h (2 Bft) 100,00 %
09.02.2016 23:11 12,0 C 50 % 989,6 hPa 0,0 l/m 10,2 km/h (2 Bft) W 268 0 min 0,000 mm 0,0 UV-I 0 W/m 1,9 C 9,7 C 14,5 km/h (3 Bft) 100,00 %
09.02.2016 23:12 12,1 C 47 % 989,6 hPa 0,0 l/m 11,8 km/h (2 Bft) SW 216 0 min 0,000 mm 0,0 UV-I 0 W/m 1,1 C 9,0 C 17,7 km/h (3 Bft) 100,00 %
09.02.2016 23:13 12,2 C 47 % 989,6 hPa 0,0 l/m 8,4 km/h (2 Bft) SW 224 0 min 0,000 mm 0,0 UV-I 0 W/m 1,2 C 10,9 C 11,3 km/h (2 Bft) 100,00 %
09.02.2016 23:14 12,3 C 46 % 989,5 hPa 0,0 l/m 9,8 km/h (2 Bft) SW 229 0 min 0,000 mm 0,0 UV-I 0 W/m 1,0 C 10,2 C 11,3 km/h (2 Bft) 100,00 %
09.02.2016 23:15 12,5 C 46 % 989,6 hPa 0,0 l/m 8,4 km/h (2 Bft) S-SW 195 0 min 0,000 mm 0,0 UV-I 0 W/m 1,2 C 11,2 C 11,3 km/h (2 Bft) 100,00 %
09.02.2016 23:16 12,6 C 46 % 989,6 hPa 0,0 l/m 9,2 km/h (2 Bft) W-SW 240 0 min 0,000 mm 0,0 UV-I 0 W/m 1,3 C 10,9 C 12,9 km/h (3 Bft) 100,00 %
09.02.2016 23:17 12,7 C 47 % 989,7 hPa 0,0 l/m 6,7 km/h (2 Bft) W-SW 251 0 min 0,000 mm 0,0 UV-I 0 W/m 1,7 C 12,5 C 11,3 km/h (2 Bft) 98,64 %
09.02.2016 23:18 12,7 C 47 % 989,8 hPa 0,0 l/m 9,3 km/h (2 Bft) S-SW 200 0 min 0,000 mm 0,0 UV-I 0 W/m 1,7 C 10,9 C 14,5 km/h (3 Bft) 97,56 %
09.02.2016 23:19 12,7 C 48 % 989,7 hPa 0,0 l/m 16,7 km/h (3 Bft) W-SW 241 0 min 0,000 mm 0,0 UV-I 0 W/m 2,0 C 7,8 C 27,4 km/h (4 Bft) 100,00 %
09.02.2016 23:20 12,8 C 47 % 989,8 hPa 0,0 l/m 22,2 km/h (4 Bft) W-SW 248 0 min 0,000 mm 0,0 UV-I 0 W/m 1,8 C 6,3 C 29,0 km/h (5 Bft) 92,31 %
09.02.2016 23:21 12,8 C 48 % 989,7 hPa 0,0 l/m 18,5 km/h (3 Bft) W 261 0 min 0,000 mm 0,0 UV-I 0 W/m 2,1 C 7,3 C 22,5 km/h (4 Bft) 100,00 %
09.02.2016 23:22 12,8 C 48 % 989,7 hPa 0,0 l/m 16,2 km/h (3 Bft) W-SW 238 0 min 0,000 mm 0,0 UV-I 0 W/m 2,1 C 8,1 C 20,9 km/h (4 Bft) 96,15 %
09.02.2016 23:23 12,8 C 48 % 989,9 hPa 0,0 l/m 16,0 km/h (3 Bft) SW 219 0 min 0,000 mm 0,0 UV-I 0 W/m 2,1 C 8,2 C 22,5 km/h (4 Bft) 100,00 %
09.02.2016 23:24 12,8 C 48 % 989,9 hPa 0,0 l/m 12,3 km/h (3 Bft) SW 223 0 min 0,000 mm 0,0 UV-I 0 W/m 2,1 C 9,6 C 19,3 km/h (3 Bft) 95,83 %
09.02.2016 23:25 12,8 C 48 % 989,9 hPa 0,0 l/m 8,8 km/h (2 Bft) W-SW 243 0 min 0,000 mm 0,0 UV-I 0 W/m 2,1 C 11,3 C 12,9 km/h (3 Bft) 96,15 %
09.02.2016 23:26 12,8 C 48 % 989,9 hPa 0,0 l/m 9,5 km/h (2 Bft) W 271 0 min 0,000 mm 0,0 UV-I 0 W/m 2,1 C 10,9 C 12,9 km/h (3 Bft) 100,00 %
09.02.2016 23:27 12,7 C 49 % 990,0 hPa 0,0 l/m 10,6 km/h (2 Bft) W-SW 253 0 min 0,000 mm 0,0 UV-I 0 W/m 2,3 C 10,3 C 14,5 km/h (3 Bft) 95,83 %
09.02.2016 23:28 12,7 C 49 % 990,0 hPa 0,0 l/m 4,1 km/h (1 Bft) W 266 0 min 0,000 mm 0,0 UV-I 0 W/m 2,3 C 12,7 C 8,0 km/h (2 Bft) 100,00 %
09.02.2016 23:29 12,6 C 51 % 990,0 hPa 0,0 l/m 8,4 km/h (2 Bft) W-SW 249 0 min 0,000 mm 0,0 UV-I 0 W/m 2,7 C 11,3 C 19,3 km/h (3 Bft) 96,55 %
09.02.2016 23:30 12,6 C 50 % 990,2 hPa 0,0 l/m 19,5 km/h (3 Bft) W-SW 240 0 min 0,000 mm 0,0 UV-I 0 W/m 2,5 C 6,8 C 27,4 km/h (4 Bft) 100,00 %
09.02.2016 23:31 12,6 C 50 % 989,9 hPa 0,0 l/m 21,7 km/h (4 Bft) W 261 0 min 0,000 mm 0,0 UV-I 0 W/m 2,5 C 6,2 C 33,8 km/h (5 Bft) 96,15 %
09.02.2016 23:32 12,5 C 51 % 990,0 hPa 0,0 l/m 18,9 km/h (3 Bft) W-SW 248 0 min 0,000 mm 0,0 UV-I 0 W/m 2,6 C 6,8 C 27,4 km/h (4 Bft) 100,00 %
09.02.2016 23:33 12,4 C 51 % 990,1 hPa 0,0 l/m 15,8 km/h (3 Bft) W-SW 255 0 min 0,000 mm 0,0 UV-I 0 W/m 2,6 C 7,7 C 20,9 km/h (4 Bft) 96,15 %
09.02.2016 23:34 12,4 C 52 % 990,1 hPa 0,0 l/m 13,9 km/h (3 Bft) W 277 0 min 0,000 mm 0,0 UV-I 0 W/m 2,8 C 8,5 C 20,9 km/h (4 Bft) 96,30 %
09.02.2016 23:35 12,4 C 52 % 990,2 hPa 0,0 l/m 14,0 km/h (3 Bft) W 263 0 min 0,000 mm 0,0 UV-I 0 W/m 2,8 C 8,4 C 19,3 km/h (3 Bft) 100,00 %
09.02.2016 23:36 12,4 C 52 % 990,2 hPa 0,0 l/m 11,2 km/h (2 Bft) W 271 0 min 0,000 mm 0,0 UV-I 0 W/m 2,8 C 9,6 C 16,1 km/h (3 Bft) 95,83 %
09.02.2016 23:37 12,3 C 53 % 990,2 hPa 0,0 l/m 8,9 km/h (2 Bft) W 279 0 min 0,000 mm 0,0 UV-I 0 W/m 3,0 C 10,7 C 20,9 km/h (4 Bft) 95,65 %
09.02.2016 23:38 12,3 C 53 % 990,2 hPa 0,0 l/m 13,6 km/h (3 Bft) W 269 0 min 0,000 mm 0,0 UV-I 0 W/m 3,0 C 8,5 C 17,7 km/h (3 Bft) 93,33 %
09.02.2016 23:39 12,3 C 53 % 990,3 hPa 0,0 l/m 13,4 km/h (3 Bft) W 260 0 min 0,000 mm 0,0 UV-I 0 W/m 3,0 C 8,6 C 25,7 km/h (4 Bft) 100,00 %
09.02.2016 23:40 12,2 C 54 % 990,4 hPa 0,0 l/m 14,1 km/h (3 Bft) W-SW 252 0 min 0,000 mm 0,0 UV-I 0 W/m 3,2 C 8,2 C 20,9 km/h (4 Bft) 95,83 %
09.02.2016 23:41 12,2 C 54 % 990,6 hPa 0,0 l/m 14,8 km/h (3 Bft) W-SW 239 0 min 0,000 mm 0,0 UV-I 0 W/m 3,2 C 7,9 C 22,5 km/h (4 Bft) 100,00 %
09.02.2016 23:42 12,2 C 54 % 990,6 hPa 0,0 l/m 11,6 km/h (2 Bft) N-NW 328 0 min 0,000 mm 0,0 UV-I 0 W/m 3,2 C 9,2 C 19,3 km/h (3 Bft) 96,55 %
09.02.2016 23:43 12,2 C 54 % 990,6 hPa 0,0 l/m 11,6 km/h (2 Bft) W-NW 284 0 min 0,000 mm 0,0 UV-I 0 W/m 3,2 C 9,2 C 19,3 km/h (3 Bft) 96,15 %
09.02.2016 23:44 12,2 C 54 % 990,6 hPa 0,0 l/m 16,5 km/h (3 Bft) W 260 0 min 0,000 mm 0,0 UV-I 0 W/m 3,2 C 7,3 C 24,1 km/h (4 Bft) 100,00 %
09.02.2016 23:45 12,1 C 54 % 990,7 hPa 0,0 l/m 14,7 km/h (3 Bft) W-SW 248 0 min 0,000 mm 0,0 UV-I 0 W/m 3,1 C 7,8 C 17,7 km/h (3 Bft) 96,67 %
09.02.2016 23:46 12,1 C 55 % 990,7 hPa 0,0 l/m 18,8 km/h (3 Bft) W-SW 255 0 min 0,000 mm 0,0 UV-I 0 W/m 3,3 C 6,4 C 32,2 km/h (5 Bft) 100,00 %
09.02.2016 23:47 12,1 C 55 % 990,8 hPa 0,0 l/m 20,2 km/h (4 Bft) W-SW 246 0 min 0,000 mm 0,0 UV-I 0 W/m 3,3 C 5,9 C 29,0 km/h (5 Bft) 96,15 %
09.02.2016 23:48 12,1 C 55 % 990,9 hPa 0,0 l/m 24,1 km/h (4 Bft) SW 236 0 min 0,000 mm 0,0 UV-I 0 W/m 3,3 C 4,9 C 29,0 km/h (5 Bft) 98,56 %
09.02.2016 23:49 12,1 C 56 % 991,0 hPa 0,0 l/m 19,6 km/h (3 Bft) W 271 0 min 0,000 mm 0,0 UV-I 0 W/m 3,6 C 6,1 C 30,6 km/h (5 Bft) 97,44 %
09.02.2016 23:50 12,1 C 57 % 991,3 hPa 0,0 l/m 19,5 km/h (3 Bft) W 281 0 min 0,000 mm 0,0 UV-I 0 W/m 3,8 C 6,1 C 49,9 km/h (6 Bft) 95,65 %
09.02.2016 23:51 11,9 C 57 % 991,3 hPa 0,2 l/m 35,5 km/h (5 Bft) W 259 0 min 0,000 mm 0,0 UV-I 0 W/m 3,7 C 2,4 C 54,7 km/h (7 Bft) 91,67 %
09.02.2016 23:52 11,8 C 60 % 991,7 hPa 0,0 l/m 28,4 km/h (4 Bft) W 273 0 min 0,000 mm 0,0 UV-I 0 W/m 4,3 C 3,5 C 59,5 km/h (7 Bft) 96,15 %
09.02.2016 23:53 11,4 C 62 % 992,0 hPa 0,0 l/m 31,2 km/h (5 Bft) W 268 0 min 0,000 mm 0,0 UV-I 0 W/m 4,4 C 2,4 C 48,3 km/h (6 Bft) 100,00 %
09.02.2016 23:54 11,1 C 63 % 992,1 hPa 0,0 l/m 29,3 km/h (5 Bft) W 278 0 min 0,000 mm 0,0 UV-I 0 W/m 4,3 C 2,3 C 45,1 km/h (6 Bft) 96,15 %
09.02.2016 23:55 10,7 C 65 % 992,1 hPa 0,0 l/m 27,7 km/h (4 Bft) W-SW 247 0 min 0,000 mm 0,0 UV-I 0 W/m 4,4 C 2,1 C 37,0 km/h (5 Bft) 100,00 %
09.02.2016 23:56 10,3 C 66 % 992,3 hPa 0,0 l/m 27,9 km/h (4 Bft) W 276 0 min 0,000 mm 0,0 UV-I 0 W/m 4,2 C 1,5 C 43,5 km/h (6 Bft) 92,86 %
09.02.2016 23:57 9,9 C 68 % 992,7 hPa 0,0 l/m 28,3 km/h (4 Bft) W 267 0 min 0,000 mm 0,0 UV-I 0 W/m 4,3 C 0,9 C 41,8 km/h (6 Bft) 100,00 %
09.02.2016 23:58 9,5 C 71 % 992,8 hPa 0,2 l/m 41,2 km/h (6 Bft) SW 222 0 min 0,000 mm 0,0 UV-I 0 W/m 4,5 C -2,0 C 53,1 km/h (7 Bft) 96,15 %
09.02.2016 23:59 9,2 C 73 % 992,5 hPa 0,0 l/m 34,1 km/h (5 Bft) SW 234 0 min 0,000 mm 0,0 UV-I 0 W/m 4,6 C -1,3 C 59,5 km/h (7 Bft) 100,00 %
_ Min-Zeit 01:03 22:46 21:59 - 01:23 - - - - - - 23:14 05:07 01:23 00:03
Minimum _ 4,1 C 44 % 988,8 hPa - 0,0 km/h (0 Bft) - - - - - - 1,0 C -3,3 C 0,0 km/h (0 Bft) 83,33 %
_ Max-Zeit 22:29 02:34 02:37 01:39 23:58 - - 07:32 13:01 12:15 12:18 14:09 22:48 23:52 00:02
Maximum _ 13,1 C 97 % 1010,4 hPa 0,2 l/m 41,2 km/h
SW (6 Bft)
- - 1 min 0,254 mm 1,3 UV-I 619 W/m 7,5 C 13,1 C 59,5 km/h
W (7 Bft)
100,00 %
Durchschnitt _ 8,6 C 79 % 1000,5 hPa #3,6 l/m 8,4 km/h (2 Bft) O-NO - #3:58 h #1,372 mm 0,9 UV-I 192 W/m 5,0 C 6,7 C 12,2 km/h (2 Bft) 98,42 %